[[{"header":{"parameterUnit":"m.s-1","parameterCategory":1,"la1":30.6,"la2":28.766,"lo1":-90.7593,"lo2":-88.6598,"dy":0.0162,"dx":0.0183,"nx":116,"ny":114,"refTime":"2023-08-29T06:00:00:Z","depth":0,"parameterNumber":2,"parameterNumberName":"U-component_of_WINDS"},"data":[0.0,0.0,0.0,0.0,0.0,0.0,0.0,0.0,0.0,0.0,0.0,0.0,0.0,0.0,0.0,0.0,0.0,0.0,0.0,0.0,0.0,0.0,0.0,0.0,0.0,0.0,0.0,0.0,0.0,0.0,0.0,0.0,0.0,0.0,0.0,0.0,0.0,0.0,0.0,0.0,0.0,0.0,0.0,0.0,0.0,0.0,0.0,0.0,0.0,0.0,0.0,0.0,0.0,0.0,0.0,0.0,0.0,0.0,0.0,0.0,0.0,0.0,0.0,0.0,0.0,0.0,0.0,0.0,0.0,0.0,0.0,0.0,0.0,0.0,0.0,0.0,0.0,0.0,0.0,0.0,0.0,0.0,0.0,0.0,0.0,0.0,0.0,0.0,0.0,0.0,0.0,0.0,0.0,0.0,0.0,0.0,0.0,0.0,0.0,0.0,0.0,0.0,0.0,0.0,0.0,0.0,0.0,0.0,0.0,0.0,0.0,0.0,0.0,0.0,0.0,0.0,0.0,0.0,0.0,0.0,0.0,0.0,0.0,0.0,0.0,0.0,0.0,0.0,0.0,0.0,0.0,0.0,0.0,0.0,0.0,0.0,0.0,0.0,0.0,0.0,0.0,0.0,0.0,0.0,0.0,0.0,0.0,0.0,0.0,0.0,0.0,0.0,0.0,0.0,0.0,0.0,0.0,0.0,0.0,0.0,0.0,0.0,0.0,0.0,0.0,0.0,0.0,0.0,0.0,0.0,0.0,0.0,0.0,0.0,0.0,0.0,0.0,0.0,0.0,0.0,0.0,0.0,0.0,0.0,0.0,0.0,0.0,0.0,0.0,0.0,0.0,0.0,0.0,0.0,0.0,0.0,0.0,0.0,0.0,0.0,0.0,0.0,0.0,0.0,0.0,0.0,0.0,0.0,0.0,0.0,0.0,0.0,0.0,0.0,0.0,0.0,0.0,0.0,0.0,0.0,0.0,0.0,0.0,0.0,0.0,0.0,0.0,0.0,0.0,0.0,0.0,0.0,0.0,0.0,0.0,0.0,0.0,0.0,0.0,0.0,0.0,0.0,0.0,0.0,0.0,0.0,0.0,0.0,0.0,0.0,0.0,0.0,0.0,0.0,0.0,0.0,0.0,0.0,0.0,0.0,0.0,0.0,0.0,0.0,0.0,0.0,0.0,0.0,0.0,0.0,0.0,0.0,0.0,0.0,0.0,0.0,0.0,0.0,0.0,0.0,0.0,0.0,0.0,0.0,0.0,0.0,0.0,0.0,0.0,0.0,0.0,0.0,0.0,0.0,0.0,0.0,0.0,0.0,0.0,0.0,0.0,0.0,0.0,0.0,0.0,0.0,0.0,0.0,0.0,0.0,0.0,0.0,0.0,0.0,0.0,0.0,0.0,0.0,0.0,0.0,0.0,0.0,0.0,0.0,0.0,0.0,0.0,0.0,0.0,0.0,0.0,0.0,0.0,0.0,0.0,0.0,0.0,0.0,0.0,0.0,0.0,0.0,0.0,0.0,0.0,0.0,0.0,0.0,0.0,0.0,0.0,0.0,0.0,0.0,0.0,0.0,0.0,0.0,0.0,0.0,0.0,0.0,0.0,0.0,0.0,0.0,0.0,0.0,0.0,0.0,0.0,0.0,0.0,0.0,0.0,0.0,0.0,0.0,0.0,0.0,0.0,0.0,0.0,0.0,0.0,0.0,0.0,0.0,0.0,0.0,0.0,0.0,0.0,0.0,0.0,0.0,0.0,0.0,0.0,0.0,0.0,0.0,0.0,0.0,0.0,0.0,0.0,0.0,0.0,0.0,0.0,0.0,0.0,0.0,0.0,0.0,0.0,0.0,0.0,0.0,0.0,0.0,0.0,0.0,0.0,0.0,0.0,0.0,0.0,0.0,0.0,0.0,0.0,0.0,0.0,0.0,0.0,0.0,0.0,0.0,0.0,0.0,0.0,0.0,0.0,0.0,0.0,0.0,0.0,0.0,0.0,0.0,0.0,0.0,0.0,0.0,0.0,0.0,0.0,0.0,0.0,0.0,0.0,0.0,0.0,0.0,0.0,0.0,0.0,0.0,0.0,0.0,0.0,0.0,0.0,0.0,0.0,0.0,0.0,0.0,0.0,0.0,0.0,0.0,0.0,0.0,0.0,0.0,0.0,0.0,0.0,0.0,0.0,0.0,0.0,0.0,0.0,0.0,0.0,0.0,0.0,0.0,0.0,0.0,0.0,0.0,0.0,0.0,0.0,0.0,0.0,0.0,0.0,0.0,0.0,0.0,0.0,0.0,0.0,0.0,0.0,0.0,0.0,0.0,0.0,0.0,0.0,0.0,0.0,0.0,0.0,0.0,0.0,0.0,0.0,0.0,0.0,0.0,0.0,0.0,0.0,0.0,0.0,0.0,0.0,0.0,0.0,0.0,0.0,0.0,0.0,0.0,0.0,0.0,0.0,0.0,0.0,0.0,0.0,0.0,0.0,0.0,0.0,0.0,0.0,0.0,0.0,0.0,0.0,0.0,0.0,0.0,0.0,0.0,0.0,0.0,0.0,0.0,0.0,0.0,0.0,0.0,0.0,0.0,0.0,0.0,0.0,0.0,0.0,0.0,0.0,0.0,0.0,0.0,0.0,0.0,0.0,0.0,0.0,0.0,0.0,0.0,0.0,0.0,0.0,0.0,0.0,0.0,0.0,0.0,0.0,0.0,0.0,0.0,0.0,0.0,0.0,0.0,0.0,0.0,0.0,0.0,0.0,0.0,0.0,0.0,0.0,0.0,0.0,0.0,0.0,0.0,0.0,0.0,0.0,0.0,0.0,0.0,0.0,0.0,0.0,0.0,0.0,0.0,0.0,0.0,0.0,0.0,0.0,0.0,0.0,0.0,0.0,0.0,0.0,0.0,0.0,0.0,0.0,0.0,0.0,0.0,0.0,0.0,0.0,0.0,0.0,0.0,0.0,0.0,0.0,0.0,0.0,0.0,0.0,0.0,0.0,0.0,0.0,0.0,0.0,0.0,0.0,0.0,0.0,0.0,0.0,0.0,0.0,0.0,0.0,0.0,0.0,0.0,0.0,0.0,0.0,0.0,0.0,0.0,0.0,0.0,0.0,0.0,0.0,0.0,0.0,0.0,0.0,0.0,0.0,0.0,0.0,0.0,0.0,0.0,0.0,0.0,0.0,0.0,0.0,0.0,0.0,0.0,0.0,0.0,0.0,0.0,0.0,0.0,0.0,0.0,0.0,0.0,0.0,0.0,0.0,0.0,0.0,0.0,0.0,0.0,0.0,0.0,0.0,0.0,0.0,0.0,0.0,0.0,0.0,0.0,0.0,0.0,0.0,0.0,0.0,0.0,0.0,0.0,0.0,0.0,0.0,0.0,0.0,0.0,0.0,0.0,0.0,0.0,0.0,0.0,0.0,0.0,0.0,0.0,0.0,0.0,0.0,0.0,0.0,0.0,0.0,0.0,0.0,0.0,0.0,0.0,0.0,0.0,0.0,0.0,0.0,0.0,0.0,0.0,0.0,0.0,0.0,0.0,0.0,0.0,0.0,0.0,0.0,0.0,0.0,0.0,0.0,0.0,0.0,0.0,0.0,0.0,0.0,0.0,0.0,0.0,0.0,0.0,0.0,0.0,0.0,0.0,0.0,0.0,0.0,0.0,0.0,0.0,0.0,0.0,0.0,0.0,0.0,0.0,0.0,0.0,0.0,0.0,0.0,0.0,0.0,0.0,0.0,0.0,0.0,0.0,0.0,0.0,0.0,0.0,0.0,0.0,0.0,0.0,0.0,0.0,0.0,0.0,0.0,0.0,0.0,0.0,0.0,0.0,0.0,0.0,0.0,0.0,0.0,0.0,0.0,0.0,0.0,0.0,0.0,0.0,0.0,0.0,0.0,0.0,0.0,0.0,0.0,0.0,0.0,0.0,0.0,0.0,0.0,0.0,0.0,0.0,0.0,0.0,0.0,0.0,0.0,0.0,0.0,0.0,0.0,0.0,0.0,0.0,0.0,0.0,0.0,0.0,0.0,0.0,0.0,0.0,0.0,0.0,0.0,0.0,0.0,0.0,0.0,0.0,0.0,0.0,0.0,0.0,0.0,0.0,0.0,0.0,0.0,0.0,0.0,0.0,0.0,0.0,0.0,0.0,0.0,0.0,0.0,0.0,0.0,0.0,0.0,0.0,0.0,0.0,0.0,0.0,0.0,0.0,0.0,0.0,0.0,0.0,0.0,0.0,0.0,0.0,0.0,0.0,0.0,0.0,0.0,0.0,0.0,0.0,0.0,0.0,0.0,0.0,0.0,0.0,0.0,0.0,0.0,0.0,0.0,0.0,0.0,0.0,0.0,0.0,0.0,0.0,0.0,0.0,0.0,0.0,0.0,0.0,0.0,0.0,0.0,0.0,0.0,0.0,0.0,0.0,0.0,0.0,0.0,0.0,0.0,0.0,0.0,0.0,0.0,0.0,0.0,0.0,0.0,0.0,0.0,0.0,0.0,0.0,0.0,0.0,0.0,0.0,0.0,0.0,0.0,0.0,0.0,0.0,0.0,0.0,0.0,0.0,0.0,0.0,0.0,0.0,0.0,0.0,0.0,0.0,0.0,0.0,0.0,0.0,0.0,0.0,0.0,0.0,0.0,0.0,0.0,0.0,0.0,0.0,0.0,0.0,0.0,0.0,0.0,0.0,0.0,0.0,0.0,0.0,0.0,0.0,0.0,0.0,0.0,0.0,0.0,0.0,0.0,0.0,0.0,0.0,0.0,0.0,0.0,0.0,0.0,0.0,0.0,0.0,0.0,0.0,0.0,0.0,0.0,0.0,0.0,0.0,0.0,0.0,0.0,0.0,0.0,0.0,0.0,0.0,0.0,0.0,0.0,0.0,0.0,0.0,0.0,0.0,0.0,0.0,0.0,0.0,0.0,0.0,0.0,0.0,0.0,0.0,0.0,0.0,0.0,0.0,0.0,0.0,0.0,0.0,0.0,0.0,0.0,0.0,0.0,0.0,0.0,0.0,0.0,0.0,0.0,0.0,0.0,0.0,0.0,0.0,0.0,0.0,0.0,0.0,0.0,0.0,0.0,0.0,0.0,0.0,0.0,0.0,0.0,0.0,0.0,0.0,0.0,0.0,0.0,0.0,0.0,0.0,0.0,0.0,0.0,0.0,0.0,0.0,0.0,0.0,0.0,0.0,0.0,0.0,0.0,0.0,0.0,0.0,0.0,0.0,0.0,0.0,0.0,0.0,0.0,0.0,0.0,0.0,0.0,0.0,0.0,0.0,0.0,0.0,0.0,0.0,0.0,0.0,0.0,0.0,0.0,0.0,0.0,0.0,0.0,0.0,0.0,0.0,0.0,0.0,0.0,0.0,0.0,0.0,0.0,0.0,0.0,0.0,0.0,0.0,0.0,0.0,0.0,0.0,0.0,0.0,0.0,0.0,0.0,0.0,0.0,0.0,0.0,0.0,0.0,0.0,0.0,0.0,0.0,0.0,0.0,0.0,0.0,0.0,0.0,0.0,0.0,0.0,0.0,0.0,0.0,0.0,0.0,0.0,0.0,0.0,0.0,0.0,0.0,0.0,0.0,0.0,0.0,0.0,0.0,0.0,0.0,0.0,0.0,0.0,0.0,0.0,0.0,0.0,0.0,0.0,0.0,0.0,0.0,0.0,0.0,0.0,0.0,0.0,0.0,0.0,0.0,0.0,0.0,0.0,0.0,0.0,0.0,0.0,0.0,0.0,0.0,0.0,0.0,0.0,0.0,0.0,0.0,0.0,0.0,0.0,0.0,0.0,0.0,0.0,0.0,0.0,0.0,0.0,0.0,0.0,0.0,0.0,0.0,0.0,0.0,0.0,0.0,0.0,0.0,0.0,0.0,0.0,0.0,0.0,0.0,0.0,0.0,0.0,0.0,0.0,0.0,0.0,0.0,0.0,0.0,0.0,0.0,0.0,0.0,0.0,0.0,0.0,0.0,0.0,0.0,0.0,0.0,0.0,0.0,0.0,0.0,0.0,0.0,0.0,0.0,0.0,0.0,0.0,0.0,0.0,0.0,0.0,0.0,0.0,0.0,0.0,0.0,0.0,0.0,0.0,0.0,0.0,1.5488,1.5347,0.0,0.0,0.0,0.0,0.0,0.0,0.0,0.0,0.0,0.0,0.0,0.0,0.0,0.0,0.0,0.0,0.0,0.0,0.0,0.0,0.0,0.0,0.0,0.0,0.0,0.0,0.0,0.0,0.0,0.0,0.0,0.0,0.0,0.0,0.0,0.0,0.0,0.0,2.0022,1.9708,1.9699,1.9433,1.9442,1.9708,0.0,0.0,0.0,0.0,0.0,0.0,0.0,0.0,0.0,0.0,0.0,0.0,0.0,0.0,0.0,0.0,0.0,0.0,0.0,0.0,0.0,0.0,0.0,0.0,0.0,0.0,0.0,0.0,0.0,0.0,0.0,0.0,0.0,0.0,0.0,0.0,0.0,0.0,0.0,0.0,0.0,0.0,0.0,0.0,0.0,0.0,0.0,0.0,0.0,0.0,0.0,0.0,0.0,0.0,0.0,0.0,0.0,0.0,0.0,0.0,0.0,0.0,0.0,0.0,0.0,0.0,0.0,0.0,0.0,0.0,1.6631,1.5996,0.0,0.0,0.0,0.0,0.0,0.0,0.0,0.0,0.0,0.0,0.0,0.0,0.0,0.0,0.0,0.0,0.0,0.0,0.0,0.0,0.0,0.0,0.0,0.0,2.1201,2.1964,2.2024,2.2024,0.0,0.0,0.0,0.0,0.0,0.0,0.0,2.1326,2.1216,2.153,2.0417,1.9868,1.9857,1.9415,1.9386,1.9717,1.9509,0.0,0.0,0.0,0.0,0.0,0.0,0.0,0.0,0.0,0.0,0.0,0.0,0.0,0.0,0.0,0.0,0.0,0.0,0.0,0.0,0.0,0.0,0.0,0.0,0.0,0.0,0.0,0.0,0.0,0.0,0.0,0.0,0.0,0.0,0.0,0.0,0.0,0.0,0.0,0.0,0.0,0.0,0.0,0.0,0.0,0.0,0.0,0.0,0.0,0.0,0.0,0.0,0.0,0.0,0.0,0.0,0.0,0.0,0.0,0.0,0.0,0.0,0.0,1.9056,1.9337,1.9629,1.9726,1.9502,1.9007,1.8271,1.7165,1.5889,1.6202,0.0,0.0,0.0,0.0,0.0,0.0,0.0,0.0,0.0,0.0,0.0,0.0,0.0,0.0,0.0,0.0,0.0,0.0,0.0,0.0,0.0,2.156,2.2054,2.3251,2.3355,2.3355,0.0,0.0,0.0,0.0,0.0,0.0,2.2583,2.2478,2.1914,2.0823,2.0653,2.0567,2.0561,2.0499,2.0224,1.9738,1.8747,1.8496,1.8766,0.0,0.0,0.0,0.0,0.0,0.0,0.0,0.0,0.0,0.0,0.0,0.0,0.0,0.0,0.0,0.0,0.0,0.0,0.0,0.0,0.0,0.0,0.0,0.0,0.0,0.0,0.0,0.0,0.0,0.0,0.0,0.0,0.0,0.0,0.0,0.0,0.0,0.0,0.0,0.0,0.0,1.6781,1.7492,0.0,0.0,0.0,0.0,0.0,0.0,0.0,0.0,0.0,0.0,0.0,0.0,0.0,1.8736,1.9185,1.9899,2.0087,1.9737,2.0908,2.1289,2.0966,2.1367,2.1299,2.083,2.0381,0.0,1.762,1.735,0.0,0.0,0.0,0.0,0.0,0.0,0.0,0.0,0.0,0.0,0.0,0.0,0.0,0.0,0.0,0.0,0.0,0.0,0.0,0.0,0.0,2.1695,2.2203,2.349,2.3595,2.3595,2.3595,2.3595,0.0,0.0,0.0,2.3486,2.3201,2.2868,2.2418,2.1814,2.2158,2.1954,2.1248,2.0578,1.9926,1.9324,1.8517,1.8458,1.8936,1.8742,0.0,0.0,0.0,0.0,0.0,0.0,0.0,0.0,0.0,0.0,0.0,0.0,0.0,0.0,0.0,0.0,0.0,0.0,0.0,0.0,0.0,0.0,0.0,0.0,0.0,0.0,0.0,0.0,0.0,0.0,0.0,0.0,0.0,0.0,0.0,0.0,0.0,0.0,0.0,1.7421,1.7717,1.7596,1.7866,1.7878,0.0,0.0,0.0,0.0,0.0,0.0,0.0,0.0,0.0,1.9944,2.0021,2.0166,2.0362,2.1016,2.1328,2.1357,2.1963,2.2245,2.2272,2.2479,2.2332,2.1923,2.1738,2.1123,2.0098,1.8936,1.8319,1.8036,0.0,0.0,0.0,0.0,1.6867,1.6077,0.0,0.0,0.0,0.0,0.0,0.0,0.0,0.0,0.0,0.0,0.0,0.0,2.1545,2.1695,2.2203,2.349,2.3595,2.3535,2.3381,2.3505,0.0,0.0,2.352,2.3684,2.3853,2.3426,2.3261,2.3441,2.3525,2.3097,2.2158,2.1061,2.0219,1.9618,1.9217,1.9025,1.9005,1.9005,1.8462,1.7613,0.0,0.0,0.0,0.0,0.0,0.0,0.0,0.0,0.0,0.0,0.0,0.0,0.0,0.0,0.0,0.0,0.0,0.0,0.0,0.0,0.0,0.0,0.0,0.0,0.0,0.0,0.0,0.0,0.0,0.0,0.0,0.0,0.0,0.0,0.0,0.0,0.0,1.813,1.8635,1.7803,1.8635,1.8948,0.0,0.0,0.0,0.0,0.0,0.0,2.1405,2.1193,2.1152,2.1386,2.1471,2.157,2.1678,2.202,2.2363,2.2654,2.2654,2.281,2.3091,2.3091,2.2947,2.2645,2.2537,2.2402,2.208,2.0459,1.9507,1.9058,1.8948,1.8417,1.7771,1.7971,1.7568,1.6935,0.0,0.0,0.0,0.0,0.0,0.0,0.0,0.0,0.0,0.0,0.0,2.0217,2.1545,2.1695,2.2203,2.349,2.3595,2.3366,2.2778,2.3276,2.3336,2.2763,2.3291,2.3898,2.4545,2.453,2.4825,2.5438,2.4162,2.349,2.349,2.2657,2.195,2.1373,2.1345,2.0464,1.8995,1.8995,1.8668,1.8192,1.8707,0.0,0.0,0.0,0.0,0.0,0.0,0.0,0.0,0.0,0.0,0.0,0.0,0.0,0.0,0.0,0.0,0.0,0.0,0.0,0.0,0.0,0.0,0.0,0.0,0.0,0.0,0.0,0.0,0.0,0.0,0.0,0.0,0.0,0.0,0.0,0.0,0.0,0.0,1.8637,2.003,0.0,0.0,0.0,0.0,2.0937,2.1487,2.1668,2.1243,2.1192,2.1563,2.2396,2.2422,2.2625,2.2994,2.3023,2.3042,2.3062,2.3062,2.3071,2.3091,2.3091,2.3081,2.3042,2.2664,2.2713,2.2925,2.1629,2.1326,2.1656,2.1227,2.0635,1.997,1.9484,1.8237,1.6693,0.0,0.0,0.0,0.0,0.0,0.0,0.0,0.0,1.9848,2.0288,2.0339,2.0857,2.2198,2.2343,2.2677,2.3535,2.3246,2.2927,2.2703,2.2897,2.3107,2.3276,2.3898,2.4571,2.5229,2.6093,2.645,2.6243,2.6032,2.5344,2.4154,2.3352,2.2634,2.202,2.202,2.168,2.1103,2.0765,2.0288,1.9786,1.9585,1.9296,0.0,0.0,0.0,0.0,0.0,0.0,0.0,0.0,0.0,0.0,0.0,0.0,0.0,0.0,0.0,0.0,0.0,0.0,0.0,0.0,0.0,0.0,0.0,0.0,0.0,0.0,0.0,0.0,0.0,0.0,0.0,0.0,0.0,0.0,0.0,0.0,0.0,1.9951,2.0928,0.0,2.0765,2.143,2.2019,2.2325,2.2836,2.3156,2.3262,2.3259,2.3396,2.3708,2.3718,2.3786,2.3932,2.3942,2.3942,2.3942,2.3942,2.3942,2.3932,2.3682,2.3555,2.3535,2.3084,2.2976,2.3081,2.2927,2.2351,2.1497,2.1327,2.0652,1.9626,1.8657,1.7921,1.7227,0.0,0.0,0.0,0.0,0.0,0.0,0.0,0.0,1.974,2.0589,2.0703,2.1206,2.2553,2.2703,2.2932,2.355,2.3231,2.2992,2.2992,2.3216,2.352,2.3913,2.5005,2.5812,2.627,2.76,2.8064,2.7602,2.7386,2.6624,2.5398,2.4309,2.3558,2.3135,2.3135,2.3135,2.3123,2.2759,2.1985,2.0955,2.0727,2.0652,2.0552,0.0,0.0,0.0,0.0,0.0,0.0,0.0,0.0,0.0,0.0,0.0,0.0,0.0,0.0,0.0,0.0,0.0,0.0,0.0,0.0,0.0,0.0,0.0,0.0,0.0,0.0,0.0,0.0,0.0,0.0,0.0,0.0,0.0,0.0,2.1338,2.1719,2.1299,2.2277,2.2734,2.2137,2.2754,2.3396,2.3952,2.4264,2.457,2.482,2.484,2.484,2.484,2.484,2.4771,2.4639,2.4639,2.456,2.4391,2.4391,2.4391,2.4381,2.4121,2.4004,2.3984,2.3669,2.3542,2.3527,2.3392,2.2679,2.173,2.2161,2.1585,2.0332,1.9129,1.8384,1.7783,0.0,0.0,0.0,0.0,0.0,0.0,0.0,1.8917,1.9357,2.0571,2.0772,2.1281,2.2628,2.2778,2.3032,2.361,2.3625,2.361,2.3625,2.4205,2.4559,2.4626,2.6536,2.7619,2.7652,2.8949,2.9623,2.9596,2.8024,2.722,2.7119,2.5573,2.4854,2.4854,2.4879,2.4879,2.4879,2.4879,2.3625,2.1708,2.2157,2.2345,2.2282,0.0,0.0,0.0,0.0,0.0,0.0,0.0,0.0,0.0,0.0,0.0,0.0,0.0,0.0,0.0,0.0,0.0,0.0,0.0,0.0,0.0,0.0,0.0,0.0,0.0,0.0,0.0,0.0,0.0,0.0,0.0,0.0,0.0,2.1944,2.2687,2.3069,2.2637,2.4095,2.4789,2.3955,2.4996,2.5737,2.5732,2.5732,2.5732,2.5732,2.5732,2.5732,2.5732,2.5732,2.5542,2.5151,2.5151,2.4912,2.4459,2.4469,2.4469,2.4459,2.444,2.443,2.443,2.4401,2.4368,2.4229,2.2961,2.2395,2.2481,2.3779,2.349,2.2194,2.0986,1.9659,1.8287,0.0,0.0,0.0,0.0,0.0,0.0,0.0,1.9306,2.0065,2.1267,2.2233,2.312,2.3988,2.4511,2.4866,2.5046,2.4163,2.3819,2.4291,2.3538,2.3653,2.4978,2.664,2.7934,2.881,2.9766,2.9973,2.9391,2.8788,2.7726,2.6243,2.6111,2.603,2.6042,2.6444,2.6603,2.6603,2.6603,2.6042,2.5028,2.3954,2.354,2.3477,0.0,0.0,0.0,0.0,0.0,0.0,0.0,0.0,0.0,0.0,0.0,0.0,0.0,0.0,0.0,0.0,0.0,0.0,0.0,0.0,0.0,0.0,0.0,0.0,0.0,0.0,0.0,0.0,0.0,0.0,0.0,2.2422,2.3154,2.282,2.3513,2.415,2.4369,2.5068,2.5562,2.5688,2.5996,2.6338,2.6615,2.6645,2.6645,2.6645,2.6645,2.6645,2.6645,2.6645,2.6576,2.6484,2.6484,2.6269,2.585,2.6162,2.6143,2.584,2.5493,2.5347,2.5318,2.4674,2.3849,2.2965,2.3132,2.247,2.1397,2.1472,2.1273,2.0794,1.9545,1.8287,1.7143,0.0,0.0,0.0,0.0,0.0,0.0,0.0,1.9282,2.0073,2.1507,2.2808,2.3864,2.453,2.4948,2.5184,2.5184,2.4732,2.4473,2.4543,2.424,2.4615,2.5891,2.7295,2.8374,2.9079,3.003,3.0203,2.9518,2.9281,2.8557,2.7364,2.7232,2.7173,2.7173,2.7512,2.765,2.765,2.765,2.7462,2.7085,2.6101,2.5573,2.531,2.4745,2.4653,2.4791,2.4327,2.4227,2.4189,2.3311,0.0,0.0,0.0,0.0,0.0,0.0,0.0,0.0,0.0,0.0,0.0,0.0,0.0,0.0,0.0,0.0,0.0,0.0,0.0,0.0,0.0,0.0,0.0,0.0,2.3939,2.4853,2.4752,2.5015,2.5469,2.6109,2.6543,2.6947,2.7402,2.7643,2.7848,2.8066,2.8086,2.8086,2.8086,2.8086,2.8086,2.8086,2.791,2.7725,2.7549,2.7383,2.707,2.665,2.6904,2.6894,2.6641,2.6362,2.5902,2.528,2.4781,2.3764,2.2421,2.219,2.1567,2.0828,0.0,0.0,0.0,0.0,1.7848,1.7222,0.0,0.0,0.0,0.0,0.0,0.0,0.0,1.9124,1.9915,2.1592,2.2933,2.3981,2.4638,2.4784,2.4776,2.4618,2.5202,2.5284,2.4581,2.5564,2.639,2.6911,2.8107,2.8826,2.8976,3.0041,3.0359,2.986,2.9556,2.9359,2.9236,2.8529,2.8197,2.8179,2.826,2.8298,2.8298,2.8222,2.8197,2.8197,2.8197,2.7871,2.7336,2.6864,2.6989,2.7261,2.6239,2.5607,2.518,2.4569,0.0,0.0,0.0,0.0,0.0,0.0,0.0,0.0,0.0,0.0,0.0,0.0,0.0,0.0,0.0,0.0,0.0,0.0,0.0,0.0,0.0,0.0,0.0,0.0,2.5498,2.6748,2.7168,2.6953,2.7037,2.7751,2.821,2.8584,2.8928,2.9373,2.9598,2.9598,2.9598,2.9598,2.9598,2.9598,0.0,0.0,0.0,2.874,2.8369,2.7976,2.7545,2.709,2.7113,2.7026,2.6814,2.6814,2.6013,2.4613,2.4569,2.3676,2.2164,2.0765,2.0266,2.05,2.1603,2.1186,1.9769,1.8516,1.8022,1.7955,0.0,0.0,0.0,0.0,0.0,0.0,0.0,1.9835,2.1027,2.2342,2.3667,2.4722,2.5347,2.5899,2.5794,2.4781,2.5108,2.5213,2.4849,2.5542,2.6143,2.6584,2.7855,2.9037,3.0055,3.0422,3.0511,3.0273,2.9689,2.9036,2.837,2.8623,2.8756,2.8769,2.9252,2.9465,2.944,2.8944,2.8756,2.8756,2.8756,2.8417,2.7934,2.7821,2.7846,2.7921,2.7695,2.7828,2.7966,2.6979,2.6578,2.6389,2.5871,2.5059,0.0,0.0,0.0,0.0,0.0,0.0,0.0,0.0,0.0,0.0,0.0,0.0,0.0,0.0,0.0,0.0,0.0,0.0,0.0,2.5684,2.7031,2.8066,2.8469,2.8779,2.8914,2.8701,2.9062,2.9383,2.9461,2.9549,2.9598,2.9598,2.9598,2.9598,2.9598,2.9598,2.9598,2.9598,2.9141,2.885,2.8772,2.8379,2.7985,2.7565,2.7881,0.0,2.5713,2.5713,2.4907,2.3494,2.3121,2.2154,2.0893,2.0796,2.0285,1.959,1.9348,1.9071,1.8775,1.8514,1.8229,1.8015,0.0,0.0,0.0,0.0,0.0,0.0,0.0,2.0193,2.1162,2.204,2.387,2.509,2.5053,2.5681,2.5598,2.4307,2.4271,2.4746,2.5829,2.6087,2.6526,2.7266,2.8201,2.9003,2.9632,3.0004,3.0022,2.9645,2.9626,2.938,2.8963,2.9227,2.9346,2.9358,2.9666,2.9792,2.9779,2.9478,2.9346,2.9346,2.9346,2.9202,2.895,2.895,2.895,2.895,2.895,2.8919,2.8831,2.8279,2.7921,2.7613,2.706,2.6507,2.5988,0.0,0.0,0.0,0.0,0.0,0.0,0.0,0.0,0.0,0.0,0.0,0.0,0.0,0.0,2.3541,2.4861,0.0,2.6396,2.748,2.8369,2.9082,2.9502,2.9746,2.9805,2.958,2.9756,2.9999,3.0234,3.0263,3.0263,3.0263,3.0263,3.0263,3.0263,3.0263,3.0263,3.0263,2.9795,2.956,2.956,2.8926,2.8506,2.8291,2.7702,2.6902,2.5945,2.5187,2.4017,2.2573,2.2209,2.1239,1.997,2.0097,1.9747,1.9132,1.8985,1.896,1.894,1.8764,1.8583,1.8456,0.0,0.0,0.0,0.0,0.0,0.0,0.0,2.0654,2.1369,2.1926,2.3954,2.5223,2.4947,2.5217,2.4934,2.3731,2.3312,2.416,2.6667,2.6714,2.7123,2.8204,2.8781,2.907,2.907,2.9553,2.9566,2.907,2.9566,2.9792,2.9792,2.9905,2.9955,2.9955,3.0055,3.0105,3.0105,3.0105,3.0105,3.0105,3.0105,3.0043,2.9955,2.9955,2.988,2.9792,2.9792,2.949,2.907,2.907,2.8781,2.8348,2.7927,2.7713,2.7419,2.6502,2.652,0.0,0.0,0.0,0.0,0.0,0.0,0.0,0.0,2.3627,2.3106,2.4312,2.488,2.5498,2.6562,2.7487,2.8318,2.9043,2.9541,2.997,3.0283,3.0332,3.0332,3.0332,3.0332,3.0478,3.0859,3.0889,3.0762,3.0421,3.0704,3.0762,3.0431,3.0704,3.0889,3.0889,3.0439,3.0195,3.0195,2.9434,2.8868,2.8528,2.7224,2.6289,2.5687,2.4436,2.3019,2.1569,2.1276,2.0508,1.9395,1.9395,1.9225,1.9038,1.9339,1.9481,1.9448,1.9118,1.8971,1.887,0.0,0.0,0.0,0.0,0.0,0.0,0.0,0.0,2.2715,2.3375,2.4234,2.5192,2.625,2.5433,2.4406,2.3431,2.2765,2.3589,2.6363,2.6949,2.7682,2.8769,2.939,2.9691,2.9691,2.9767,2.9767,2.9691,2.9767,2.9792,2.9804,3.0294,3.05,3.0525,3.1009,3.121,3.121,3.121,3.121,3.121,3.121,3.0934,3.05,3.05,3.0218,2.9792,2.9792,2.9754,2.9691,2.9691,2.9654,2.9591,2.9528,2.9145,2.8706,2.858,2.8229,2.7908,2.7846,2.778,2.7531,2.6773,2.6365,2.6257,0.0,2.6286,2.6163,2.7066,2.7578,2.79,2.8047,2.8806,2.954,2.998,3.0439,3.0762,3.081,3.081,3.081,3.081,3.081,3.083,3.0889,3.0889,3.0274,2.8792,3.005,3.0245,2.8753,3.0089,3.0889,3.0889,3.0439,3.0195,3.0195,2.9764,2.8774,2.7287,2.7116,2.5615,2.2942,2.2469,2.1445,2.0039,1.9748,1.9562,1.9395,1.9395,1.9381,1.9374,1.9639,1.9753,1.972,1.9455,1.9152,1.893,0.0,0.0,0.0,0.0,0.0,0.0,0.0,0.0,0.0,2.2966,2.3955,2.4501,2.4288,2.3168,2.252,2.2759,2.2773,2.3841,2.6336,2.7286,2.826,2.9377,2.9666,2.9792,2.9792,2.9792,2.9792,2.9792,2.9792,2.9955,3.0281,3.0487,3.0783,3.1072,3.1298,3.1574,3.1863,3.1863,3.1863,3.1863,3.1863,3.1549,3.1035,3.0733,3.045,3.0181,2.9509,2.9503,0.0,2.9383,2.9515,2.9792,2.9792,2.9402,2.8888,2.8888,2.8743,2.85,2.8186,2.847,2.8514,2.7119,2.7263,2.7623,2.7126,2.7266,2.7666,2.8271,2.915,2.9883,3.0127,3.0664,3.1172,3.1348,3.1534,3.1661,3.1661,3.1416,3.126,3.126,3.1035,3.0889,3.0889,3.1377,3.1178,2.9941,3.0711,3.0838,2.9912,3.0518,3.0889,3.0889,3.0703,3.0605,3.0605,3.0156,2.9136,2.7501,2.6516,2.4786,2.2476,2.1421,2.044,1.9568,1.9448,1.9395,1.9395,1.9395,1.9395,1.9428,1.9686,1.98,1.9806,1.9853,1.9686,1.9452,0.0,0.0,0.0,0.0,0.0,0.0,0.0,0.0,0.0,0.0,2.3595,2.3794,2.2518,2.1611,2.1365,2.2095,2.272,2.4064,2.6348,2.7494,2.8612,2.9741,2.9792,2.9792,2.9792,2.9792,2.9867,3.0018,3.0018,3.0294,3.0834,3.0964,3.1348,3.1884,3.2014,3.239,3.2884,3.2884,3.2884,3.2871,3.2721,3.2353,3.1796,3.1097,3.0645,3.0256,2.9258,2.9183,2.9465,2.8881,2.8969,2.9327,2.9327,2.9019,2.8718,2.8869,2.8799,2.8651,2.8498,2.8773,2.8825,2.7566,2.8202,2.8905,2.8065,2.8467,2.916,2.9707,3.0576,3.1338,3.1641,3.1953,3.2198,3.2198,3.2198,3.2159,3.2042,3.1719,3.1475,3.1357,3.1074,3.0889,3.0889,3.1553,3.1617,3.0648,3.1159,3.1169,3.0427,3.0703,3.0704,3.0245,3.0206,2.9991,2.956,2.9212,2.8219,2.6627,2.5417,2.3883,2.2056,2.078,2.0,1.9599,1.9461,1.9488,1.9599,1.9548,1.9562,1.9662,1.9927,2.004,2.008,2.0337,2.021,1.9907,0.0,0.0,0.0,0.0,0.0,0.0,0.0,0.0,0.0,0.0,0.0,0.0,0.0,2.1794,2.1695,2.1542,2.2483,2.4064,2.6348,2.7494,2.8612,2.9741,2.9792,2.9792,2.9792,2.9792,3.0055,3.0575,3.0575,3.0859,3.1386,3.1913,3.2466,3.3077,3.3583,3.4123,3.4628,3.4628,3.4628,3.4577,3.406,3.352,3.2927,3.1808,3.0721,2.9741,2.912,2.8919,2.8856,2.8304,2.8147,2.816,2.816,2.8147,2.8235,2.8756,2.8535,2.8318,2.9135,2.8899,2.846,2.8607,2.9263,2.9915,3.0058,3.0469,3.1055,3.1925,3.213,3.2159,3.2179,3.2189,3.2198,3.2198,3.2198,3.2052,3.1592,3.1523,3.1367,3.0957,3.0898,3.0889,3.0889,3.1289,3.104,2.9823,3.0827,3.0818,2.9246,3.0249,3.0147,2.8536,2.8486,2.7721,2.6158,2.612,2.5336,2.3745,2.3683,2.2781,2.1125,2.0494,2.019,2.0144,1.9642,1.9686,2.0157,1.9907,1.9953,2.0204,2.0535,2.0679,2.0712,2.0975,2.0715,2.015,0.0,0.0,0.0,0.0,0.0,0.0,0.0,0.0,0.0,0.0,0.0,0.0,0.0,0.0,0.0,0.0,2.2171,2.3512,2.5766,2.6959,2.8059,2.9157,2.9591,2.9792,2.9792,2.9792,2.988,3.0068,3.0432,3.0864,3.1432,3.2374,3.3102,3.3646,3.4198,3.4728,3.5219,3.5219,3.5219,3.5169,3.464,3.3897,3.2939,3.1436,3.0419,2.9628,0.0,2.7833,2.7758,2.7223,2.7273,2.762,2.7996,2.7858,2.7531,2.7364,2.7547,2.7976,2.8571,2.8862,2.9141,2.9797,3.0025,3.0282,3.0927,3.1162,3.1553,3.2412,3.2129,3.1826,3.2149,3.1964,3.1836,3.2149,3.2433,3.2529,3.2383,3.2129,3.1787,3.1357,3.1064,3.0996,3.1279,3.1435,3.1324,3.0929,3.0436,2.9941,2.94,2.8433,2.7665,2.7107,2.6899,2.656,2.6006,2.6006,2.52,2.3574,2.2284,2.1259,2.049,2.029,2.0097,1.9947,1.9947,2.0024,2.0197,2.0097,2.0117,2.023,2.0561,2.0706,2.0746,2.1002,2.0982,2.0742,0.0,0.0,0.0,0.0,0.0,0.0,0.0,0.0,0.0,0.0,0.0,0.0,0.0,0.0,0.0,0.0,0.0,2.3361,2.518,2.6176,2.718,2.8279,2.8699,2.9007,2.9189,2.9189,2.939,2.9792,3.0143,3.0683,3.1432,3.2361,3.309,3.3633,3.4173,3.4828,3.5483,3.5295,3.5207,3.5144,3.4414,3.347,3.2336,3.0871,2.9854,0.0,2.7537,2.6871,2.6645,2.6281,2.6407,2.6796,2.7361,2.7423,2.7219,2.6761,2.6983,2.754,2.8459,2.8928,2.9365,3.0252,3.0547,3.0859,3.1582,3.1865,3.2129,3.2676,3.2119,3.1601,3.1885,3.1445,3.1191,3.167,3.1934,3.2109,3.2109,3.1915,3.1611,3.1328,3.1055,3.0996,3.1269,3.0727,3.0504,3.0838,2.9996,2.9257,2.8656,2.7321,2.6255,2.5563,2.538,2.4958,2.4247,2.4247,2.3737,2.2678,2.144,2.0728,2.051,2.041,2.0347,2.0267,2.0217,2.0324,2.051,2.0434,2.0454,2.0537,2.0755,2.0828,2.0855,2.1042,2.1109,2.1042,0.0,0.0,0.0,0.0,0.0,0.0,0.0,0.0,0.0,0.0,0.0,0.0,0.0,0.0,0.0,0.0,0.0,0.0,2.4691,2.5272,2.608,2.7211,2.7286,2.7562,2.8097,2.8109,2.8624,2.9704,2.9729,3.0269,3.1286,3.1888,3.2466,3.304,3.3617,3.4414,3.5332,3.4841,3.4603,3.4477,3.342,3.2336,3.1205,3.0118,2.9038,2.7959,2.6889,2.616,2.5674,2.5665,2.5665,2.5778,2.635,2.6852,2.7186,2.6944,2.6806,2.7128,2.8829,2.9142,2.9189,3.0049,3.0898,3.1631,3.2101,3.2511,3.2754,3.2705,3.2021,3.1406,3.1328,3.0684,3.0293,3.0771,3.0918,3.0967,3.0986,3.0986,3.0976,3.0957,3.0957,3.0928,3.083,2.9379,2.8727,2.9381,2.931,2.8579,2.7108,2.6766,2.5794,2.3963,2.3862,2.298,2.1109,2.1109,2.1109,2.1109,2.1109,2.1102,2.1076,2.0815,2.0842,2.1056,2.0484,2.0564,2.1089,2.0846,2.0862,2.1109,2.1109,2.1109,2.1109,2.1109,2.1109,2.1069,0.0,0.0,0.0,0.0,0.0,0.0,0.0,0.0,0.0,0.0,0.0,0.0,0.0,0.0,0.0,0.0,0.0,0.0,2.4142,2.4704,2.5511,2.665,2.7102,2.7562,2.8097,2.8109,2.8247,2.8536,2.8932,2.927,2.9572,3.0959,3.1687,3.1884,3.2864,3.3467,3.3696,3.358,3.3244,3.2771,3.2102,3.1173,3.01,2.8963,2.836,2.7959,2.6889,2.6663,2.6809,2.6411,2.6463,2.6732,2.6894,2.6627,2.6301,2.6532,2.6993,2.7678,2.8708,2.9429,3.0088,3.0957,3.1348,3.1631,3.2101,3.2286,3.2179,3.1514,3.0674,2.9901,2.9238,2.9189,2.9492,3.0244,3.1231,3.1983,3.2266,3.2314,3.2187,3.1905,3.1876,3.1334,2.9993,2.9455,2.8251,2.5945,2.5705,2.5771,2.5896,2.4225,2.3005,2.2544,2.2071,2.1588,2.1109,2.1109,2.1109,2.1109,2.1109,2.0995,2.0826,2.0935,2.0922,2.0788,2.0855,2.0969,2.1102,2.1029,2.1042,2.1109,2.1109,2.1109,2.1109,2.1109,2.1109,2.1096,0.0,0.0,0.0,0.0,0.0,0.0,0.0,0.0,0.0,0.0,0.0,0.0,0.0,0.0,0.0,0.0,0.0,0.0,0.0,2.3888,2.4453,2.5351,2.569,2.6101,2.6636,2.6892,2.7005,2.7005,2.757,2.7846,2.7871,2.9057,2.9736,2.998,3.0871,3.1537,3.1989,3.1758,3.1469,0.0,0.0,2.9666,2.8643,2.7984,2.7595,2.7324,2.6713,2.6804,2.7225,2.7377,2.7395,2.731,2.6954,2.6831,2.6876,2.7209,2.7887,2.8718,2.9551,3.041,3.1211,3.168,3.1807,3.1719,3.1407,3.1494,3.1231,2.9794,2.9109,2.8552,2.7861,2.8086,2.8652,2.9492,3.0576,3.1523,3.2148,3.2236,3.2217,3.2208,3.1692,3.085,2.9617,2.8323,2.6761,2.4755,2.4632,2.4492,2.4163,2.3036,2.2285,2.2024,2.1663,2.137,2.1109,2.1109,2.1109,2.1109,2.1109,2.1022,2.0869,2.1036,2.1022,2.0875,2.1036,2.1109,2.1109,2.1109,2.1109,2.1109,2.1109,2.1109,2.1109,2.1109,2.1109,2.1109,0.0,0.0,0.0,0.0,0.0,0.0,0.0,0.0,0.0,0.0,0.0,0.0,0.0,0.0,0.0,0.0,0.0,0.0,0.0,0.0,2.3358,2.3966,2.4004,2.4255,2.4791,2.5259,2.546,2.5385,2.5904,2.6172,2.6185,2.6721,2.7243,2.7795,2.8329,2.9132,3.003,2.9553,2.9371,2.9334,2.8781,2.8034,2.7185,0.0,2.6952,2.6625,2.6763,2.7048,2.7494,2.8498,2.8344,2.763,2.698,2.739,2.8169,2.8456,2.9139,2.997,3.0849,3.1631,3.2208,3.2267,3.2237,3.1856,3.0498,3.0459,3.0136,2.7966,2.7526,2.737,2.6846,2.7207,2.7897,2.8769,2.9639,3.0566,3.1621,3.1719,3.1846,3.2316,3.113,3.0036,2.9382,2.6793,2.4999,2.4676,2.4643,2.3985,2.2546,2.2686,2.2566,2.1977,2.1964,2.1663,2.1116,2.1109,2.1109,2.1109,2.1109,2.1109,2.1109,2.1109,2.1109,2.1109,2.1109,2.1109,2.1109,2.1109,2.1109,2.1109,2.1109,2.1109,2.1109,2.1109,2.1109,2.1109,0.0,0.0,0.0,0.0,0.0,0.0,0.0,0.0,0.0,0.0,2.0175,2.0754,0.0,0.0,0.0,0.0,0.0,0.0,0.0,0.0,0.0,2.3966,2.4004,2.4255,2.4791,2.4892,2.4716,2.428,2.4381,2.4418,2.4459,2.498,2.5523,2.605,2.6645,2.704,2.7216,2.7115,2.7065,2.7065,2.6964,2.6801,2.6637,2.6637,0.0,0.0,2.8172,2.8525,2.8737,2.9744,2.9127,2.7984,2.8241,2.8507,2.8886,2.9646,3.0244,3.085,3.1739,3.2091,3.2286,3.2598,3.2452,3.1856,3.0498,3.0018,2.9217,2.7076,2.6636,2.6382,2.5581,2.6348,2.7519,2.8694,2.9639,3.0879,3.2781,3.2793,3.2734,3.3154,3.1718,3.0098,2.857,2.6614,2.4838,2.3351,2.3249,2.312,2.282,2.2599,2.2231,2.1683,2.1662,2.1495,2.1109,2.1109,2.1109,2.1109,2.1109,2.1109,2.1109,2.1109,2.1109,2.1109,2.1109,2.1109,2.1109,2.1109,2.1109,2.1109,2.1109,2.1109,2.1109,2.1109,2.1109,2.1109,0.0,0.0,0.0,0.0,0.0,0.0,0.0,1.9284,2.0012,2.0602,2.1181,2.1633,2.1895,2.2159,2.2521,0.0,0.0,0.0,0.0,0.0,0.0,0.0,0.0,0.0,2.3499,2.376,2.3662,2.3125,0.0,2.3386,2.311,2.3374,2.3637,2.3904,2.4196,2.4472,2.4745,2.5062,2.5201,2.5251,2.5804,2.603,2.6067,0.0,0.0,0.0,2.8518,2.8683,2.8523,2.9543,2.967,2.9464,2.9796,3.0292,3.0709,3.059,3.1025,3.168,3.2091,3.2521,3.2822,3.2803,3.2305,3.1309,2.9354,2.8545,2.7627,2.5478,2.5415,2.5522,2.4867,2.5801,2.6963,2.7767,2.8643,2.9961,3.2129,3.2256,3.2451,3.3289,3.1867,3.0125,2.8369,2.6547,2.4783,2.303,2.2893,2.2893,2.2893,2.2579,2.2218,2.1823,2.1662,2.1442,2.1109,2.1109,2.1109,2.1109,2.1109,2.1109,2.1109,2.1109,2.1109,2.1109,2.1109,2.1109,2.1109,2.1109,2.1109,2.1109,2.1109,2.1109,2.1109,2.1109,2.1109,2.1109,0.0,0.0,0.0,0.0,0.0,0.0,0.0,1.9459,2.025,2.152,2.2046,2.2332,2.2458,2.2583,2.2784,0.0,0.0,0.0,0.0,0.0,0.0,0.0,0.0,0.0,2.2307,0.0,0.0,2.2295,2.2719,0.0,0.0,0.0,0.0,0.0,2.2295,2.247,2.2794,2.3401,2.3703,0.0,0.0,2.5498,2.5674,0.0,0.0,0.0,0.0,2.8639,2.8467,2.9478,3.0368,3.0985,3.0845,3.1502,3.2131,3.0968,3.1377,3.2218,3.2306,3.2851,3.3289,3.29,3.2148,3.084,2.8279,2.7256,2.6289,2.4219,2.4349,2.4711,2.4346,2.5205,2.6162,2.6777,2.7519,2.8809,3.1064,3.1465,3.1802,3.2623,3.1249,2.954,2.7801,2.6013,2.4358,2.2996,2.2893,2.2893,2.2893,2.2639,2.2378,2.2084,2.189,2.1602,2.1209,2.1203,2.1169,2.1109,2.1109,2.1109,2.1109,2.1109,2.1109,2.1109,2.1109,2.1109,2.1109,2.1109,2.1109,2.1109,2.1109,2.1109,2.1109,2.1109,2.1109,2.1109,0.0,0.0,0.0,0.0,0.0,0.0,0.0,1.9459,2.0388,2.2006,2.227,2.2483,2.297,2.3512,2.3637,0.0,0.0,0.0,0.0,0.0,0.0,0.0,0.0,0.0,0.0,0.0,0.0,2.2295,2.2345,0.0,0.0,0.0,0.0,0.0,0.0,2.2071,2.1681,2.2234,0.0,0.0,0.0,0.0,0.0,0.0,0.0,0.0,0.0,2.9213,2.9786,3.086,3.1589,3.1835,3.0511,3.1079,3.1885,3.0224,3.0898,3.2286,3.2637,3.3076,3.3289,3.29,3.2148,3.084,2.8279,2.7057,2.5947,2.416,2.3857,2.3919,2.3857,2.4258,2.5,2.624,2.6836,2.8027,3.0586,3.1279,3.1244,3.0568,2.9267,2.7735,2.5912,2.4162,2.3065,2.2893,2.2893,2.2893,2.2893,2.2873,2.2686,2.2358,2.2352,2.2071,2.1549,2.1542,2.1408,2.1109,2.1109,2.1109,2.1109,2.1109,2.1109,2.1109,2.1109,2.1109,2.1109,2.1109,2.1109,2.1109,2.1109,2.1109,2.1109,2.1109,2.1109,2.1109,0.0,0.0,0.0,0.0,0.0,0.0,1.9054,1.9761,2.0929,2.2571,2.2508,2.2633,2.3537,2.3866,2.3766,2.3158,0.0,0.0,0.0,0.0,0.0,0.0,0.0,0.0,0.0,0.0,2.2295,2.2295,2.2295,0.0,0.0,0.0,0.0,0.0,0.0,2.1218,2.1056,2.1595,0.0,0.0,0.0,0.0,0.0,0.0,0.0,0.0,0.0,0.0,2.9867,3.0281,3.0997,3.1394,2.9468,2.9801,3.0634,2.9522,3.0039,3.1133,3.1836,3.2529,3.2881,3.2197,3.1182,2.9805,2.7744,2.6431,2.5268,2.4043,2.3789,2.3867,2.4121,2.4092,2.4385,2.5444,2.5508,2.6269,2.865,2.9307,2.9527,2.9433,2.9166,2.8064,2.574,2.4885,2.4026,2.2996,2.2893,2.2893,2.2893,2.2893,2.276,2.2398,2.2385,2.2138,2.1628,2.1582,2.1435,2.1109,2.1109,2.1109,2.1109,2.1109,2.1109,2.1109,2.1109,2.1109,2.1109,2.1109,2.1109,2.1109,2.1109,2.1109,2.1109,2.1109,2.1109,2.1109,0.0,0.0,0.0,0.0,0.0,1.9414,1.9054,1.9811,2.1017,2.2644,2.2533,2.2671,2.3625,2.3891,2.3766,2.3158,2.365,0.0,0.0,0.0,0.0,0.0,0.0,0.0,0.0,0.0,2.2383,2.2546,2.2546,2.2546,0.0,0.0,2.2058,2.1168,0.0,0.0,0.0,0.0,0.0,0.0,0.0,0.0,0.0,0.0,0.0,0.0,0.0,0.0,0.0,0.0,0.0,3.0611,2.8695,2.8503,2.89,2.8554,2.9199,3.0176,3.0928,3.1855,3.2432,3.1699,3.0439,2.8965,2.7373,2.5908,2.4662,2.3769,2.3701,2.3887,2.418,2.4092,2.4219,2.4975,2.4922,2.5478,2.7428,2.8161,2.8504,2.851,2.8486,2.7569,2.5324,2.4876,2.4452,2.3727,2.3195,2.3133,2.3624,2.3195,2.28,2.2559,2.2545,2.2311,2.1843,2.1843,2.1649,2.1236,2.1236,2.1196,2.1109,2.1109,2.1109,2.1109,2.1109,2.1109,2.1109,2.1109,2.1109,2.1109,2.1109,2.1109,2.1109,2.1109,2.1109,2.1109,0.0,0.0,0.0,0.0,0.0,0.0,1.8991,1.9459,2.0413,2.2081,2.2295,2.2508,2.3058,2.3637,2.3766,2.3158,2.365,0.0,0.0,0.0,0.0,0.0,0.0,0.0,0.0,0.0,2.2571,2.3095,2.3095,2.3095,2.3095,2.3095,2.2794,2.2282,0.0,0.0,0.0,0.0,0.0,0.0,0.0,0.0,0.0,0.0,0.0,0.0,0.0,0.0,0.0,0.0,0.0,0.0,0.0,2.7383,2.6646,2.7249,2.847,2.9696,3.0098,3.1201,3.2101,3.1631,3.0186,2.8567,2.7279,2.5674,2.4157,2.3276,2.3486,2.3789,2.3821,2.4131,2.4551,2.5024,2.5439,2.6157,2.7506,2.8389,2.8582,2.773,2.6679,2.5572,2.4324,2.344,2.3624,2.5349,2.3856,2.3659,2.5383,2.3829,2.2893,2.2893,2.2893,2.2712,2.2378,2.2378,2.2118,2.1582,2.1582,2.1428,2.1109,2.1109,2.1109,2.1109,2.1109,2.1109,2.1109,2.1109,2.1109,2.1109,2.1109,2.1109,2.1109,2.1109,2.1109,2.1109,0.0,0.0,0.0,0.0,0.0,0.0,0.0,1.9139,1.9723,2.1042,2.1532,2.1958,2.2495,2.306,2.3308,2.312,2.365,0.0,0.0,0.0,0.0,0.0,0.0,0.0,0.0,0.0,2.2932,2.3108,2.3108,2.3308,2.3715,2.3283,2.3007,2.2832,2.2458,2.1865,0.0,0.0,0.0,0.0,0.0,0.0,2.6512,0.0,0.0,0.0,0.0,0.0,0.0,0.0,0.0,0.0,0.0,0.0,0.0,2.7269,2.7303,2.7516,2.791,2.875,2.9373,2.8623,2.7562,2.6537,2.5874,2.4805,2.3828,2.3208,2.3464,2.3877,2.417,2.4092,2.4424,2.5776,2.561,2.5732,2.7041,2.7156,2.7238,2.7566,2.6458,2.5522,2.5122,2.3744,2.3624,2.5383,2.3897,2.3126,2.3693,2.3195,2.2893,2.2893,2.2893,2.2753,2.2385,2.2385,2.2225,2.1877,2.1683,2.1535,2.1435,2.1203,2.1109,2.1109,2.1109,2.1109,2.1109,2.1109,2.1109,2.1109,2.1109,2.1109,2.1109,2.1109,2.1109,2.1109,0.0,0.0,0.0,0.0,0.0,0.0,0.0,1.9028,1.9334,2.0238,2.0841,2.1482,2.2219,2.2608,2.2882,2.3083,2.3449,0.0,0.0,0.0,0.0,0.0,0.0,0.0,0.0,2.3108,2.3108,2.3108,2.3108,2.3411,2.3991,2.3612,2.335,2.3171,2.284,2.2178,0.0,0.0,0.0,0.0,0.0,0.0,2.6499,0.0,0.0,0.0,0.0,0.0,0.0,0.0,0.0,0.0,0.0,0.0,0.0,0.0,2.6774,2.6652,2.6542,2.7158,2.7685,2.7148,2.624,2.541,2.5151,2.43,2.3445,2.3171,2.3591,2.4062,2.416,2.4228,2.4652,2.5737,2.5566,2.5771,2.708,2.6707,2.6206,2.6011,2.6016,2.554,2.4295,2.3986,2.406,2.4486,2.3495,2.2893,2.2893,2.2893,2.2893,2.2893,2.2893,2.2806,2.2585,2.2585,2.2385,2.2017,2.1836,2.1629,2.1408,2.1196,2.1109,2.1109,2.1109,2.1109,0.0,2.1109,2.1109,2.1109,2.1109,2.1109,2.1109,2.1109,2.1109,2.1109,0.0,0.0,0.0,0.0,0.0,0.0,0.0,1.8987,1.9133,1.966,2.0301,2.1094,2.2119,2.227,2.2521,2.3058,0.0,0.0,0.0,0.0,0.0,0.0,0.0,0.0,2.3083,2.3108,2.3108,2.3108,2.3108,2.3411,2.4004,2.3916,2.3661,2.3294,2.3223,2.2733,0.0,0.0,0.0,0.0,0.0,0.0,0.0,0.0,0.0,0.0,0.0,0.0,0.0,0.0,0.0,0.0,0.0,0.0,0.0,0.0,0.0,0.0,0.0,2.63,2.6843,2.6748,2.583,2.4955,2.4955,2.3981,0.0,2.3091,2.3776,2.4235,2.3896,2.4505,2.5072,2.517,2.5508,2.6196,2.7516,2.7084,2.5852,2.3792,2.5597,2.5775,2.2661,2.4154,2.4689,2.3195,2.2962,2.2893,2.2893,2.2893,2.2893,2.2893,2.2893,2.2893,2.2893,2.2893,2.2612,2.2017,2.1997,2.169,2.1136,2.1122,2.1109,2.1109,2.1109,2.1109,2.1109,2.1109,2.1109,2.1109,2.1109,2.1109,2.1109,2.1109,2.1109,2.1109,0.0,0.0,0.0,0.0,0.0,0.0,0.0,0.0,0.0,0.0,2.0075,2.0955,2.162,2.2058,2.2521,0.0,0.0,0.0,0.0,0.0,0.0,0.0,0.0,0.0,2.3095,2.3108,2.3108,2.3108,2.3108,2.3411,2.3979,2.3113,2.2908,2.3259,2.2434,2.2237,0.0,0.0,0.0,0.0,0.0,0.0,0.0,0.0,0.0,0.0,2.7148,2.7462,0.0,0.0,0.0,0.0,0.0,0.0,0.0,0.0,2.7147,2.7635,2.6579,0.0,2.55,2.4303,2.3796,2.3571,0.0,2.3337,2.3091,2.3091,2.3542,2.4004,2.4228,2.4434,2.4902,2.5942,2.6162,2.6572,2.7555,2.8916,2.8876,2.6336,2.7157,2.7344,2.5904,2.4387,2.389,2.4817,2.3659,2.2893,2.2893,2.2893,2.2893,2.2893,2.2893,2.2893,2.2893,2.2893,2.2713,2.2311,2.2091,2.183,2.1475,2.1216,2.1109,2.1109,2.1109,2.1109,2.1109,2.1109,2.1109,2.1109,2.1109,2.1109,2.1109,2.1109,2.1109,2.1109,0.0,0.0,0.0,0.0,0.0,0.0,0.0,0.0,0.0,0.0,0.0,0.0,0.0,0.0,0.0,0.0,0.0,0.0,0.0,0.0,0.0,0.0,0.0,2.2558,2.3095,2.2747,2.2732,2.3108,2.2732,2.3047,2.3991,2.3612,2.355,2.3683,2.287,2.3121,0.0,0.0,0.0,0.0,2.5884,0.0,0.0,0.0,0.0,0.0,2.6839,2.7085,0.0,2.7349,2.7195,2.6973,0.0,0.0,0.0,0.0,2.8028,2.853,2.6924,2.5836,2.4919,2.4088,2.3495,2.3091,2.3091,2.3091,2.3091,2.3091,2.3464,2.3857,2.4082,2.4287,2.4762,2.5908,2.5786,2.5568,2.5501,2.7133,2.7728,2.6033,2.6269,2.6482,2.6296,2.4948,2.4155,2.429,2.3427,2.2893,2.2893,2.2893,2.2893,2.2893,2.2893,2.2893,2.2893,2.2893,2.2679,2.2218,2.2064,2.1764,2.1375,2.1182,2.1109,2.1109,2.1109,2.1109,2.1109,2.1109,2.1109,2.1109,2.1109,2.1109,2.1109,2.1109,2.1109,2.1109,0.0,0.0,0.0,0.0,0.0,0.0,0.0,0.0,0.0,0.0,0.0,0.0,0.0,0.0,0.0,0.0,0.0,0.0,0.0,0.0,0.0,0.0,0.0,2.2631,2.3095,2.2307,2.2279,2.3108,2.2279,2.258,2.3879,2.4327,2.4366,2.4051,2.3838,2.4512,0.0,0.0,0.0,0.0,2.5904,0.0,0.0,0.0,0.0,0.0,0.0,0.0,0.0,2.665,2.6489,2.6426,2.6387,0.0,0.0,0.0,0.0,0.0,2.7238,2.5852,2.4839,2.4595,2.3822,2.3091,2.3091,2.3091,2.3091,2.3091,2.3415,2.375,2.3968,2.4277,2.4801,2.5757,2.5305,2.4715,2.4278,2.497,2.5515,2.5348,2.5001,2.4892,2.5249,2.5189,2.4486,2.2996,2.2893,2.2893,2.2893,2.2893,2.2893,2.2893,2.2893,2.2893,2.2893,2.2853,2.2559,2.1984,2.1977,2.1637,2.1109,2.1109,2.1109,2.1109,2.1109,2.1109,2.1109,2.1109,2.1109,2.1109,2.1109,2.1109,2.1109,2.1109,2.1109,2.1109,0.0,0.0,0.0,0.0,0.0,0.0,0.0,0.0,0.0,0.0,0.0,0.0,0.0,0.0,0.0,0.0,0.0,0.0,0.0,0.0,0.0,2.2079,2.2661,2.302,2.3108,2.2307,2.2279,2.3108,2.2279,2.2359,2.3246,2.3321,2.3399,2.3477,2.4372,2.5152,2.5851,0.0,0.0,0.0,2.7226,0.0,0.0,0.0,0.0,0.0,0.0,0.0,0.0,2.6524,2.6173,2.5755,2.5737,0.0,0.0,0.0,0.0,0.0,2.7817,2.6617,2.4976,2.3694,2.3222,2.3091,2.3091,2.3091,2.3091,2.3091,2.3171,2.3552,2.4691,2.4945,2.5395,2.6596,2.6363,2.7022,2.9777,2.814,2.7183,2.8598,2.6736,2.5122,2.4472,2.3716,2.3195,2.2928,2.2893,2.2893,2.2893,2.2893,2.2893,2.2893,2.2893,2.2893,2.2893,2.2612,2.2318,2.2017,2.177,2.1475,2.1109,2.1109,2.1109,2.1109,2.1109,2.1109,2.1109,2.1109,2.1109,2.1109,2.1109,2.1109,2.1109,2.1109,2.1109,2.1109,0.0,0.0,0.0,0.0,0.0,0.0,0.0,0.0,0.0,0.0,0.0,0.0,0.0,0.0,0.0,0.0,0.0,0.0,0.0,0.0,2.1926,2.1234,2.1752,2.2198,2.2457,2.1632,2.1819,2.3108,2.1974,2.1989,2.3105,2.3735,2.4378,2.5051,2.5583,2.6115,2.6642,2.7108,0.0,0.0,0.0,0.0,0.0,0.0,0.0,0.0,0.0,0.0,0.0,0.0,2.5945,2.5427,2.6269,0.0,0.0,0.0,0.0,0.0,2.6071,2.5545,2.481,2.3754,2.3486,2.3406,2.3171,2.3091,2.3159,2.3415,2.3486,2.3887,2.5185,2.5625,2.6166,2.7246,2.644,2.6092,2.7381,2.6047,2.5423,2.6708,2.493,2.394,2.483,2.3695,2.2893,2.2893,2.2893,2.2827,2.2632,2.2806,2.282,2.2632,2.2813,2.2893,2.2893,2.2565,2.2271,2.1984,2.1883,2.155,2.1109,2.1109,2.1109,2.1109,2.1109,2.1109,2.1109,2.1109,2.1109,2.1109,2.1109,2.1109,2.1109,2.1109,2.1109,2.1109,0.0,0.0,0.0,0.0,0.0,0.0,0.0,0.0,0.0,0.0,0.0,0.0,0.0,0.0,0.0,0.0,0.0,0.0,0.0,0.0,2.1714,2.0645,2.0787,2.1215,2.1889,2.0907,2.1214,2.2907,2.1496,2.1611,2.3118,2.4277,2.5335,2.6298,2.6436,2.6801,2.7311,2.7437,2.7795,0.0,0.0,0.0,0.0,0.0,0.0,0.0,0.0,0.0,0.0,0.0,0.0,0.0,0.0,0.0,0.0,2.5751,2.5588,2.4952,2.4361,2.4305,2.4303,2.3767,2.3633,2.3633,2.3571,2.3493,2.3571,2.4141,2.4248,2.458,2.5659,2.6406,2.7036,2.765,2.6758,2.5891,2.5652,2.4943,2.4711,2.5352,2.3901,2.338,2.4774,2.3693,2.2867,2.28,2.2793,2.2632,2.2331,2.2566,2.2552,2.2325,2.2572,2.2726,2.2793,2.2465,2.2205,2.1984,2.195,2.161,2.1109,2.1109,2.1109,2.1109,2.1109,2.1109,2.1109,2.1109,2.1109,2.1109,2.1109,2.1109,2.1109,2.1109,2.1109,2.1109,0.0,0.0,0.0,0.0,0.0,0.0,0.0,0.0,0.0,0.0,0.0,0.0,0.0,0.0,0.0,0.0,0.0,0.0,0.0,0.0,2.1095,2.0629,2.0206,2.0588,2.1874,2.0506,2.0621,2.2357,2.0952,2.1221,2.3118,2.4277,2.5105,2.5686,2.6248,2.6801,2.7336,2.7821,2.8342,2.8838,0.0,0.0,0.0,0.0,0.0,0.0,0.0,0.0,0.0,0.0,0.0,0.0,0.0,0.0,2.489,2.4558,2.373,2.3112,2.3966,2.3766,2.3295,2.3184,2.314,2.3464,2.4691,2.4619,2.4547,2.5396,2.5547,2.5718,2.625,2.7334,2.8042,2.7662,2.8185,2.8896,2.9649,2.8651,2.7867,2.7917,2.6336,2.4672,2.3229,2.2962,2.278,2.2472,2.2452,2.2325,2.2031,2.2038,2.2038,2.2017,2.2038,2.2178,2.2411,2.2164,2.2004,2.2017,2.1743,2.1448,2.1109,2.1109,2.1109,2.1109,2.1109,2.1109,2.1109,2.1109,2.1109,2.1109,2.1109,2.1109,2.1109,2.1109,2.1109,2.1109,0.0,0.0,0.0,0.0,0.0,0.0,0.0,0.0,0.0,0.0,0.0,0.0,0.0,0.0,0.0,0.0,0.0,0.0,0.0,2.1305,2.1029,2.0629,2.0139,2.0538,2.1874,2.0992,2.0932,2.1794,2.1593,2.205,2.3118,2.4277,2.5285,2.6172,2.6399,2.6411,2.6289,2.7223,2.7537,2.7474,2.8134,0.0,0.0,0.0,0.0,0.0,0.0,0.0,0.0,0.0,2.5564,2.5388,2.4391,2.3635,2.3106,2.2918,2.2347,2.191,2.2583,2.2979,2.3245,2.3477,2.3545,2.3809,2.4857,2.4965,2.5146,2.6274,2.6748,2.7148,2.7842,2.7732,2.8005,2.9418,2.8605,2.8348,2.9955,2.9047,2.8205,2.8205,2.6606,2.5248,2.4588,2.335,2.2539,2.2425,2.2251,2.2024,2.177,2.1923,2.1937,2.1756,2.1923,2.2038,2.2151,2.2038,2.193,2.1749,2.1642,2.1428,2.1109,2.1109,2.1109,2.1109,2.1109,2.1109,2.1109,2.1109,2.1109,2.1109,2.1109,2.1109,2.1109,2.1109,2.1109,2.1109,0.0,0.0,0.0,0.0,0.0,0.0,0.0,0.0,0.0,0.0,0.0,0.0,0.0,0.0,0.0,0.0,0.0,0.0,2.116,2.1279,2.1263,2.1028,2.082,2.1005,2.1609,2.1314,2.1274,2.1507,2.187,2.232,2.2882,2.4189,2.5134,2.5732,2.6072,2.5979,2.5649,2.6633,2.6939,2.6839,2.7733,2.7883,0.0,0.0,0.0,0.0,0.0,0.0,0.0,0.0,2.4987,2.4761,2.3441,2.2553,2.1933,2.164,2.1389,2.1308,2.1768,2.2433,2.3117,2.3652,2.3896,2.4316,2.562,2.5708,2.5913,2.7324,2.7744,2.8151,2.8975,2.8445,2.8404,3.0009,2.9376,2.9064,3.0045,2.9779,2.9075,2.8113,2.688,2.5727,2.4631,2.3226,2.2345,2.2158,2.1997,2.1756,2.1462,2.1636,2.1617,2.1455,2.161,2.1783,2.1883,2.1757,2.1689,2.1582,2.1489,2.1303,2.1109,2.1109,2.1109,2.1109,2.1109,2.1109,2.1109,2.1109,2.1109,2.1109,2.1109,2.1109,2.1109,2.1109,2.1109,2.1109,0.0,0.0,0.0,0.0,0.0,0.0,0.0,0.0,0.0,0.0,0.0,0.0,0.0,0.0,0.0,0.0,0.0,0.0,2.1469,2.1614,2.176,2.1896,2.2273,2.2029,2.1033,2.1332,2.1507,2.1495,2.1507,2.1782,2.2332,2.4014,2.4503,2.4054,2.5121,2.5586,2.5624,2.6235,2.6801,2.7324,2.7858,2.8084,2.8034,0.0,0.0,0.0,0.0,0.0,0.0,0.0,2.4987,2.4654,2.2627,2.1989,2.1811,2.0886,2.0879,2.1308,2.1768,2.2197,2.2703,2.3584,2.4111,2.5,2.7203,2.7037,2.6885,2.8584,2.8594,2.8591,2.9452,2.9608,2.9469,2.8995,3.0768,3.1735,3.0383,3.1368,3.1048,2.79,2.7522,2.6157,2.274,2.2412,2.2171,2.1629,2.1614,2.1455,2.1122,2.1109,2.1109,2.1109,2.1109,2.1249,2.1575,2.1256,2.1256,2.1575,2.1249,2.1109,2.1109,2.1109,2.1109,2.1109,2.1109,2.1109,2.1109,2.1109,2.1109,2.1109,2.1109,2.1109,2.1109,2.1109,2.1109,2.1109,0.0,0.0,0.0,0.0,0.0,0.0,0.0,0.0,0.0,0.0,0.0,0.0,0.0,0.0,0.0,0.0,0.0,0.0,2.1495,2.1308,2.1488,2.2152,2.2108,2.2209,2.247,2.2189,2.1681,2.0943,2.1319,2.197,2.2882,2.38,2.434,2.4578,2.4892,2.4829,2.4506,2.5071,2.541,2.5598,2.6126,2.6608,2.6964,0.0,0.0,0.0,0.0,0.0,0.0,0.0,0.0,0.0,2.2627,2.222,2.2226,2.0975,2.0879,2.1308,2.1768,2.2197,2.2793,2.3923,2.4771,2.5728,2.734,2.7497,2.779,2.9473,2.9482,2.9383,2.9912,3.0283,3.0364,2.9881,3.1167,3.1948,3.1229,3.1738,3.1415,2.9283,2.7978,2.6352,2.4166,2.2664,2.177,2.1602,2.1395,2.1203,2.1116,2.1109,2.1109,2.1109,2.1109,2.1149,2.1236,2.1156,2.1156,2.1236,2.1149,2.1109,2.1109,2.1109,2.1109,2.1109,2.1109,2.1109,2.1109,2.1109,2.1109,2.1109,2.1109,2.1109,2.1109,2.1109,2.1109,2.1109,0.0,0.0,0.0,0.0,0.0,0.0,0.0,0.0,0.0,0.0,0.0,0.0,0.0,0.0,0.0,0.0,0.0,0.0,0.0,2.119,2.1525,2.2268,2.2346,2.25,2.2782,2.2669,2.2209,2.1331,2.1656,2.2257,2.3108,2.3712,2.4039,2.4123,2.4123,2.4076,2.4004,2.4089,2.4515,2.5143,2.5473,2.5954,2.6499,0.0,0.0,0.0,0.0,0.0,0.0,0.0,0.0,0.0,2.3088,2.252,2.2333,2.1883,2.162,2.1571,2.2021,2.2568,2.333,2.4596,2.5571,2.6606,2.8112,2.8582,2.9041,3.0225,3.0155,2.9979,3.0391,3.0703,3.0859,3.0742,3.1387,3.1816,3.1553,3.1024,3.0104,2.8579,2.6891,2.5238,2.3555,2.2316,2.1535,2.1422,2.1209,2.1109,2.1109,2.1109,2.1109,2.1109,2.1109,2.1109,2.1109,2.1109,2.1109,2.1109,2.1109,2.1109,2.1109,2.1109,2.1109,2.1109,2.1109,2.1109,2.1109,2.1109,2.1109,2.1109,2.1109,2.1109,2.1109,2.1109,2.1109,2.1109,0.0,0.0,0.0,0.0,0.0,0.0,0.0,0.0,0.0,0.0,0.0,0.0,0.0,0.0,0.0,0.0,0.0,0.0,0.0,0.0,2.1721,2.2221,2.2832,2.2985,2.2533,2.2957,2.2932,2.2445,2.2345,2.2571,2.3108,2.365,2.3625,2.3108,2.3058,2.3361,2.3879,2.3286,2.3976,2.5448,2.5448,2.5816,2.6348,2.6348,0.0,0.0,0.0,0.0,0.0,0.0,0.0,0.0,2.3985,2.3043,2.245,2.3142,2.2676,2.2041,2.25,2.3203,2.4131,2.5532,2.6586,2.7725,2.9354,2.999,3.0371,3.0752,3.0527,3.0391,3.081,3.0918,3.1064,3.1406,3.1335,3.1315,3.1435,2.9576,2.7724,2.6515,2.4929,2.3325,2.1703,2.1542,2.1435,2.1129,2.1109,2.1109,2.1109,2.1109,2.1109,2.1109,2.1082,2.1082,2.1109,2.1082,2.1082,2.1109,2.1109,2.1109,2.1109,2.1109,2.1109,2.1109,2.1109,2.1109,2.1109,2.1109,2.1109,2.1109,2.1109,2.1109,2.1109,2.1109,2.1109,2.1109,0.0,0.0,0.0,0.0,0.0,0.0,0.0,0.0,0.0,0.0,0.0,0.0,0.0,0.0,0.0,0.0,0.0,0.0,0.0,0.0,2.1557,2.167,2.305,2.3938,2.4264,2.3951,2.3753,2.364,2.2734,2.2571,2.3108,2.3233,2.3221,2.3083,2.2671,2.2784,2.3258,2.2709,2.3201,2.4343,2.4343,2.4669,2.5172,2.5172,2.5498,0.0,0.0,0.0,0.0,0.0,0.0,0.0,2.5255,2.4752,2.4494,2.2737,2.2287,2.2549,2.331,2.3652,2.4369,2.6695,2.8389,2.9707,3.0439,3.0674,3.0664,3.04,3.0557,3.0771,3.0869,3.1162,3.1309,3.1064,3.0241,2.9936,3.0888,2.8412,2.6404,2.6114,2.468,2.3029,2.1361,2.1203,2.1182,2.1116,2.1109,2.1109,2.1109,2.1109,2.1109,2.1109,2.0889,2.0882,2.1109,2.0882,2.0882,2.1109,2.1109,2.1109,2.1109,2.1109,2.1109,2.1109,2.1109,2.1109,2.1109,2.1109,2.1109,2.1109,2.1109,2.1109,2.1109,2.1109,2.1109,2.1109,0.0,0.0,0.0,0.0,0.0,0.0,0.0,0.0,0.0,0.0,0.0,0.0,0.0,0.0,0.0,0.0,0.0,0.0,0.0,0.0,2.1732,2.2232,2.3389,2.4004,2.3985,2.4004,2.3866,2.3574,2.2972,2.2832,2.3108,2.3108,2.3108,2.3083,2.2546,2.2608,2.3055,2.2533,2.2962,2.4004,2.4004,2.4315,2.4804,2.4804,2.513,2.5636,2.5929,0.0,0.0,0.0,0.0,0.0,0.0,0.0,2.5061,2.3691,2.2915,2.2695,2.3555,2.4092,2.5004,2.7389,2.8963,2.9989,3.0234,3.0292,3.0214,2.9941,2.9786,2.9471,2.8703,2.9363,2.9961,2.9745,2.9184,2.8991,2.9618,2.6901,2.4832,2.4832,2.3411,2.2066,2.1166,2.1109,2.1109,2.1109,2.1109,2.1109,2.1109,2.0975,2.0902,2.0902,2.0621,2.0535,2.0657,2.0681,2.0786,2.0902,2.1042,2.1109,2.1109,2.1109,2.1109,2.1109,2.1109,2.1109,2.1109,2.1109,2.1029,2.0915,2.1056,2.1022,2.0915,2.1056,2.1109,2.1109,0.0,0.0,0.0,0.0,0.0,0.0,0.0,0.0,0.0,0.0,0.0,0.0,0.0,0.0,0.0,0.0,0.0,0.0,0.0,0.0,0.0,2.3195,2.3725,2.3816,2.3396,2.3687,2.365,2.3258,2.2972,2.292,2.3108,2.3108,2.3108,2.3083,2.2546,2.2608,2.3055,2.2533,2.2897,2.3838,2.3838,2.4101,2.4515,2.4515,2.4842,2.5402,2.5896,2.6185,2.6361,2.6451,0.0,0.0,0.0,0.0,2.4821,2.4588,2.3613,2.2781,2.3662,2.4662,2.5874,2.7715,2.8855,2.95,2.9579,2.9598,2.9514,2.9225,2.8646,2.7813,2.6541,2.7137,2.7861,2.7964,2.769,2.7612,2.7952,2.5208,2.3387,2.3962,2.2553,2.1632,2.1902,2.1695,2.1538,2.1538,2.1213,2.1036,2.1036,2.0762,2.0601,2.0601,2.0314,2.015,2.0204,2.0428,2.0585,2.0632,2.0842,2.0982,2.1036,2.1036,2.1062,2.1109,2.1109,2.1109,2.1109,2.1056,2.0895,2.0726,2.0882,2.0842,2.0739,2.0949,2.1069,2.1109,0.0,0.0,0.0,0.0,0.0,0.0,0.0,0.0,0.0,0.0,0.0,0.0,0.0,0.0,0.0,0.0,0.0,0.0,1.9811,0.0,0.0,2.3816,2.3954,2.4192,2.455,2.3684,2.3436,2.3891,2.2422,2.2182,2.3108,2.3108,2.3108,2.3083,2.2546,2.2608,2.3055,2.2533,2.2659,2.3221,2.3221,2.3258,2.3333,2.3333,2.37,2.4217,2.4305,2.4921,2.5795,2.6314,2.6287,0.0,0.0,0.0,2.4188,2.3531,2.3183,2.3198,2.4079,2.5518,2.6914,2.7614,2.8389,2.9101,2.951,2.9598,2.9187,2.7738,2.7441,2.7478,2.7557,2.6442,2.5721,2.624,2.4913,2.4402,2.6086,2.3489,2.249,2.5344,2.4263,2.3807,2.5222,2.4078,2.327,2.327,2.1697,2.0766,2.0766,2.0454,2.0264,2.0264,2.0007,1.9943,2.0197,2.0027,2.004,2.0264,2.0304,2.0457,2.0766,2.0766,2.0869,2.1109,2.1109,2.1109,2.1089,2.0842,2.0746,2.0686,2.0434,2.0481,2.0712,2.0753,2.0895,2.1109,0.0,0.0,0.0,0.0,0.0,0.0,0.0,0.0,0.0,0.0,0.0,0.0,0.0,0.0,0.0,1.9798,1.9798,1.9936,2.0276,2.0779,2.1645,2.3,2.305,2.3298,2.3835,2.3058,2.2935,2.3499,2.2159,2.2058,2.3108,2.3108,2.3283,2.3587,2.3364,2.3374,2.3574,2.2997,2.2882,2.3108,2.3108,2.3108,2.3108,2.3108,2.3258,2.3475,2.3338,2.3899,2.4755,2.5145,2.5302,2.5293,2.4929,0.0,0.0,0.0,2.2916,2.3357,2.4482,2.5342,2.6226,2.7399,2.7764,2.7969,2.8425,2.8533,2.8334,2.7575,2.6801,2.5959,2.4989,2.4931,2.4797,2.4239,2.3428,2.3179,2.4031,2.3048,2.2678,2.3897,2.4339,2.4409,2.407,2.3407,2.2641,2.1763,2.0886,2.0428,2.0428,2.0147,1.9993,1.9993,1.9713,1.9619,1.9746,1.978,1.9947,2.0204,2.0204,2.027,2.0428,2.0428,2.0675,2.1109,2.1109,2.1109,2.1096,2.0969,2.0722,2.0434,2.0468,2.0361,2.0258,2.0585,2.0755,2.0889,0.0,0.0,0.0,0.0,0.0,0.0,0.0,0.0,0.0,0.0,0.0,0.0,0.0,0.0,0.0,0.0,1.9798,2.0062,2.0654,2.0705,2.1168,2.2245,2.2295,2.2558,2.3095,2.2571,2.2571,2.3108,2.2033,2.2133,2.3321,2.3321,2.3712,2.4406,2.4268,2.413,2.3966,2.3524,2.3321,2.3296,2.3007,2.2982,2.3095,2.2945,2.2982,2.307,2.2865,2.3086,2.3513,2.3794,2.389,2.3844,2.3687,2.3552,0.0,0.0,0.0,2.3327,2.4316,2.4681,2.5131,2.6656,2.6846,2.6836,2.7399,2.7526,2.7526,2.7526,2.6617,2.5281,2.3542,2.3678,2.3739,2.2802,2.226,2.2,2.2051,2.224,2.2419,2.2535,2.3798,2.4261,2.3255,2.2795,2.2065,2.0909,2.0372,2.0097,2.0097,1.9846,1.9693,1.9693,1.9508,1.9395,1.9395,1.9615,1.98,2.0013,2.0013,2.0024,2.0097,2.0097,2.037,2.0857,2.0857,2.0857,2.0857,2.0857,2.0581,2.011,2.0368,2.0187,1.986,2.0374,2.0639,2.0753,0.0,0.0,0.0,0.0,0.0,0.0,0.0,0.0,0.0,0.0,0.0,0.0,1.9849,1.9823,1.9798,1.9798,1.9798,2.0062,2.0654,2.0705,2.1168,2.2245,2.2295,0.0,2.3095,2.2571,2.2571,2.3108,2.2033,2.2334,2.3954,2.3954,2.4506,2.5485,2.498,2.4494,2.4004,2.3966,2.3954,2.3866,2.2786,2.2659,2.3045,2.2533,2.2671,2.3093,2.3072,2.2616,2.2086,2.2603,2.1908,2.0983,2.1842,2.176,2.1516,0.0,0.0,0.0,2.3201,2.3545,2.4095,2.5004,2.5508,2.6001,2.683,2.7051,2.7051,2.7051,2.6964,2.6575,2.5459,2.3327,2.1934,2.2431,2.1054,2.0033,2.0285,2.0332,2.093,2.2505,2.2788,2.3396,2.4816,2.3579,2.2654,2.2595,2.0855,1.982,1.982,1.9575,1.9421,1.9421,1.9401,1.9395,1.9395,1.9408,1.9428,1.9441,1.9441,1.9582,1.982,1.982,1.9987,2.0244,2.0244,2.0244,2.0244,2.0244,2.007,1.9826,1.984,1.9826,1.9833,2.011,2.0434,2.0753,0.0,0.0,0.0,0.0,0.0,0.0,0.0,0.0,0.0,0.0,0.0,0.0,0.0,1.9798,1.9798,1.9798,1.9798,1.9886,2.0113,2.0125,2.0628,2.1732,2.1782,2.2209,2.3083,2.2571,2.2571,2.3108,2.2033,2.2159,2.3409,2.3409,2.3825,2.4582,2.4729,2.4879,2.4958,2.3876,2.365,2.3904,2.2759,2.2621,2.3045,2.2493,2.2631,2.302,2.2522,2.2311,2.2276,2.2256,2.1688,2.11,2.1782,2.1632,2.1366,2.2245,2.2432,2.2519,2.333,2.3271,2.331,2.474,2.498,2.5025,2.5635,2.5786,2.584,2.6108,2.6176,2.6222,2.6377,2.513,2.3568,2.215,2.1365,2.0655,1.9807,2.0717,2.1598,2.1938,2.311,2.3583,2.2923,2.2143,2.1267,2.0327,1.9632,1.921,1.921,1.9348,1.9308,1.9092,1.9085,1.9404,2.01,2.01,2.02,2.0337,1.9493,1.9239,1.9548,1.9548,1.9609,1.9679,1.9679,2.0438,2.1684,2.1684,2.149,2.113,2.0171,1.9686,1.9589,1.9846,2.014,2.0434,0.0,0.0,0.0,0.0,0.0,0.0,0.0,0.0,0.0,2.0153,0.0,0.0,0.0,0.0,1.9798,1.9798,1.9798,1.9798,1.9798,1.9798,2.0313,2.1457,2.1507,2.2096,2.3358,2.2684,2.2659,2.3396,2.2121,2.2146,2.3411,2.3195,2.3509,2.4293,2.4453,2.4933,2.5523,2.4402,2.4164,2.4418,2.3098,2.3007,2.3609,2.3073,2.3311,2.3817,2.2806,2.2523,2.2503,2.1602,2.0967,2.0622,2.0974,2.0948,2.0918,2.165,2.1768,2.1885,2.2881,2.2734,2.2646,2.4062,2.4209,2.415,2.4717,2.4877,2.4932,2.521,2.5269,2.5532,2.6401,2.5866,2.4577,2.2344,2.1557,2.0738,1.9293,2.0173,2.0865,2.0598,2.1713,2.1984,2.0683,2.0354,1.9828,1.8834,1.8778,1.8778,1.8778,1.8993,1.9013,1.8784,1.8778,1.9327,2.0505,2.005,2.0182,2.087,1.9548,1.9078,1.9395,1.9395,1.9395,1.9417,1.9814,2.0541,2.1464,2.1572,2.1421,2.1046,2.016,1.9655,1.9435,1.9693,1.9987,2.0244,0.0,0.0,0.0,0.0,0.0,0.0,0.0,0.0,2.0769,2.0709,0.0,0.0,0.0,0.0,0.0,1.9798,1.9798,1.9811,1.9823,1.9823,2.0326,2.1469,2.152,2.2284,2.3941,2.2884,2.2874,2.3966,2.2334,2.2359,2.3941,2.3358,2.3684,2.4704,2.4217,2.4582,2.5548,2.5523,2.5548,2.5435,2.376,2.3772,2.4729,2.4205,2.4644,2.5373,2.3981,2.3229,2.2581,2.0611,1.9692,1.9364,1.9364,1.9609,2.0,2.0459,2.0869,2.1279,0.0,0.0,0.0,2.2869,2.3115,2.3372,2.417,2.4332,2.4342,2.4371,2.4371,2.4635,2.5513,2.5342,2.4551,2.2956,2.1486,2.007,1.8705,1.849,1.849,1.849,1.849,1.849,1.849,1.8484,1.8477,1.8477,1.8477,1.8477,1.8477,1.8477,1.8477,1.8477,1.8526,1.9181,2.0522,1.9201,1.9334,2.0924,1.952,1.9058,1.9381,1.9374,1.9374,1.9448,2.0541,2.0387,1.9395,1.9705,1.9687,1.9466,1.9696,1.9606,1.9428,1.9686,1.9967,2.023,0.0,0.0,0.0,0.0,0.0,0.0,2.1798,2.1121,2.0715,0.0,0.0,0.0,2.0717,2.0163,1.9798,1.9798,1.9798,1.9987,2.0427,2.0453,2.0942,2.2033,2.2083,2.247,2.3321,2.3032,2.3032,2.3346,2.2882,2.2696,2.2786,2.2995,2.3058,2.3022,2.3703,2.4167,2.4406,2.3976,2.4277,2.4904,2.3622,2.3562,2.4217,2.4054,2.418,2.4357,2.3616,2.3098,2.2557,2.1267,2.0773,2.0674,2.0674,2.0313,2.0,2.0459,2.0449,2.043,2.1191,0.0,0.0,0.0,0.0,0.0,2.292,2.3037,2.3191,2.3838,2.3965,2.4131,2.4654,2.4678,2.4135,2.2717,2.2028,2.0933,1.8809,1.849,1.849,1.849,1.849,1.849,1.849,1.8269,1.8143,1.8143,1.8143,1.8143,1.8143,1.8143,1.8143,1.8143,1.8893,1.9956,2.1356,1.9983,2.0121,2.1743,1.9374,1.8529,1.9038,1.8831,1.8844,1.906,1.9172,1.9035,1.885,1.9982,2.0558,2.059,1.9547,1.9245,1.9408,1.9488,1.9673,1.9927,0.0,0.0,0.0,0.0,0.0,2.249,2.2009,2.1233,2.0855,0.0,0.0,0.0,2.0768,2.0163,1.9899,2.015,2.0175,2.0414,2.0993,2.1031,2.1407,2.2257,2.2295,2.2671,2.3461,2.3007,2.2995,2.3487,2.2784,2.2508,2.2646,2.2719,2.2608,2.232,2.2985,2.3301,2.3276,2.2922,2.3687,2.5055,2.4177,2.4302,2.5012,2.4757,2.4958,2.5207,2.3933,2.3553,2.3357,2.1352,2.0663,2.0635,2.0459,2.0068,1.9707,1.998,1.998,2.001,2.0527,2.0801,2.1103,2.1749,0.0,0.0,2.2352,2.2373,2.2441,2.3115,2.3252,2.3437,2.4043,2.3981,2.353,2.255,2.2146,2.1217,1.9021,1.8581,1.8409,1.8164,1.8534,1.8607,1.8178,1.8453,1.8456,1.7883,1.7829,1.7776,1.7675,1.7675,1.7589,1.7469,1.8063,1.9039,2.0433,1.909,1.9302,2.1033,1.886,1.8143,1.8738,1.8564,1.8584,1.8724,1.8424,1.8297,1.8345,1.9104,1.9727,2.0152,1.9251,1.9105,1.9395,1.9395,1.9582,1.98,0.0,0.0,2.615,2.5486,2.3873,2.2616,2.2427,2.1537,2.1218,0.0,2.1882,2.1382,2.0842,2.0314,2.0188,2.0667,2.0742,2.1018,2.1543,2.1595,2.1832,2.237,2.2383,2.2859,2.3879,2.296,2.2947,2.3904,2.246,2.2209,2.3007,2.2521,2.2232,2.2119,2.2182,2.2207,2.2219,2.2408,2.3627,2.5372,2.4892,2.5298,2.6111,2.5627,2.5971,2.6436,2.4271,2.4011,2.4191,2.11,2.001,1.9932,1.9609,1.9434,1.9374,1.9374,1.9619,1.9893,1.9893,2.0234,2.0811,2.1622,2.1503,0.0,2.2235,2.2187,2.2072,2.2373,2.2498,2.2781,2.3516,2.3347,2.2948,2.2546,2.2188,2.1284,1.9416,1.894,1.8525,1.7828,1.865,1.8811,1.7713,1.8653,1.884,1.764,1.7528,1.7401,1.7166,1.7152,1.7006,1.6714,1.6707,1.7335,1.8697,1.736,1.7707,1.9695,1.826,1.7909,1.8611,1.8473,1.841,1.8424,1.811,1.7949,1.7949,1.7695,1.8076,1.8803,1.8836,1.9058,1.9354,1.9388,1.9562,1.9753,0.0,2.5714,2.5398,2.4661,2.3816,2.3029,2.2407,2.213,2.2071,2.227,2.2207,2.1945,2.1407,2.1243,2.1042,2.0729,2.1094,2.157,2.2121,2.2146,2.2383,2.292,2.2945,2.3045,2.3271,2.3524,2.3537,2.3283,2.3424,2.315,2.2458,2.2345,2.1832,2.1031,2.1457,2.1656,2.1732,2.31,2.3916,2.4305,2.4205,2.413,2.4112,2.4357,2.3876,2.2965,2.249,2.2445,2.2416,2.1312,2.0732,2.0508,2.0752,2.0342,1.9776,1.9776,1.9835,1.9893,1.9893,2.0234,2.0713,2.121,2.1279,0.0,2.1885,2.2207,2.2314,2.206,2.2527,2.2947,2.2771,2.2947,2.3062,2.2974,2.2913,2.2225,2.0385,2.0353,2.0074,1.8876,1.9188,1.9025,1.7733,1.7654,1.7563,1.7312,1.704,1.6854,1.6794,1.6794,1.6767,1.6707,1.6707,1.7335,1.8697,1.736,1.7956,2.037,1.8285,1.7955,1.9182,1.8227,1.7896,1.8089,1.7802,1.7669,1.7669,1.7609,1.7836,1.8216,1.8484,1.8758,1.9038,1.9308,1.9435,1.9481,2.5398,2.5091,2.4738,2.4364,2.3725,2.3138,2.2768,2.2694,2.2694,2.2694,2.247,2.2209,2.1933,2.1656,2.1507,2.1507,2.1568,2.2036,2.3083,2.2674,2.2736,2.3521,2.3258,2.3108,2.3108,2.3411,2.3396,2.3108,2.3396,2.3123,2.2295,2.2295,2.1733,2.0717,2.1256,2.1507,2.157,2.2686,2.3353,2.3725,2.4493,2.4423,2.388,2.4107,2.359,2.2682,2.2176,2.1697,2.1292,2.1213,2.1064,2.0898,2.0898,2.0732,2.0469,2.003,2.0068,2.0195,1.9952,2.0234,2.0742,2.1396,2.123,0.0,0.0,2.1729,2.1632,2.1857,2.203,2.2214,2.2449,2.2664,2.2801,2.2801,2.2976,2.2786,2.1875,2.1401,2.0549,1.8932,2.0126,2.0055,1.7423,1.839,1.8571,1.7061,1.6787,1.664,1.6524,1.6486,1.642,1.6248,1.6242,1.6884,1.8194,1.7529,1.8221,2.0226,1.9087,1.9126,2.0154,1.8884,1.8476,1.8745,1.8102,1.7789,1.7789,1.7789,1.7882,1.8022,1.8377,1.8664,1.893,1.9287,1.9395,1.9395,2.4965,2.4481,2.4074,2.4074,2.3531,2.3108,2.3108,2.3108,2.3108,2.3108,2.2719,2.2408,2.2307,2.192,2.1907,2.2571,2.204,2.2407,2.4183,2.3246,2.2984,2.3797,2.3474,2.317,2.2945,2.3158,2.3221,2.3108,2.3108,2.2832,2.2309,2.2096,2.1581,2.0855,2.108,2.1343,2.1681,2.2121,2.2659,2.3382,2.4776,2.4665,2.3653,2.3636,2.3283,2.2701,2.1987,2.1241,2.0654,2.1064,2.119,2.1162,2.0928,2.1006,2.1093,2.0459,2.0488,2.0654,2.0371,2.0488,2.0908,2.171,2.1309,2.0899,0.0,0.0,0.0,2.1544,2.1553,2.1649,2.2275,2.2461,2.2488,2.2488,2.2771,2.2974,2.2974,2.2215,2.101,1.9349,2.0968,2.0842,1.7385,1.8994,1.9218,1.6702,1.654,1.6433,1.6223,1.621,1.6079,1.5815,1.6038,1.6669,1.7684,1.7932,1.8752,2.0173,1.9992,2.0387,2.1228,1.9948,1.9474,1.9546,1.8681,1.8198,1.7995,1.7989,1.8049,1.8129,1.8397,1.8637,1.8856,1.9267,1.9395,1.9395,2.3365,2.329,2.3243,2.3243,2.3155,2.3108,2.3108,2.3108,2.3108,2.3108,2.3045,2.2832,2.2345,2.2259,2.2633,2.3715,2.241,2.2632,2.5247,2.392,2.309,2.3208,2.365,2.3411,2.2408,2.3374,2.3637,2.3108,2.3108,2.2832,2.227,2.1319,2.1069,2.1369,2.0427,2.0828,2.2207,2.227,2.2625,2.3207,2.4034,2.3292,2.172,2.1582,2.102,2.034,2.0641,2.0702,2.0654,2.1064,2.119,2.1249,2.1631,2.1504,2.1269,2.1572,2.1426,2.121,2.1572,2.1416,2.1259,2.1768,2.1503,2.1162,2.1269,0.0,2.1563,2.0899,0.0,2.2264,2.2032,0.0,0.0,2.2488,2.2527,2.2557,2.2557,2.277,2.2539,2.1541,2.1077,2.016,1.8459,1.7415,1.6604,1.5952,1.5901,1.5888,1.5855,1.5855,1.5841,1.5808,1.6897,1.7552,1.7692,1.8749,1.9923,2.1132,2.0308,2.072,2.2203,2.1211,2.0336,1.9576,1.9465,1.8875,1.7995,1.8002,1.819,1.8444,1.8477,1.851,1.8604,1.9194,1.9395,1.9395,2.3108,2.3108,2.3108,2.3108,2.3399,2.3512,2.3158,2.3411,2.3625,2.3625,2.3625,2.365,2.3738,2.3461,2.3602,2.439,2.3292,2.3187,2.4699,2.3794,2.3365,2.3725,2.3908,2.3778,2.3301,2.3113,2.2884,2.2646,2.232,2.1895,2.1356,2.0905,2.0993,2.1482,2.1005,2.1531,2.2782,2.3135,2.2931,2.2465,2.3069,2.2371,2.1043,2.2133,2.1948,2.1072,2.072,2.0605,2.0635,2.0781,2.1191,2.1553,2.1241,2.1514,2.1893,2.1581,2.1542,2.165,2.1857,2.1562,2.1298,2.1777,2.1378,2.0918,2.1152,2.1172,2.1104,2.0977,0.0,0.0,0.0,0.0,0.0,0.0,2.2693,2.2771,2.2527,2.2645,2.2432,2.1608,2.1454,2.0604,1.8582,1.6945,1.5941,1.5815,1.5808,1.5808,1.5808,1.5808,1.5808,1.5808,1.6315,1.6943,1.7684,1.891,2.0102,2.1293,2.1608,2.1894,2.213,2.0913,1.9994,1.9333,1.8707,1.8376,1.8303,1.8297,1.847,1.8744,1.8744,1.8744,1.8791,1.9241,1.9395,1.9395,2.3108,2.3108,2.3108,2.3108,2.3461,2.365,2.3399,2.3712,2.4054,2.4205,2.3984,2.3961,2.434,2.4032,2.3972,2.4411,2.362,2.3369,2.4009,2.3571,2.3375,2.3561,2.4127,2.4155,2.3552,2.3037,2.2684,2.2521,2.1983,2.1608,2.1344,2.1069,2.1281,2.1933,2.1782,2.2334,2.3371,2.3816,2.3345,2.2315,2.2585,2.217,2.1489,2.2376,2.2403,2.1914,2.1221,2.0972,2.1012,2.1131,2.1402,2.1621,2.1114,2.1494,2.204,2.1542,2.1532,2.1758,2.1992,2.1738,2.1464,2.1807,2.1338,2.082,2.0986,2.082,2.0674,2.0986,2.123,0.0,0.0,0.0,2.2488,2.2488,0.0,2.284,2.2537,2.2586,2.2411,2.1704,2.1442,2.062,1.8801,1.6907,1.5944,1.6292,1.5991,1.5808,1.5808,1.5808,1.5808,1.5808,1.6133,1.6756,1.7684,1.891,1.9943,2.0823,2.1699,2.1896,2.1446,2.0431,1.963,1.9029,1.8348,1.8121,1.8284,1.8424,1.8657,1.8903,1.9011,1.9045,1.9072,1.9314,1.9395,1.9395,2.3108,2.3108,2.3108,2.3108,2.312,2.3308,2.3891,2.3991,2.4192,2.4704,2.3936,2.3333,2.3356,2.3333,2.3378,2.3537,2.2923,2.2866,2.365,2.345,2.2889,2.2012,2.4275,2.4544,2.2395,2.3401,2.365,2.3083,2.2546,2.2533,2.3007,2.197,2.2046,2.3032,2.2508,2.2912,2.3966,2.3991,2.3711,2.3225,2.2848,2.2969,2.3202,2.1385,2.1251,2.1989,2.1971,2.1952,2.2025,2.2485,2.1997,2.1308,2.1719,2.1562,2.1337,2.1748,2.1582,2.1415,2.2245,2.2187,2.1886,2.1905,2.1553,2.1084,2.0703,2.0615,2.0605,2.0625,2.129,2.1886,2.1905,2.2227,2.2488,2.2488,2.2498,0.0,0.0,2.284,2.2935,2.2514,2.0762,1.9559,1.9467,1.7233,1.6315,1.7552,1.6504,1.5808,1.5808,1.5808,1.5808,1.5808,1.699,1.7668,1.7692,1.891,1.9519,1.9557,1.9602,1.9816,2.0165,2.011,1.959,1.8727,1.9015,1.8573,1.7655,1.825,1.8657,1.8923,1.9267,1.9381,1.9381,1.9395,1.9395,1.9395,2.3703,2.3703,2.3574,2.317,2.3108,2.3296,2.3916,2.4079,2.4287,2.4738,2.4492,2.4284,2.4289,2.3981,2.3909,2.4338,2.4472,2.4225,2.3472,2.5012,2.5177,2.3508,2.5533,2.603,2.4519,2.4503,2.3926,2.2693,2.2424,2.2248,2.2166,2.1708,2.2284,2.3662,2.3098,2.3273,2.4054,2.4757,2.4382,2.331,2.3246,2.3183,2.3004,2.1935,2.2563,2.3909,2.3239,2.2571,2.2021,2.2178,2.1773,2.1191,2.1075,2.1338,2.1641,2.1474,2.1532,2.1728,2.2021,2.1787,2.1503,2.1816,2.1358,2.085,2.0977,2.0801,2.0693,2.0947,2.123,2.161,2.2197,2.2412,2.2586,2.2859,2.2908,2.2713,0.0,2.1952,2.1913,2.208,2.1273,2.0056,1.8457,1.7352,1.6654,1.6466,1.5879,1.5601,1.5795,1.5808,1.5808,1.5808,1.6221,1.6433,1.6433,1.7677,1.8303,1.8319,1.9108,1.915,1.8512,1.8512,1.7997,1.7117,1.7222,1.7287,1.7354,1.7749,1.807,1.8343,1.8671,1.8784,1.8859,1.9254,1.9395,1.9395,2.4255,2.413,2.3941,2.3735,2.3406,2.3375,2.3988,2.3963,2.4042,2.4515,2.4393,2.4427,2.4818,2.4392,2.4311,2.4884,2.539,2.5123,2.3809,2.5819,2.6305,2.4632,2.6328,2.6683,2.5347,2.5372,2.4439,2.2509,2.3151,2.3176,2.2593,2.2455,2.3062,2.4264,2.3888,2.3813,2.4079,2.5376,2.5042,2.3582,2.3135,2.281,2.2534,2.2143,2.3375,2.517,2.4322,2.3617,2.3017,2.2646,2.2076,2.1371,2.0791,2.0997,2.1378,2.1084,2.1191,2.1466,2.1611,2.1425,2.1279,2.1582,2.1221,2.084,2.0967,2.0791,2.0713,2.1123,2.119,2.1425,2.2137,2.2412,2.2576,2.2849,2.3003,2.2879,0.0,2.1981,2.1942,2.209,2.1132,2.0018,1.8945,1.7455,1.6447,1.6185,1.5685,1.5478,1.5641,1.5748,1.5808,1.5808,1.5808,1.5808,1.5808,1.6622,1.7014,1.7037,1.7809,1.7785,1.7014,1.7014,1.6686,1.6119,1.625,1.6511,1.6918,1.7287,1.7575,1.7769,1.8163,1.8323,1.839,1.8878,1.9087,1.9087,2.4704,2.4428,2.428,2.4754,2.4013,2.3553,2.415,2.3786,2.3587,2.408,2.3781,2.3884,2.4884,2.4585,2.454,2.5128,2.5616,2.5521,2.4589,2.5918,2.6313,2.5343,2.6673,2.664,2.4967,2.603,2.5328,2.2651,2.4678,2.5167,2.4279,2.411,2.4343,2.4842,2.4879,2.4553,2.4104,2.5795,2.5583,2.4008,2.2618,2.2067,2.204,2.2075,2.3601,2.5652,2.5111,2.4898,2.4719,2.3763,2.2758,2.1773,2.0876,2.0605,2.0605,2.0605,2.0605,2.0674,2.1064,2.1161,2.1191,2.119,2.1201,2.1074,2.0703,2.0615,2.0713,2.1123,2.119,2.1357,2.1836,2.2246,2.2519,2.2518,2.284,2.2947,2.2547,2.281,2.2918,2.2537,2.0337,1.9385,2.0699,1.7589,1.5814,1.6683,1.5885,1.5384,1.5398,1.5648,1.5808,1.5808,1.5808,1.5808,1.5808,1.5808,1.5808,1.5808,1.5808,1.5808,1.5808,1.5808,1.5808,1.5821,1.6126,1.6277,1.6317,1.6918,1.7159,1.7213,1.7729,1.7936,1.7969,1.8364,1.849,1.849,2.4763,2.536,2.5753,2.5448,2.4606,2.4161,2.4713,2.5003,2.4764,2.3674,2.5127,2.5913,2.4949,2.5484,2.5641,2.4962,2.6497,2.6714,2.4862,2.7384,2.8323,2.6816,2.8304,2.836,2.6691,2.7733,2.7193,2.4945,2.5835,2.5965,2.5379,2.4838,2.4879,2.541,2.5866,2.5301,2.4104,2.5795,2.5179,2.3079,2.3105,2.2937,2.2694,2.2992,2.3761,2.4618,2.4091,2.3404,2.2739,2.2478,2.1745,2.0915,2.0683,2.0605,2.0605,2.0605,2.0605,2.0615,2.0723,2.0752,2.084,2.1132,2.0986,2.0811,2.0996,2.0801,2.0713,2.1123,2.119,2.1424,2.2196,2.2441,2.2596,2.2908,2.2791,2.2615,2.2508,2.2334,2.2285,2.249,2.0141,1.8872,1.9771,1.7796,1.626,1.5798,1.5348,1.5193,1.5384,1.5648,1.5808,1.5808,1.5808,1.5808,1.5808,1.5808,1.5808,1.5808,1.5808,1.5808,1.5808,1.5808,1.5808,1.5808,1.5888,1.5921,1.5948,1.6371,1.6524,1.6558,1.6901,1.7015,1.7142,1.8136,1.849,1.849,2.5485,2.6243,2.6809,2.6703,2.626,2.5618,2.4782,2.4918,2.4767,2.3816,2.5157,2.6034,2.5597,2.5672,2.5901,2.6211,2.7389,2.7783,2.7035,2.8299,2.8861,2.8419,2.8596,2.8262,2.7324,2.7896,2.7304,2.5457,2.6161,2.6267,2.5779,2.473,2.4727,2.5582,2.5322,2.488,2.4399,2.5168,2.469,2.3381,2.2995,2.246,0.0,2.2143,2.2414,2.2643,2.234,2.2403,2.259,2.214,2.165,2.1136,2.0731,2.0605,2.0605,2.0605,2.0605,2.0605,2.0605,2.0605,2.0644,2.0879,2.0772,2.0654,2.0889,2.0772,2.0762,2.1387,2.1347,2.1474,2.2332,2.2488,2.2625,2.3023,2.2918,2.2703,2.2518,2.2471,2.243,2.2488,2.0354,1.9051,1.9455,1.7385,1.5675,1.4896,1.5046,1.5193,1.5227,1.5581,1.5808,1.5808,1.5808,1.5808,1.5808,1.5808,1.5808,1.5808,1.5808,1.5808,1.5808,1.5808,1.5808,1.5808,1.5808,1.5808,1.5821,1.6012,1.6409,1.694,1.7218,1.7051,1.6787,1.7462,1.7709,1.7709,2.6193,2.6884,2.7537,2.7921,2.8,2.7206,2.4842,2.4545,2.4455,2.4043,2.4598,2.5336,2.6182,2.5651,2.5942,2.7743,2.8156,2.8629,2.9307,2.8708,2.8648,2.9339,2.8239,2.7524,2.731,2.7365,2.6777,2.5523,2.6176,2.6304,2.5868,2.4324,2.422,2.5276,2.4059,2.3976,2.4685,2.4212,2.3994,2.3865,2.2407,2.1336,2.0605,2.0605,2.0605,2.0605,2.0605,2.1699,2.298,2.2103,2.1811,2.1659,2.0867,2.0605,2.0605,2.0605,2.0605,2.0605,2.0605,2.0605,2.0605,2.0605,2.0605,2.0605,2.0605,2.0605,2.084,2.1631,2.1523,2.1542,2.2342,2.2537,2.2693,2.3033,2.3091,2.2974,2.2625,2.2888,2.2976,2.2615,2.0727,0.0,1.9445,1.6785,1.4832,1.4317,1.493,1.5267,1.5053,1.5498,1.5768,1.5808,1.5808,1.5808,1.5808,1.5808,1.5808,1.5808,1.5808,1.5808,1.5808,1.5808,1.5808,1.5808,1.5808,1.5808,1.5808,1.5808,1.6457,1.7481,1.7851,1.7408,1.6587,1.6547,1.656,1.6575,2.5171,2.6642,2.7846,2.7512,2.7452,2.7093,2.6085,2.6388,2.579,2.3157,2.4797,2.5933,2.5168,2.6541,2.7308,2.6821,2.8462,2.8811,2.718,2.8601,2.8791,2.7139,2.8556,2.8702,2.733,2.7736,2.8043,2.8226,2.7059,2.6501,2.6423,2.4884,2.4055,2.3851,2.3729,2.3891,2.4255,2.3345,2.2705,2.2231,2.1242,2.075,2.0605,2.0605,2.0605,2.0605,2.0605,2.0828,2.1088,2.0895,2.0837,2.0828,2.0654,2.0605,2.0605,2.0605,2.0605,2.0605,2.0605,2.0605,2.0605,2.0605,2.0605,2.0605,2.0605,2.0605,2.0732,2.122,2.1572,2.1924,2.2401,2.2771,2.3013,2.3081,2.3091,2.3093,2.2994,2.3052,2.3062,2.2994,2.0722,1.917,1.917,1.6829,1.53,1.5177,1.5113,1.5146,1.5311,1.5418,1.5578,1.5795,1.5808,1.5808,1.5808,1.5808,1.5808,1.5808,1.5808,1.5808,1.5808,1.5808,1.5808,1.5808,1.5808,1.5808,1.5808,1.5808,1.592,1.62,1.7039,1.6791,1.5928,1.5718,1.5778,1.6028,2.6566,2.7581,2.843,2.8185,2.8609,2.8698,2.7801,2.8187,2.7809,2.5584,2.7004,2.7868,2.7009,2.7886,2.8199,2.7403,2.8299,2.847,2.7412,2.7238,2.7238,2.7331,2.7819,2.8099,2.813,2.7828,2.7815,2.8079,2.6217,2.5463,2.572,2.3732,2.3051,2.3485,2.3358,2.3527,2.3859,2.2576,2.2333,2.2758,2.1739,2.1631,2.2094,2.2094,2.2094,2.2094,2.2094,2.2094,2.1954,2.0944,2.0605,2.0605,2.0605,2.0605,2.0605,2.0605,2.0605,2.0605,2.0605,2.0605,2.0605,2.0605,2.0605,2.0605,2.0605,2.0605,2.0713,2.1123,2.1562,2.208,2.2693,2.2976,2.3091,2.3091,2.3091,2.3091,2.3091,2.3091,2.3091,2.3091,2.1414,2.0239,2.0239,1.86,1.6819,1.506,1.5611,1.5798,1.5216,1.5839,1.6107,1.5818,1.5808,1.5808,1.5808,1.5808,1.5808,1.5808,1.5808,1.5808,1.5808,1.5808,1.6157,1.6786,1.6786,1.7147,1.7778,1.8388,1.8272,1.7748,1.8059,1.7606,1.6673,1.573,1.5578,1.5848,2.8139,2.8718,2.9251,2.9251,3.0098,3.0422,2.9388,2.9843,2.9732,2.8157,2.8711,2.9093,2.8607,2.8671,2.8556,2.8151,2.8096,2.8096,2.8096,2.6459,2.6181,2.7683,2.7392,2.7679,2.8709,2.7787,2.7279,2.7183,2.5266,2.436,2.4368,2.2526,2.2049,2.2724,2.2624,2.2739,2.2983,2.211,2.2281,2.3124,2.2547,2.2664,2.3202,2.3423,2.3496,2.3496,2.3496,2.3496,2.3257,2.1726,2.1069,2.0857,2.0663,2.0605,2.0605,2.0605,2.0605,2.0605,2.0605,2.0605,2.0605,2.0605,2.0605,2.0605,2.0605,2.0605,2.0713,2.1123,2.163,2.2217,2.2859,2.3033,2.3091,2.3091,2.3091,2.3091,2.3091,2.3091,2.3091,2.3091,2.2031,2.1266,2.1175,2.0072,1.8234,1.5539,1.6559,1.6907,1.6011,1.6802,1.7091,1.6593,1.6584,1.6584,1.6584,1.6584,1.6584,1.6584,1.6584,1.6584,1.6584,1.6584,1.7124,1.8072,1.8072,1.8611,1.9579,2.08,2.0598,1.9478,1.9212,1.8538,1.7507,1.5961,1.5578,1.5808,2.8302,2.9369,3.0437,3.0437,3.0934,3.1071,3.0374,3.1244,3.1034,2.8408,2.7773,2.7522,2.7465,2.7871,2.8143,2.8096,2.8096,2.8096,2.8096,2.7904,2.7441,2.6678,2.8462,2.9094,2.8183,2.7594,2.7149,2.6848,2.5432,2.3963,2.2458,2.2545,2.1746,2.0281,2.1148,2.129,2.0963,2.224,2.2248,2.156,2.2842,2.2869,2.2234,2.3147,2.3496,2.3496,2.3496,2.3496,2.3459,2.3294,2.2627,2.1716,2.0857,2.0605,2.0605,2.0605,2.0605,2.0605,2.0605,2.0605,2.0605,2.0605,2.0605,2.0605,2.0605,2.0605,2.0713,2.1123,2.1864,2.248,2.2537,2.2859,2.3091,2.3091,2.3091,2.3091,2.3091,2.3091,2.3091,2.3091,2.2031,2.1157,2.0784,1.9621,1.8621,1.8075,1.8186,1.8518,1.9039,1.8561,1.8536,1.9129,1.9154,1.9154,1.9154,1.9154,1.9154,1.9154,1.9154,1.9154,1.9154,1.9154,1.9222,1.9337,1.9337,1.9405,1.9579,2.08,2.0598,1.9478,1.9212,1.8538,1.7507,1.5961,1.5578,1.5808,3.0112,3.0614,3.1085,3.1085,3.1524,3.1785,3.1521,3.2194,3.2352,3.1249,3.0592,3.0112,2.9799,2.965,2.9462,2.915,2.7907,2.7412,2.8064,2.6211,2.5525,2.6462,2.6687,2.6912,2.7116,2.6333,2.5569,2.4826,2.3965,2.2868,2.1606,2.1486,2.0883,1.9912,2.0314,2.0372,2.0221,2.0835,2.1538,2.2294,2.316,2.3988,2.4737,2.5152,2.5293,2.5293,2.5293,2.5293,2.5205,2.4588,2.3331,2.1943,2.1555,2.1039,2.0605,2.0605,2.0605,2.0605,2.0605,2.0605,2.0605,2.0605,2.0605,2.0605,2.0605,2.0605,2.0654,2.0811,2.1318,2.1805,2.209,2.248,2.2742,2.2742,2.2925,2.3091,2.3091,2.3091,2.3091,2.3091,2.2457,2.1968,2.1807,2.1114,2.0717,2.0842,1.9924,1.9324,1.9262,1.9598,1.9697,1.9503,1.9497,1.9497,1.9497,1.9497,1.9497,1.9497,1.9497,1.9497,1.9497,1.9497,1.9898,2.0621,2.1355,2.1654,2.1699,2.2173,2.2107,2.1484,1.9768,1.8958,1.8502,1.6248,1.5578,1.5808,3.1524,3.1783,3.1959,3.2102,3.2453,3.2704,3.2704,3.2939,3.3102,3.3102,3.2162,3.1343,3.098,3.0284,2.9715,2.9332,2.7565,2.6964,2.8024,2.5577,2.4808,2.6442,2.5734,2.5672,2.6472,2.5623,2.457,2.3312,2.3024,2.2173,2.08,2.0674,2.042,2.0098,1.9952,1.9893,1.9912,2.0221,2.1237,2.272,2.3591,2.4785,2.6094,2.6383,2.6499,2.6499,2.6499,2.6499,2.6383,2.5681,2.4108,2.2384,2.2084,2.1355,2.0605,2.0605,2.0605,2.0605,2.0605,2.0605,2.0605,2.0605,2.0605,2.0605,2.0605,2.0605,2.0605,2.0605,2.0918,2.1308,2.1641,2.2148,2.2488,2.2488,2.284,2.3091,2.3091,2.3091,2.3091,2.3091,2.2859,2.2625,2.2498,2.2246,2.2197,2.249,2.1407,2.061,2.0298,2.0875,2.1091,2.0764,2.075,2.075,2.075,2.075,2.0698,2.0562,2.0562,2.0562,2.0562,2.0562,2.1011,2.1889,2.2721,2.3091,2.3091,2.3091,2.3091,2.2833,2.0221,1.9341,1.919,1.6501,1.5628,1.5808,3.2068,3.2667,3.3253,3.3771,3.3872,3.3884,3.3884,3.3442,3.3102,3.3102,3.118,2.9836,2.9815,2.8799,2.8116,2.8116,2.7128,2.6964,2.8024,2.7066,2.6483,2.6504,2.6483,2.6483,2.6504,2.5907,2.4706,2.2907,2.3162,2.2123,1.9941,2.0381,2.0605,2.0576,2.0107,1.9893,1.9968,2.0962,2.1636,2.2186,2.4181,2.4987,2.5141,2.6112,2.6499,2.6499,2.6499,2.6499,2.6499,2.6499,2.5152,2.3312,2.2309,2.1355,2.0605,2.0605,2.0605,2.0605,2.0605,2.0605,2.0605,2.0605,2.0605,2.0605,2.0605,2.0605,2.0605,2.0605,2.0918,2.119,2.12,2.1923,2.2488,2.2488,2.284,2.3091,2.3091,2.3091,2.3091,2.3091,2.3091,2.2947,2.2527,2.251,2.2488,2.2488,2.2488,2.2643,2.3018,2.2691,2.2879,2.3728,2.3757,2.3757,2.3757,2.3757,2.352,2.3047,2.3047,2.3047,2.3047,2.3047,2.3047,2.3069,2.3091,2.3091,2.3091,2.3091,2.3091,2.2862,2.044,1.9488,1.92,1.6718,1.5801,1.5808,3.2692,3.2977,3.3153,3.3329,3.3354,3.3354,3.3354,3.3215,3.2797,3.1921,3.0867,2.9487,2.7612,2.7181,2.7005,2.7005,2.5985,2.5818,2.6944,2.5242,2.4531,2.5315,2.4595,2.4188,2.4188,2.3727,2.3072,2.222,2.229,2.1818,2.0801,2.126,2.1329,2.0996,2.0859,2.0801,2.0791,2.0845,2.1686,2.3073,2.3727,2.4797,2.606,2.6383,2.6725,2.7002,2.6625,2.6738,2.7002,2.6612,2.5152,2.3441,2.3128,2.1916,2.0605,2.0605,2.0605,2.0605,2.0605,2.0605,2.0605,2.0605,2.0605,2.0605,2.0605,2.0605,2.0674,2.0957,2.1113,2.1308,2.1621,2.2139,2.2488,2.2488,2.284,2.3091,2.3091,2.3091,2.3091,2.3091,2.2869,2.2635,2.2498,2.2256,2.2207,2.249,2.2488,2.2674,2.3071,2.2974,2.3181,2.3769,2.3789,2.3926,2.4209,2.3935,2.3721,2.3584,2.3584,2.3584,2.3574,2.3249,2.3091,2.3091,2.3091,2.3091,2.3091,2.3091,2.3091,2.2928,2.1346,2.0215,1.9306,1.77,1.6551,1.5808,3.3027,3.3266,3.3404,3.3404,3.3404,3.3252,3.2778,3.2539,3.1943,3.0698,2.956,2.822,2.6495,2.5657,2.5389,2.5818,2.521,2.5105,2.5818,2.4531,2.3865,2.4146,2.3485,2.3091,2.3091,2.2859,2.2518,2.2119,2.1797,2.1582,2.1464,2.1592,2.1474,2.122,2.159,2.1659,2.1508,2.1631,2.2619,2.4054,2.4054,2.5046,2.6499,2.6499,2.6839,2.7223,2.6688,2.6851,2.7223,2.6688,2.5152,2.3496,2.3496,2.218,2.0605,2.0605,2.0605,2.0605,2.0605,2.0605,2.0605,2.0605,2.0605,2.0605,2.0605,2.0605,2.0664,2.0928,2.1093,2.1298,2.1592,2.2098,2.2488,2.2488,2.284,2.3091,2.3091,2.3091,2.3091,2.3091,2.2888,2.2723,2.2723,2.2488,2.244,2.2713,2.29,2.3015,2.3091,2.3269,2.3584,2.4014,2.4212,2.4418,2.4658,2.4404,2.4189,2.4023,2.3867,2.3789,2.3769,2.3318,2.3091,2.3091,2.3091,2.3091,2.3091,2.3091,2.3091,2.2982,2.1778,2.0553,1.936,1.8141,1.6897,1.5808,3.3102,3.3504,3.3847,3.3847,3.3768,3.3323,3.2211,3.1499,3.0653,2.943,2.7568,2.6304,2.6183,2.4364,2.358,2.4702,2.4808,2.4808,2.4808,2.4872,2.4414,2.3256,2.3222,2.3178,2.3091,2.3091,2.2886,2.2488,2.1659,2.1484,2.1924,2.1464,2.1249,2.1338,2.2273,2.245,2.2117,2.3084,2.4072,2.4987,2.4987,2.5611,2.6499,2.6537,2.6876,2.7236,2.6738,2.6889,2.7205,2.6588,2.5117,2.3478,2.3423,2.2105,2.0605,2.0605,2.0605,2.0605,2.0605,2.0605,2.0605,2.0605,2.0605,2.0605,2.0605,2.0605,2.0625,2.0683,2.0996,2.1279,2.1317,2.2001,2.2537,2.2537,2.2859,2.3091,2.3091,2.3091,2.3091,2.3091,2.3091,2.3091,2.3091,2.3091,2.3091,2.3091,2.3493,2.3584,2.3159,2.3603,2.4014,2.4381,2.4867,2.5112,2.5141,2.5112,2.4887,2.443,2.4004,2.3809,2.3818,2.3327,2.3091,2.3091,2.3091,2.3091,2.3091,2.3091,2.3091,2.2982,2.1778,2.0553,1.936,1.8141,1.6897,1.5808,3.3102,3.3203,3.3291,3.3291,3.2479,3.1737,3.1458,3.051,2.9384,2.8179,2.7283,2.6273,2.4985,2.4116,2.3941,2.4734,2.4808,2.4808,2.4808,2.5609,2.5599,2.4457,2.4393,2.3984,2.3113,2.3091,2.2886,2.2488,2.1992,2.1953,2.2353,2.1924,2.1904,2.2199,2.255,2.2648,2.258,2.3227,2.4072,2.4987,2.4987,2.5611,2.6537,2.6947,2.7185,2.7286,2.7148,2.7185,2.7104,2.5781,2.4534,2.3368,2.2609,2.1555,2.0605,2.0605,2.0605,2.0605,2.0605,2.0605,2.0605,2.0605,2.0605,2.0605,2.0605,2.0605,2.0791,2.1456,2.166,2.1924,2.2547,2.283,2.2967,2.2967,2.3033,2.3091,2.3091,2.3091,2.3091,2.3091,2.3091,2.3091,2.3091,2.3091,2.3091,2.3091,2.3188,2.3367,2.3623,2.4043,2.4293,2.4391,2.4867,2.5258,2.5552,2.5244,2.5033,2.4926,2.415,2.3955,2.4225,2.3464,2.3091,2.3091,2.3091,2.3091,2.3091,2.3091,2.3091,2.2982,2.1778,2.0553,1.936,1.8141,1.6897,1.5808,3.3102,3.3102,3.3102,3.3102,3.2052,3.1201,3.1201,3.0181,2.9077,2.8179,2.7643,2.672,2.5047,2.449,2.4193,2.4048,2.45,2.502,2.5546,2.5672,2.5441,2.483,2.4296,2.3735,2.3113,2.3091,2.2984,2.2771,2.2187,2.21,2.2479,2.1875,2.1935,2.2605,2.3157,2.3525,2.3795,2.4549,2.5187,2.5681,2.5681,2.6008,2.6524,2.6826,2.7236,2.762,2.7386,2.7462,2.7431,2.5901,2.4528,2.3297,2.2102,2.1212,2.0566,2.0341,2.0429,2.0605,2.0605,2.0605,2.0635,2.082,2.0869,2.0928,2.1143,2.1035,2.1064,2.1769,2.2041,2.2314,2.2752,2.2986,2.3091,2.3091,2.3091,2.3091,2.3091,2.3091,2.3091,2.3091,2.3091,2.3091,2.3091,2.3091,2.3201,2.3396,2.3591,2.3806,2.4062,2.4654,2.4898,2.4717,2.5146,2.5488,2.5693,2.5474,2.5371,2.5361,2.4492,2.4199,2.4362,2.3503,2.3091,2.3091,2.3091,2.3091,2.3091,2.3091,2.3091,2.2982,2.1778,2.0553,1.936,1.8141,1.6897,1.5808,3.3102,3.3102,3.3102,3.3102,3.1899,3.0989,3.1178,2.9852,2.8725,2.8387,2.7767,2.6812,2.5322,2.478,2.4211,2.343,2.4253,2.521,2.6182,2.564,2.5136,2.4808,2.3877,2.3288,2.3091,2.3033,2.3033,2.3091,2.2295,2.21,2.2469,2.1774,2.1888,2.275,2.3846,2.4577,2.507,2.6077,2.6499,2.6499,2.6499,2.6499,2.6499,2.6587,2.7185,2.7921,2.7462,2.7582,2.772,2.6014,2.457,2.3235,2.1668,2.0916,2.0498,2.0049,2.0225,2.0605,2.0605,2.0635,2.0781,2.1123,2.1239,2.1396,2.1719,2.1532,2.1435,2.1894,2.2266,2.2529,2.2576,2.2879,2.3091,2.3091,2.3091,2.3091,2.3091,2.3091,2.3091,2.3091,2.3149,2.322,2.322,2.3247,2.3464,2.3857,2.4219,2.442,2.4512,2.5201,2.5488,2.52,2.5513,2.5713,2.5806,2.5815,2.5815,2.5806,2.4908,2.4521,2.4492,2.3601,2.322,2.3188,2.312,2.3091,2.3091,2.3091,2.2982,2.2709,2.1502,2.0282,1.9085,1.7863,1.6739,1.5808,3.3102,3.3102,3.3102,3.3102,3.119,3.0022,3.1033,2.8391,2.6496,2.7087,2.5872,2.4717,2.411,2.3631,2.3671,2.4478,2.4702,2.4872,2.5041,2.6644,2.6746,2.4893,2.4628,2.4082,2.3113,2.2771,2.2762,2.3091,2.2295,2.21,2.249,2.2473,2.2546,2.2748,2.4216,2.4915,2.507,2.6077,2.6499,2.6499,2.6499,2.6499,2.6549,2.6997,2.7273,2.7412,2.7336,2.7361,2.7057,2.4658,2.371,2.3106,2.0846,2.0338,2.0498,2.0049,2.0225,2.0605,2.0605,2.084,2.1123,2.1181,2.1493,2.1709,2.1386,2.1562,2.1904,2.2324,2.2471,2.2596,2.2925,2.3052,2.3091,2.3091,2.3091,2.3091,2.3091,2.3091,2.3091,2.3091,2.3445,2.3691,2.3691,2.4014,2.4225,2.4293,2.4362,2.458,2.4975,2.5121,2.5312,2.5601,2.5679,2.5893,2.6279,2.6289,2.6289,2.6279,2.5415,2.4994,2.4965,2.4082,2.3691,2.3662,2.3279,2.3091,2.3091,2.3091,2.2492,2.1458,2.026,1.9039,1.7824,1.6567,1.5967,1.5808,3.3102,3.3102,3.3102,3.3102,3.1601,3.0564,3.11,2.9189,2.7728,2.7798,2.693,2.5871,2.4781,2.428,2.3984,2.3877,2.4457,2.4542,2.392,2.541,2.5859,2.4851,2.4211,2.3637,2.3113,2.2927,2.2896,2.3091,2.2498,2.2207,2.2179,2.2541,2.2845,2.3196,2.4441,2.53,2.5838,2.6297,2.6499,2.6452,2.5908,2.6025,2.6498,2.6499,2.7019,2.7666,2.7121,2.6926,2.6535,2.4018,2.2956,2.2374,2.0482,2.0049,2.0176,1.9952,2.0225,2.0605,2.0605,2.1084,2.1582,2.1582,2.1904,2.2227,2.2214,2.2215,2.2344,2.2742,2.283,2.2888,2.3062,2.3091,2.3091,2.3091,2.3091,2.3091,2.3091,2.3318,2.3486,2.3486,2.3867,2.4121,2.4121,2.4284,2.4512,2.4746,2.4789,2.4961,2.541,2.543,2.5503,2.5684,2.5942,2.6182,2.6387,2.6387,2.6387,2.6402,2.5522,2.5092,2.5072,2.4414,2.4004,2.3779,2.3574,2.3337,2.3047,2.2403,2.18,2.1114,1.9268,1.8187,1.7552,1.6268,1.5808,1.5808,3.3102,3.2796,3.2648,3.3034,3.1492,3.0424,3.1088,2.9693,2.8439,2.8109,2.7502,2.6527,2.5024,2.4588,2.4049,2.3178,2.3908,2.4027,2.3157,2.392,2.4393,2.4393,2.3572,2.3091,2.3091,2.3091,2.3091,2.3091,2.2693,2.2295,2.1916,2.2696,2.3205,2.3551,2.4797,2.5786,2.6499,2.6499,2.6499,2.6435,2.5664,2.5877,2.6621,2.5991,2.6651,2.7755,2.6487,2.6118,2.5871,2.3486,2.237,2.1747,2.0331,1.9962,2.0049,1.9923,2.0293,2.0742,2.0742,2.1241,2.1758,2.1865,2.2197,2.2576,2.2898,2.2801,2.2732,2.3054,2.3091,2.3091,2.3091,2.3091,2.3091,2.3091,2.3091,2.313,2.3249,2.3574,2.3828,2.3926,2.4316,2.457,2.457,2.4658,2.484,2.5195,2.5248,2.5371,2.5674,2.5693,2.5693,2.5693,2.6162,2.6387,2.6387,2.6484,2.6484,2.6387,2.5825,2.5444,2.5239,2.4873,2.4492,2.4095,2.3899,2.3438,2.2754,2.1726,2.098,2.0282,1.8411,1.7528,1.7131,1.6157,1.5808,1.5808,3.3102,3.1847,3.1273,3.283,2.9846,2.8122,3.0784,2.8227,2.6093,2.643,2.5401,2.4296,2.3359,2.3242,2.32,2.3113,2.3178,2.32,2.3123,2.3178,2.3222,2.3222,2.3135,2.3091,2.3091,2.3091,2.3091,2.3091,2.2693,2.2295,2.1937,2.3411,2.3884,2.3569,2.5529,2.6435,2.6499,2.6499,2.6499,2.6487,2.6418,2.6731,2.7112,2.6027,2.6346,2.7094,2.5093,2.4708,2.4809,2.2766,2.204,2.1747,2.0331,2.0195,2.0459,2.0029,2.0498,2.1162,2.1162,2.119,2.1366,2.1787,2.2197,2.2519,2.2527,2.281,2.3052,2.3091,2.3091,2.3091,2.3091,2.3091,2.3091,2.3091,2.3091,2.3259,2.3682,2.3769,2.3935,2.4303,2.4779,2.5043,2.5043,2.54,2.563,2.5659,2.5659,2.5679,2.5693,2.5693,2.5693,2.5693,2.6162,2.6387,2.6387,2.6777,2.6777,2.6396,2.6719,2.643,2.5659,2.5606,2.5367,2.4955,2.4154,2.3151,2.2044,2.1522,1.9988,1.794,1.7761,1.699,1.592,1.5832,1.5808,1.5808,3.2616,3.1479,3.0771,3.1322,2.956,2.8282,2.8881,2.7791,2.6554,2.5668,2.4871,2.4167,2.3603,2.3279,2.3091,2.3091,2.3091,2.3091,2.3091,2.3091,2.3091,2.3091,2.3091,2.3091,2.3091,2.3091,2.3091,2.3091,2.2957,2.2848,2.2788,2.4004,2.4514,2.4492,2.5891,2.6499,2.6512,2.6851,2.7002,2.6974,2.6685,2.7052,2.7639,2.6249,2.6388,2.7003,2.4617,2.3899,2.3772,2.1796,2.1136,2.1039,2.0496,2.0263,2.0127,1.9942,2.0342,2.0879,2.1132,2.158,2.2049,2.2236,2.2566,2.2879,2.2879,2.2984,2.3091,2.3091,2.3091,2.3091,2.3091,2.3091,2.3091,2.3091,2.3091,2.3149,2.3337,2.3825,2.4238,2.4371,2.5025,2.5478,2.5478,2.561,2.5693,2.5693,2.5693,2.5693,2.5693,2.5693,2.5693,2.5693,2.5874,2.6113,2.6387,2.6543,2.6543,2.6387,2.6254,2.603,2.5693,2.5693,2.5318,2.4602,2.3512,2.2497,2.1437,1.976,1.8526,1.7614,1.6833,1.6228,1.5808,1.5808,1.5808,1.5808,3.2039,3.0667,2.9736,3.0292,2.8744,2.746,2.7589,2.7143,2.6344,2.5053,2.4482,2.4053,2.3633,2.3298,2.3091,2.3091,2.3091,2.3091,2.3091,2.3091,2.3091,2.3091,2.3091,2.3091,2.3091,2.3091,2.3091,2.3091,2.3091,2.3157,2.3322,2.4508,2.5032,2.5064,2.6401,2.6914,2.6788,2.7324,2.7562,2.7503,2.7017,2.7133,2.7471,2.603,2.5845,2.6044,2.3951,2.3186,2.2951,2.1332,2.0801,2.0772,2.0644,2.0381,2.0146,2.0264,2.0635,2.1094,2.1493,2.2137,2.2654,2.2527,2.2713,2.2935,2.3062,2.3091,2.3091,2.3091,2.3091,2.3091,2.3091,2.3091,2.3091,2.3091,2.3091,2.3188,2.3461,2.402,2.4498,2.4771,2.5347,2.5693,2.5693,2.5693,2.5693,2.5693,2.5693,2.5693,2.5693,2.5693,2.5693,2.5693,2.5693,2.5854,2.6182,2.6318,2.6318,2.6182,2.6128,2.5947,2.5693,2.5854,2.5513,2.4721,2.3242,2.2055,2.0961,1.8659,1.7458,1.7014,1.6133,1.5808,1.5808,1.5808,1.5808,1.5808,3.1386,2.9187,2.7941,3.0011,2.7042,2.5106,2.7254,2.6145,2.4936,2.4473,2.4053,2.3633,2.314,2.3101,2.3101,2.3091,2.3091,2.3091,2.3091,2.3091,2.3091,2.3091,2.3091,2.3091,2.3091,2.3091,2.3091,2.3091,2.3091,2.3157,2.3352,2.4876,2.5382,2.5117,2.718,2.7795,2.7336,2.7871,2.8109,2.8041,2.7507,2.701,2.6458,2.5254,2.4541,2.4064,2.2914,2.2488,2.2383,2.1483,2.119,2.1132,2.0723,2.0605,2.0674,2.1084,2.1523,2.2003,2.2402,2.2791,2.2994,2.2596,2.2498,2.2606,2.3003,2.3091,2.3091,2.3091,2.3091,2.3091,2.3091,2.3091,2.3091,2.3091,2.3091,2.3393,2.4264,2.4391,2.4723,2.5601,2.5684,2.5708,2.5693,2.5684,2.5684,2.5684,2.5684,2.5684,2.5684,2.5684,2.5693,2.5693,2.5693,2.5693,2.5693,2.6172,2.6162,2.5703,2.6576,2.6537,2.5728,2.6182,2.6118,2.5552,2.3492,2.1901,2.0623,1.8527,1.6943,1.5808,1.5808,1.5808,1.5808,1.5808,1.5808,1.5808,2.9882,2.8375,2.7216,2.6933,2.5273,2.4297,2.5219,2.492,2.4453,2.4033,2.4121,2.3923,2.3179,2.3386,2.3445,2.312,2.3091,2.3091,2.3091,2.3091,2.3091,2.3091,2.3091,2.3091,2.3091,2.3091,2.3091,2.3091,2.3091,2.3712,2.4918,2.5383,2.6167,2.7192,2.7819,2.8009,2.7871,2.8034,2.7687,2.7032,2.6875,2.632,2.5523,2.4698,2.4297,2.4064,2.2914,2.2488,2.2383,2.1483,2.119,2.1132,2.0723,2.0781,2.1045,2.1151,2.1523,2.2003,2.2402,2.2586,2.2723,2.2888,2.2927,2.2945,2.3062,2.3091,2.3091,2.3091,2.3091,2.3091,2.3091,2.3091,2.3091,2.3091,2.3091,2.3179,2.3464,2.401,2.4489,2.4752,2.5078,2.5391,2.5664,2.4551,2.3941,2.4276,2.4304,2.4304,2.4304,2.5201,2.5693,2.5693,2.5693,2.5693,2.5693,2.5845,2.5845,2.5693,2.5947,2.5962,2.5693,2.5845,2.5049,2.3435,2.1974,2.0313,1.8519,1.6992,1.6133,1.5808,1.5808,1.5808,1.5808,1.5808,1.5808,1.5808,2.8793,2.7357,2.6183,2.5755,2.4758,2.418,2.4609,2.4531,2.4268,2.3848,2.3857,2.3688,2.3149,2.3357,2.3406,2.312,2.3279,2.3298,2.311,2.3279,2.3298,2.3101,2.3091,2.3091,2.3091,2.3091,2.3091,2.3091,2.3551,2.4398,2.5621,2.6274,2.7131,2.8122,2.8574,2.8649,2.8417,2.8417,2.7847,2.6926,2.6477,2.5484,2.4243,2.3785,2.3358,2.2971,2.2615,2.2488,2.241,2.1893,2.1493,2.1132,2.0723,2.0869,2.1229,2.1425,2.1797,2.2227,2.2625,2.2742,2.2801,2.3033,2.3091,2.3091,2.3091,2.3091,2.3091,2.3091,2.3091,2.3091,2.3091,2.3091,2.3091,2.3091,2.3091,2.3208,2.3571,2.3923,2.4297,2.4639,2.4936,2.52,2.5449,2.4135,2.3175,2.2925,2.3409,2.3692,2.3692,2.4971,2.5693,2.5693,2.5693,2.5693,2.5693,2.5693,2.5693,2.5693,2.5693,2.5693,2.5693,2.5693,2.4996,2.3698,2.1689,2.0092,1.8769,1.6665,1.5808,1.5808,1.5808,1.5808,1.5808,1.5808,1.5808,1.5808,2.7824,2.6203,2.508,2.5771,2.5032,2.4492,2.4916,2.459,2.4137,2.3779,2.3396,2.3162,2.3101,2.313,2.3162,2.3101,2.3496,2.3564,2.312,2.3493,2.3555,2.311,2.3091,2.3091,2.3091,2.3091,2.3091,2.3091,2.4253,2.5111,2.5719,2.734,2.8154,2.8298,2.934,2.9446,2.8888,2.8838,2.8272,2.7244,2.6068,2.4476,2.2794,2.2622,2.2007,2.1298,2.2147,2.2461,2.2451,2.2391,2.1835,2.1084,2.0713,2.0869,2.1298,2.1758,2.2178,2.2586,2.2984,2.3091,2.3091,2.3091,2.3091,2.3091,2.3091,2.3091,2.3091,2.3091,2.3091,2.3091,2.3091,2.3091,2.3091,2.3091,2.3091,2.3386,2.4167,2.4004,2.4082,2.4887,2.4975,2.4994,2.5033,2.4072,2.2858,2.144,2.2692,2.3509,2.3509,2.4922,2.5693,2.5693,2.5693,2.5693,2.5693,2.5693,2.5693,2.5693,2.5693,2.5693,2.5693,2.5693,2.5616,2.531,2.218,2.0739,2.0376,1.718,1.5868,1.5848,1.5848,1.5828,1.5808,1.5808,1.5808,1.5825,2.5682,2.5381,2.5046,2.4416,2.4096,2.3955,2.4075,2.3669,2.3335,2.3269,2.3474,2.3516,2.313,2.3425,2.3493,2.312,2.3179,2.322,2.3101,2.321,2.322,2.3101,2.3091,2.3091,2.3091,2.3091,2.3091,2.3091,2.4253,2.5325,2.6335,2.7535,2.8574,2.944,2.9679,2.9446,2.8863,2.8442,2.7465,2.6045,2.4572,2.3264,2.215,2.1698,2.1381,2.1268,2.1836,2.2021,2.1973,2.161,2.1162,2.0713,2.0635,2.0869,2.1298,2.1758,2.2178,2.2586,2.2984,2.3091,2.3091,2.3091,2.3091,2.3091,2.3091,2.3091,2.3091,2.3091,2.3091,2.3091,2.3091,2.3091,2.3091,2.3091,2.3091,2.3159,2.3367,2.361,2.3857,2.4066,2.4095,2.4222,2.4521,2.2753,2.0711,1.8634,2.0761,2.2131,2.2131,2.4402,2.5693,2.5693,2.5693,2.5693,2.5693,2.5693,2.5693,2.5693,2.5693,2.5693,2.5693,2.5693,2.5019,2.3726,2.1899,2.0362,1.9018,1.7239,1.638,1.6203,1.6203,1.6032,1.5808,1.5808,1.5808,1.5944,2.4914,2.4535,2.4201,2.3862,2.3789,2.3789,2.3789,2.3594,2.3357,2.312,2.3318,2.3367,2.312,2.3318,2.3367,2.311,2.3308,2.3337,2.311,2.3308,2.3337,2.311,2.3091,2.3091,2.3091,2.3091,2.3091,2.3091,2.4776,2.5933,2.6545,2.8159,2.9236,2.9792,2.9792,2.9446,2.885,2.8335,2.7219,2.5676,2.4109,2.2906,2.1926,2.1192,2.1025,2.122,2.1474,2.1709,2.1896,2.1835,2.1553,2.1182,2.0967,2.1328,2.1835,2.1875,2.2324,2.284,2.3033,2.3091,2.3091,2.3091,2.3091,2.3091,2.3091,2.3091,2.3091,2.3091,2.3091,2.3091,2.3091,2.3091,2.3091,2.3091,2.3091,2.3191,2.3396,2.3445,2.3555,2.3769,2.3789,2.3536,2.2837,2.17,2.0331,1.8686,2.0513,2.198,2.2617,2.4584,2.5693,2.5693,2.5693,2.5693,2.5693,2.5693,2.5693,2.5693,2.5693,2.5693,2.5693,2.5693,2.5232,2.433,2.215,2.0704,1.974,1.759,1.6613,1.6491,1.6351,1.6203,1.6025,1.5855,1.618,1.6803,2.45,2.3817,2.3337,2.3721,2.3789,2.3789,2.3789,2.3721,2.3545,2.314,2.3091,2.3091,2.3091,2.3091,2.3091,2.3091,2.3445,2.3525,2.312,2.3454,2.3516,2.311,2.3091,2.3091,2.3091,2.3091,2.3091,2.3091,2.5379,2.6504,2.6545,2.8752,2.9792,2.9792,2.9792,2.9415,2.8731,2.8279,2.7261,2.5775,2.416,2.3054,2.2256,2.106,2.0889,2.1318,2.122,2.1493,2.1954,2.2295,2.2178,2.1816,2.1435,2.1815,2.2353,2.207,2.2459,2.3003,2.3081,2.3091,2.3091,2.3091,2.3091,2.3091,2.3091,2.3091,2.3091,2.3091,2.3091,2.3091,2.3091,2.3091,2.3091,2.3091,2.3091,2.324,2.3633,2.3406,2.3337,2.3643,2.374,2.3046,2.1096,2.0909,2.0475,1.9347,2.0705,2.2114,2.3301,2.4839,2.5693,2.5693,2.5693,2.5693,2.5693,2.5693,2.5693,2.5693,2.5693,2.5693,2.5693,2.5693,2.5693,2.5543,2.2577,2.1296,2.1073,1.8082,1.6827,1.676,1.6538,1.6384,1.6264,1.5915,1.648,1.7412,2.3321,2.3526,2.3721,2.3779,2.3789,2.3789,2.3789,2.3445,2.3159,2.3101,2.3091,2.3091,2.3091,2.3091,2.3091,2.3091,2.3171,2.3159,2.3101,2.3171,2.3181,2.3091,2.3091,2.3091,2.3091,2.3091,2.3091,2.3091,2.5379,2.6504,2.6545,2.8752,2.9792,2.9792,2.9792,2.9214,2.8191,2.8134,2.7435,2.6246,2.4276,2.3661,2.3655,2.1441,2.1104,2.1748,2.1347,2.1493,2.1915,2.1953,2.1934,2.1896,2.1837,2.1896,2.2052,2.2334,2.251,2.2654,2.3003,2.3091,2.3091,2.3091,2.3091,2.3091,2.3091,2.3091,2.3091,2.3091,2.3091,2.3091,2.3091,2.3091,2.3091,2.3091,2.3091,2.311,2.3191,2.3496,2.3584,2.324,2.3555,2.2934,2.0699,2.0596,1.9866,1.8,1.9978,2.1462,2.1938,2.4353,2.5693,2.5693,2.5693,2.5693,2.5693,2.5693,2.5693,2.5693,2.5693,2.5693,2.5693,2.5693,2.5693,2.5552,2.2815,2.1627,2.1417,1.862,1.7341,1.7139,1.7099,1.677,1.6264,1.5915,1.592,1.6204,2.3091,2.3269,2.3406,2.3406,2.3406,2.3406,2.3406,2.324,2.3091,2.3091,2.3091,2.3091,2.3091,2.3091,2.3091,2.3091,2.3091,2.3091,2.3091,2.3091,2.3091,2.3091,2.3347,2.3367,2.3101,2.3943,2.426,2.4049,2.5704,2.6801,2.7432,2.904,2.9792,2.9792,2.9792,2.9164,2.8109,2.8109,2.7487,2.6319,2.4307,2.378,2.3958,2.1764,2.1475,2.2246,2.2264,2.2098,2.1963,2.2432,2.241,2.2236,2.2236,2.2402,2.2557,2.2508,2.2654,2.2857,2.3042,2.3091,2.3091,2.3091,2.3091,2.3159,2.3425,2.3496,2.3496,2.3496,2.3288,2.3169,2.3435,2.3279,2.3091,2.3091,2.3091,2.3091,2.3091,2.3279,2.3425,2.3474,2.3001,2.2158,2.0866,2.0123,1.9421,1.8776,1.969,2.0704,2.1643,2.2818,2.3459,2.3459,2.3459,2.3459,2.3459,2.3459,2.3459,2.3459,2.3459,2.4254,2.5659,2.4913,2.4584,2.4427,2.171,2.0538,2.0359,1.8401,1.7535,1.7388,1.7053,1.6547,1.6012,1.5855,1.6244,1.6943]},{"header":{"parameterUnit":"m.s-1","parameterCategory":1,"la1":30.6,"la2":28.766,"lo1":-90.7593,"lo2":-88.6598,"dy":0.0162,"dx":0.0183,"nx":116,"ny":114,"refTime":"2023-08-29T06:00:00:Z","depth":0,"parameterNumber":3,"parameterNumberName":"V-component_of_WINDS"},"data":[0.0,0.0,0.0,0.0,0.0,0.0,0.0,0.0,0.0,0.0,0.0,0.0,0.0,0.0,0.0,0.0,0.0,0.0,0.0,0.0,0.0,0.0,0.0,0.0,0.0,0.0,0.0,0.0,0.0,0.0,0.0,0.0,0.0,0.0,0.0,0.0,0.0,0.0,0.0,0.0,0.0,0.0,0.0,0.0,0.0,0.0,0.0,0.0,0.0,0.0,0.0,0.0,0.0,0.0,0.0,0.0,0.0,0.0,0.0,0.0,0.0,0.0,0.0,0.0,0.0,0.0,0.0,0.0,0.0,0.0,0.0,0.0,0.0,0.0,0.0,0.0,0.0,0.0,0.0,0.0,0.0,0.0,0.0,0.0,0.0,0.0,0.0,0.0,0.0,0.0,0.0,0.0,0.0,0.0,0.0,0.0,0.0,0.0,0.0,0.0,0.0,0.0,0.0,0.0,0.0,0.0,0.0,0.0,0.0,0.0,0.0,0.0,0.0,0.0,0.0,0.0,0.0,0.0,0.0,0.0,0.0,0.0,0.0,0.0,0.0,0.0,0.0,0.0,0.0,0.0,0.0,0.0,0.0,0.0,0.0,0.0,0.0,0.0,0.0,0.0,0.0,0.0,0.0,0.0,0.0,0.0,0.0,0.0,0.0,0.0,0.0,0.0,0.0,0.0,0.0,0.0,0.0,0.0,0.0,0.0,0.0,0.0,0.0,0.0,0.0,0.0,0.0,0.0,0.0,0.0,0.0,0.0,0.0,0.0,0.0,0.0,0.0,0.0,0.0,0.0,0.0,0.0,0.0,0.0,0.0,0.0,0.0,0.0,0.0,0.0,0.0,0.0,0.0,0.0,0.0,0.0,0.0,0.0,0.0,0.0,0.0,0.0,0.0,0.0,0.0,0.0,0.0,0.0,0.0,0.0,0.0,0.0,0.0,0.0,0.0,0.0,0.0,0.0,0.0,0.0,0.0,0.0,0.0,0.0,0.0,0.0,0.0,0.0,0.0,0.0,0.0,0.0,0.0,0.0,0.0,0.0,0.0,0.0,0.0,0.0,0.0,0.0,0.0,0.0,0.0,0.0,0.0,0.0,0.0,0.0,0.0,0.0,0.0,0.0,0.0,0.0,0.0,0.0,0.0,0.0,0.0,0.0,0.0,0.0,0.0,0.0,0.0,0.0,0.0,0.0,0.0,0.0,0.0,0.0,0.0,0.0,0.0,0.0,0.0,0.0,0.0,0.0,0.0,0.0,0.0,0.0,0.0,0.0,0.0,0.0,0.0,0.0,0.0,0.0,0.0,0.0,0.0,0.0,0.0,0.0,0.0,0.0,0.0,0.0,0.0,0.0,0.0,0.0,0.0,0.0,0.0,0.0,0.0,0.0,0.0,0.0,0.0,0.0,0.0,0.0,0.0,0.0,0.0,0.0,0.0,0.0,0.0,0.0,0.0,0.0,0.0,0.0,0.0,0.0,0.0,0.0,0.0,0.0,0.0,0.0,0.0,0.0,0.0,0.0,0.0,0.0,0.0,0.0,0.0,0.0,0.0,0.0,0.0,0.0,0.0,0.0,0.0,0.0,0.0,0.0,0.0,0.0,0.0,0.0,0.0,0.0,0.0,0.0,0.0,0.0,0.0,0.0,0.0,0.0,0.0,0.0,0.0,0.0,0.0,0.0,0.0,0.0,0.0,0.0,0.0,0.0,0.0,0.0,0.0,0.0,0.0,0.0,0.0,0.0,0.0,0.0,0.0,0.0,0.0,0.0,0.0,0.0,0.0,0.0,0.0,0.0,0.0,0.0,0.0,0.0,0.0,0.0,0.0,0.0,0.0,0.0,0.0,0.0,0.0,0.0,0.0,0.0,0.0,0.0,0.0,0.0,0.0,0.0,0.0,0.0,0.0,0.0,0.0,0.0,0.0,0.0,0.0,0.0,0.0,0.0,0.0,0.0,0.0,0.0,0.0,0.0,0.0,0.0,0.0,0.0,0.0,0.0,0.0,0.0,0.0,0.0,0.0,0.0,0.0,0.0,0.0,0.0,0.0,0.0,0.0,0.0,0.0,0.0,0.0,0.0,0.0,0.0,0.0,0.0,0.0,0.0,0.0,0.0,0.0,0.0,0.0,0.0,0.0,0.0,0.0,0.0,0.0,0.0,0.0,0.0,0.0,0.0,0.0,0.0,0.0,0.0,0.0,0.0,0.0,0.0,0.0,0.0,0.0,0.0,0.0,0.0,0.0,0.0,0.0,0.0,0.0,0.0,0.0,0.0,0.0,0.0,0.0,0.0,0.0,0.0,0.0,0.0,0.0,0.0,0.0,0.0,0.0,0.0,0.0,0.0,0.0,0.0,0.0,0.0,0.0,0.0,0.0,0.0,0.0,0.0,0.0,0.0,0.0,0.0,0.0,0.0,0.0,0.0,0.0,0.0,0.0,0.0,0.0,0.0,0.0,0.0,0.0,0.0,0.0,0.0,0.0,0.0,0.0,0.0,0.0,0.0,0.0,0.0,0.0,0.0,0.0,0.0,0.0,0.0,0.0,0.0,0.0,0.0,0.0,0.0,0.0,0.0,0.0,0.0,0.0,0.0,0.0,0.0,0.0,0.0,0.0,0.0,0.0,0.0,0.0,0.0,0.0,0.0,0.0,0.0,0.0,0.0,0.0,0.0,0.0,0.0,0.0,0.0,0.0,0.0,0.0,0.0,0.0,0.0,0.0,0.0,0.0,0.0,0.0,0.0,0.0,0.0,0.0,0.0,0.0,0.0,0.0,0.0,0.0,0.0,0.0,0.0,0.0,0.0,0.0,0.0,0.0,0.0,0.0,0.0,0.0,0.0,0.0,0.0,0.0,0.0,0.0,0.0,0.0,0.0,0.0,0.0,0.0,0.0,0.0,0.0,0.0,0.0,0.0,0.0,0.0,0.0,0.0,0.0,0.0,0.0,0.0,0.0,0.0,0.0,0.0,0.0,0.0,0.0,0.0,0.0,0.0,0.0,0.0,0.0,0.0,0.0,0.0,0.0,0.0,0.0,0.0,0.0,0.0,0.0,0.0,0.0,0.0,0.0,0.0,0.0,0.0,0.0,0.0,0.0,0.0,0.0,0.0,0.0,0.0,0.0,0.0,0.0,0.0,0.0,0.0,0.0,0.0,0.0,0.0,0.0,0.0,0.0,0.0,0.0,0.0,0.0,0.0,0.0,0.0,0.0,0.0,0.0,0.0,0.0,0.0,0.0,0.0,0.0,0.0,0.0,0.0,0.0,0.0,0.0,0.0,0.0,0.0,0.0,0.0,0.0,0.0,0.0,0.0,0.0,0.0,0.0,0.0,0.0,0.0,0.0,0.0,0.0,0.0,0.0,0.0,0.0,0.0,0.0,0.0,0.0,0.0,0.0,0.0,0.0,0.0,0.0,0.0,0.0,0.0,0.0,0.0,0.0,0.0,0.0,0.0,0.0,0.0,0.0,0.0,0.0,0.0,0.0,0.0,0.0,0.0,0.0,0.0,0.0,0.0,0.0,0.0,0.0,0.0,0.0,0.0,0.0,0.0,0.0,0.0,0.0,0.0,0.0,0.0,0.0,0.0,0.0,0.0,0.0,0.0,0.0,0.0,0.0,0.0,0.0,0.0,0.0,0.0,0.0,0.0,0.0,0.0,0.0,0.0,0.0,0.0,0.0,0.0,0.0,0.0,0.0,0.0,0.0,0.0,0.0,0.0,0.0,0.0,0.0,0.0,0.0,0.0,0.0,0.0,0.0,0.0,0.0,0.0,0.0,0.0,0.0,0.0,0.0,0.0,0.0,0.0,0.0,0.0,0.0,0.0,0.0,0.0,0.0,0.0,0.0,0.0,0.0,0.0,0.0,0.0,0.0,0.0,0.0,0.0,0.0,0.0,0.0,0.0,0.0,0.0,0.0,0.0,0.0,0.0,0.0,0.0,0.0,0.0,0.0,0.0,0.0,0.0,0.0,0.0,0.0,0.0,0.0,0.0,0.0,0.0,0.0,0.0,0.0,0.0,0.0,0.0,0.0,0.0,0.0,0.0,0.0,0.0,0.0,0.0,0.0,0.0,0.0,0.0,0.0,0.0,0.0,0.0,0.0,0.0,0.0,0.0,0.0,0.0,0.0,0.0,0.0,0.0,0.0,0.0,0.0,0.0,0.0,0.0,0.0,0.0,0.0,0.0,0.0,0.0,0.0,0.0,0.0,0.0,0.0,0.0,0.0,0.0,0.0,0.0,0.0,0.0,0.0,0.0,0.0,0.0,0.0,0.0,0.0,0.0,0.0,0.0,0.0,0.0,0.0,0.0,0.0,0.0,0.0,0.0,0.0,0.0,0.0,0.0,0.0,0.0,0.0,0.0,0.0,0.0,0.0,0.0,0.0,0.0,0.0,0.0,0.0,0.0,0.0,0.0,0.0,0.0,0.0,0.0,0.0,0.0,0.0,0.0,0.0,0.0,0.0,0.0,0.0,0.0,0.0,0.0,0.0,0.0,0.0,0.0,0.0,0.0,0.0,0.0,0.0,0.0,0.0,0.0,0.0,0.0,0.0,0.0,0.0,0.0,0.0,0.0,0.0,0.0,0.0,0.0,0.0,0.0,0.0,0.0,0.0,0.0,0.0,0.0,0.0,0.0,0.0,0.0,0.0,0.0,0.0,0.0,0.0,0.0,0.0,0.0,0.0,0.0,0.0,0.0,0.0,0.0,0.0,0.0,0.0,0.0,0.0,0.0,0.0,0.0,0.0,0.0,0.0,0.0,0.0,0.0,0.0,0.0,0.0,0.0,0.0,0.0,0.0,0.0,0.0,0.0,0.0,0.0,0.0,0.0,0.0,0.0,0.0,0.0,0.0,0.0,0.0,0.0,0.0,0.0,0.0,0.0,0.0,0.0,0.0,0.0,0.0,0.0,0.0,0.0,0.0,0.0,0.0,0.0,0.0,0.0,0.0,0.0,0.0,0.0,0.0,0.0,0.0,0.0,0.0,0.0,0.0,0.0,0.0,0.0,0.0,0.0,0.0,0.0,0.0,0.0,0.0,0.0,0.0,0.0,0.0,0.0,0.0,0.0,0.0,0.0,0.0,0.0,0.0,0.0,0.0,0.0,0.0,0.0,0.0,0.0,0.0,0.0,0.0,0.0,0.0,0.0,0.0,0.0,0.0,0.0,0.0,0.0,0.0,0.0,0.0,0.0,0.0,0.0,0.0,0.0,0.0,0.0,0.0,0.0,0.0,0.0,0.0,0.0,0.0,0.0,0.0,0.0,0.0,0.0,0.0,0.0,0.0,0.0,0.0,0.0,0.0,0.0,0.0,0.0,0.0,0.0,0.0,0.0,0.0,0.0,0.0,0.0,0.0,0.0,0.0,0.0,0.0,0.0,0.0,0.0,0.0,0.0,0.0,0.0,0.0,0.0,0.0,0.0,0.0,0.0,0.0,0.0,0.0,0.0,0.0,0.0,0.0,0.0,0.0,0.0,0.0,0.0,0.0,0.0,0.0,0.0,0.0,0.0,0.0,0.0,0.0,0.0,0.0,0.0,0.0,0.0,0.0,0.0,0.0,0.0,0.0,0.0,0.0,0.0,0.0,0.0,0.0,0.0,0.0,0.0,0.0,0.0,0.0,0.0,0.0,0.0,0.0,0.0,0.0,0.0,0.0,0.0,0.0,0.0,0.0,0.0,0.0,0.0,0.0,0.0,0.0,0.0,0.0,0.0,0.0,0.0,0.0,0.0,0.0,0.0,0.0,0.0,0.0,0.0,0.0,0.0,0.0,0.0,0.0,0.0,0.0,0.0,0.0,0.0,0.0,0.0,0.0,0.0,0.0,0.0,0.0,0.0,0.0,0.0,0.0,0.0,0.0,0.0,0.0,0.0,0.0,0.0,0.0,0.0,0.0,0.0,0.0,0.0,0.0,0.0,0.0,0.0,0.0,0.0,0.0,0.0,0.0,0.0,0.0,0.0,0.0,0.0,0.0,0.0,0.0,0.0,0.0,0.0,0.0,0.0,0.0,0.0,0.0,0.0,0.0,0.0,0.0,0.0,0.0,0.0,0.0,0.0,0.0,0.0,0.0,0.0,0.0,0.0,0.0,0.0,0.0,2.6826,2.6615,0.0,0.0,0.0,0.0,0.0,0.0,0.0,0.0,0.0,0.0,0.0,0.0,0.0,0.0,0.0,0.0,0.0,0.0,0.0,0.0,0.0,0.0,0.0,0.0,0.0,0.0,0.0,0.0,0.0,0.0,0.0,0.0,0.0,0.0,0.0,0.0,0.0,0.0,1.6763,1.65,1.6511,1.6763,1.6752,1.65,0.0,0.0,0.0,0.0,0.0,0.0,0.0,0.0,0.0,0.0,0.0,0.0,0.0,0.0,0.0,0.0,0.0,0.0,0.0,0.0,0.0,0.0,0.0,0.0,0.0,0.0,0.0,0.0,0.0,0.0,0.0,0.0,0.0,0.0,0.0,0.0,0.0,0.0,0.0,0.0,0.0,0.0,0.0,0.0,0.0,0.0,0.0,0.0,0.0,0.0,0.0,0.0,0.0,0.0,0.0,0.0,0.0,0.0,0.0,0.0,0.0,0.0,0.0,0.0,0.0,0.0,0.0,0.0,0.0,0.0,2.8805,2.7706,0.0,0.0,0.0,0.0,0.0,0.0,0.0,0.0,0.0,0.0,0.0,0.0,0.0,0.0,0.0,0.0,0.0,0.0,0.0,0.0,0.0,0.0,0.0,0.0,1.779,1.843,1.848,1.848,0.0,0.0,0.0,0.0,0.0,0.0,0.0,1.7914,1.7802,1.8066,1.7113,1.6764,1.6959,1.7405,1.7436,1.7121,1.6884,0.0,0.0,0.0,0.0,0.0,0.0,0.0,0.0,0.0,0.0,0.0,0.0,0.0,0.0,0.0,0.0,0.0,0.0,0.0,0.0,0.0,0.0,0.0,0.0,0.0,0.0,0.0,0.0,0.0,0.0,0.0,0.0,0.0,0.0,0.0,0.0,0.0,0.0,0.0,0.0,0.0,0.0,0.0,0.0,0.0,0.0,0.0,0.0,0.0,0.0,0.0,0.0,0.0,0.0,0.0,0.0,0.0,0.0,0.0,0.0,0.0,0.0,0.0,3.3089,3.3535,3.3998,3.4123,3.3778,3.3004,3.1647,2.9693,2.752,2.7993,0.0,0.0,0.0,0.0,0.0,0.0,0.0,0.0,0.0,0.0,0.0,0.0,0.0,0.0,0.0,0.0,0.0,0.0,0.0,0.0,0.0,1.8091,1.8505,1.951,1.9597,1.9597,0.0,0.0,0.0,0.0,0.0,0.0,1.8907,1.882,1.8368,1.7511,1.7349,1.7781,1.8758,1.8825,1.915,1.9567,1.8402,1.8295,1.8992,0.0,0.0,0.0,0.0,0.0,0.0,0.0,0.0,0.0,0.0,0.0,0.0,0.0,0.0,0.0,0.0,0.0,0.0,0.0,0.0,0.0,0.0,0.0,0.0,0.0,0.0,0.0,0.0,0.0,0.0,0.0,0.0,0.0,0.0,0.0,0.0,0.0,0.0,0.0,0.0,0.0,2.856,2.8199,0.0,0.0,0.0,0.0,0.0,0.0,0.0,0.0,0.0,0.0,0.0,0.0,0.0,3.2371,3.2856,3.4293,3.4748,3.4229,3.6214,3.6874,3.6361,3.7009,3.6891,3.6169,3.5256,0.0,3.0557,3.0014,0.0,0.0,0.0,0.0,0.0,0.0,0.0,0.0,0.0,0.0,0.0,0.0,0.0,0.0,0.0,0.0,0.0,0.0,0.0,0.0,0.0,1.8204,1.8631,1.971,1.9798,1.9798,1.9798,1.9798,0.0,0.0,0.0,1.9685,1.9447,1.9146,1.877,1.8304,1.8593,1.9043,1.9598,1.9571,1.9904,2.0542,2.0252,2.0121,2.013,2.0364,0.0,0.0,0.0,0.0,0.0,0.0,0.0,0.0,0.0,0.0,0.0,0.0,0.0,0.0,0.0,0.0,0.0,0.0,0.0,0.0,0.0,0.0,0.0,0.0,0.0,0.0,0.0,0.0,0.0,0.0,0.0,0.0,0.0,0.0,0.0,0.0,0.0,0.0,0.0,2.9724,3.0456,2.9393,3.0482,3.0656,0.0,0.0,0.0,0.0,0.0,0.0,0.0,0.0,0.0,3.311,3.4245,3.4973,3.5312,3.6355,3.6941,3.7038,3.8041,3.8577,3.8674,3.8983,3.873,3.8019,3.7652,3.6541,3.481,3.2797,3.2586,3.3522,0.0,0.0,0.0,0.0,3.5017,3.5279,0.0,0.0,0.0,0.0,0.0,0.0,0.0,0.0,0.0,0.0,0.0,0.0,1.8078,1.8204,1.8631,1.971,1.9798,1.9748,1.9597,1.9723,0.0,0.0,1.9736,1.9874,2.0037,1.9635,1.9497,1.9647,2.0092,2.0524,2.0913,2.1061,2.147,2.2125,2.2526,2.2202,2.1364,2.1364,2.1191,2.0967,0.0,0.0,0.0,0.0,0.0,0.0,0.0,0.0,0.0,0.0,0.0,0.0,0.0,0.0,0.0,0.0,0.0,0.0,0.0,0.0,0.0,0.0,0.0,0.0,0.0,0.0,0.0,0.0,0.0,0.0,0.0,0.0,0.0,0.0,0.0,0.0,0.0,3.1481,3.2317,3.0835,3.2317,3.2655,0.0,0.0,0.0,0.0,0.0,0.0,3.3118,3.4039,3.473,3.5113,3.6587,3.7455,3.7642,3.8188,3.8734,3.9288,3.9288,3.9559,4.0096,4.0096,3.9795,3.9271,3.9085,3.8802,3.8244,3.5436,3.4966,3.6032,3.5825,3.6539,3.768,3.8104,3.8162,3.8148,0.0,0.0,0.0,0.0,0.0,0.0,0.0,0.0,0.0,0.0,0.0,1.6926,1.8078,1.8204,1.8631,1.971,1.9798,1.9585,1.907,1.9509,1.956,1.9058,1.9522,2.0075,2.0641,2.0629,2.0854,2.1369,2.1589,2.2291,2.3439,2.4138,2.4783,2.5359,2.5382,2.4362,2.2612,2.2612,2.2248,2.1704,2.2343,0.0,0.0,0.0,0.0,0.0,0.0,0.0,0.0,0.0,0.0,0.0,0.0,0.0,0.0,0.0,0.0,0.0,0.0,0.0,0.0,0.0,0.0,0.0,0.0,0.0,0.0,0.0,0.0,0.0,0.0,0.0,0.0,0.0,0.0,0.0,0.0,0.0,0.0,3.2361,3.4781,0.0,0.0,0.0,0.0,3.3669,3.4178,3.5101,3.6471,3.6614,3.7302,3.8693,3.8836,3.9237,3.9926,3.9977,4.0011,4.0045,4.0045,4.0062,4.0096,4.0096,4.0079,4.0011,3.9305,3.9389,3.9808,3.7557,3.7078,3.7699,3.6999,3.7467,3.8465,3.7881,3.8669,3.9869,0.0,0.0,0.0,0.0,0.0,0.0,0.0,0.0,1.6636,1.7024,1.7085,1.7501,1.8606,1.8707,1.9008,1.9748,1.9484,1.9196,1.9008,1.9171,1.9346,1.9509,2.0075,2.064,2.1193,2.1895,2.2169,2.202,2.3337,2.4025,2.4128,2.4905,2.5611,2.6243,2.6243,2.5866,2.5177,2.4747,2.4178,2.3554,2.3366,2.2996,0.0,0.0,0.0,0.0,0.0,0.0,0.0,0.0,0.0,0.0,0.0,0.0,0.0,0.0,0.0,0.0,0.0,0.0,0.0,0.0,0.0,0.0,0.0,0.0,0.0,0.0,0.0,0.0,0.0,0.0,0.0,0.0,0.0,0.0,0.0,0.0,0.0,3.4556,3.6248,0.0,3.5076,3.6021,3.7057,3.7806,3.848,3.9312,4.029,4.0337,4.0574,4.1115,4.1132,4.1251,4.1504,4.1521,4.1521,4.1521,4.1521,4.1521,4.1504,4.1018,4.0798,4.0764,4.0032,3.9846,4.0079,3.9762,3.9708,3.98,3.9536,3.9937,4.069,4.0821,4.1277,4.1783,0.0,0.0,0.0,0.0,0.0,0.0,0.0,0.0,1.6915,1.7334,1.741,1.7814,1.8882,1.9008,1.9221,1.9761,1.9472,1.9271,1.9271,1.9459,1.9736,2.0088,2.1005,2.1683,2.2019,2.3108,2.3496,2.3135,2.4985,2.5682,2.537,2.6442,2.719,2.7602,2.7602,2.7602,2.7587,2.7153,2.6171,2.4918,2.4702,2.4612,2.4492,0.0,0.0,0.0,0.0,0.0,0.0,0.0,0.0,0.0,0.0,0.0,0.0,0.0,0.0,0.0,0.0,0.0,0.0,0.0,0.0,0.0,0.0,0.0,0.0,0.0,0.0,0.0,0.0,0.0,0.0,0.0,0.0,0.0,0.0,3.6958,3.7618,3.6845,3.8536,3.9377,3.8391,3.9411,4.0574,4.1538,4.208,4.2557,4.3044,4.3078,4.3078,4.3078,4.3078,4.2959,4.2675,4.2675,4.254,4.23,4.23,4.23,4.2283,4.1779,4.1576,4.1542,4.1048,4.0828,4.0904,4.161,4.1825,4.1688,4.1461,4.1741,4.2388,4.2965,4.331,4.3603,0.0,0.0,0.0,0.0,0.0,0.0,0.0,1.7315,1.7353,1.7415,1.7449,1.7877,1.8945,1.907,1.9284,1.9811,1.9823,1.9811,1.9823,2.0378,2.0745,2.0848,2.234,2.3175,2.3228,2.4264,2.4829,2.4861,2.6478,2.7249,2.7267,2.8905,2.9653,2.9653,2.9683,2.9683,2.9683,2.9683,2.8186,2.5842,2.6435,2.6659,2.6584,0.0,0.0,0.0,0.0,0.0,0.0,0.0,0.0,0.0,0.0,0.0,0.0,0.0,0.0,0.0,0.0,0.0,0.0,0.0,0.0,0.0,0.0,0.0,0.0,0.0,0.0,0.0,0.0,0.0,0.0,0.0,0.0,0.0,3.7961,3.9246,3.9906,3.9208,4.1681,4.2882,4.1491,4.3349,4.4635,4.4682,4.4682,4.4682,4.4682,4.4682,4.4682,4.4682,4.4682,4.4296,4.3507,4.3507,4.3149,4.2418,4.2435,4.2435,4.2418,4.2384,4.2367,4.2367,4.2317,4.2313,4.2392,4.307,4.3367,4.3301,4.2624,4.2762,4.3383,4.3937,4.4546,4.519,0.0,0.0,0.0,0.0,0.0,0.0,0.0,1.7671,1.7967,1.7984,1.8656,1.9422,2.015,2.059,2.0865,2.1016,2.0275,1.9987,2.0427,2.0733,2.1888,2.4069,2.4411,2.496,2.5827,2.5535,2.5684,2.6319,2.78,2.8369,2.8111,3.007,3.0987,3.1002,3.148,3.1704,3.1704,3.1704,3.1002,2.9762,2.8547,2.8053,2.7979,0.0,0.0,0.0,0.0,0.0,0.0,0.0,0.0,0.0,0.0,0.0,0.0,0.0,0.0,0.0,0.0,0.0,0.0,0.0,0.0,0.0,0.0,0.0,0.0,0.0,0.0,0.0,0.0,0.0,0.0,0.0,3.8836,4.0104,3.9576,4.0777,4.183,4.2155,4.342,4.433,4.4437,4.5026,4.5618,4.6157,4.6208,4.6208,4.6208,4.6208,4.6208,4.6208,4.6208,4.609,4.5872,4.5872,4.55,4.4773,4.5314,4.528,4.4756,4.4212,4.3958,4.3907,4.279,4.2585,4.3135,4.4437,4.4885,4.4671,4.3962,4.3798,4.4028,4.4618,4.519,4.5699,0.0,0.0,0.0,0.0,0.0,0.0,0.0,1.8298,1.8596,1.8902,1.9458,2.0024,2.0629,2.0981,2.1155,2.1155,2.0752,2.0787,2.1453,2.2604,2.4162,2.6175,2.659,2.7103,2.7807,2.7851,2.798,2.8196,2.9634,3.0225,3.0027,3.1605,3.2347,3.2347,3.2751,3.2916,3.2916,3.2916,3.2691,3.2243,3.1106,3.0477,3.0163,2.949,2.9413,2.9578,2.9024,2.8904,2.8859,2.7812,0.0,0.0,0.0,0.0,0.0,0.0,0.0,0.0,0.0,0.0,0.0,0.0,0.0,0.0,0.0,0.0,0.0,0.0,0.0,0.0,0.0,0.0,0.0,0.0,4.1411,4.3047,4.2926,4.3382,4.4113,4.5164,4.5974,4.6733,4.7462,4.7819,4.8174,4.8612,4.8646,4.8646,4.8646,4.8646,4.8646,4.8646,4.8342,4.802,4.7716,4.7428,4.6887,4.616,4.6599,4.6583,4.6143,4.5717,4.5665,4.5901,4.4994,4.4988,4.5716,4.6522,4.6986,4.7126,0.0,0.0,0.0,0.0,4.7186,4.7398,0.0,0.0,0.0,0.0,0.0,0.0,0.0,1.9104,1.9358,2.0003,2.009,2.0279,2.0743,2.0842,2.0882,2.0887,2.1406,2.2149,2.3098,2.5342,2.6972,2.7745,2.8789,2.9397,2.9551,3.0503,3.0793,3.0353,3.1591,3.2251,3.2363,3.322,3.3604,3.362,3.3679,3.3724,3.3724,3.3634,3.3604,3.3604,3.3604,3.3215,3.2542,3.1944,3.2093,3.2452,3.127,3.0551,3.0042,2.928,0.0,0.0,0.0,0.0,0.0,0.0,0.0,0.0,0.0,0.0,0.0,0.0,0.0,0.0,0.0,0.0,0.0,0.0,0.0,0.0,0.0,0.0,0.0,0.0,4.4164,4.6329,4.7056,4.6684,4.6771,4.8005,4.88,4.9509,5.0167,5.0812,5.1201,5.1201,5.1201,5.1201,5.1201,5.1201,0.0,0.0,0.0,4.9779,4.9137,4.8394,4.765,4.6921,4.702,4.7048,4.7034,4.7034,4.7415,4.8047,4.796,4.8342,4.8989,4.892,4.9382,5.0109,4.9388,4.9016,4.8931,4.9523,4.9684,4.95,0.0,0.0,0.0,0.0,0.0,0.0,0.0,1.9857,2.0484,2.063,2.138,2.1752,2.1387,2.1732,2.2006,2.2069,2.2757,2.4163,2.6473,2.751,2.8813,3.0616,3.0767,3.1274,3.2301,3.1469,3.1491,3.2499,3.2294,3.2568,3.3253,3.3961,3.4308,3.4323,3.4861,3.5115,3.5085,3.4533,3.4308,3.4308,3.4308,3.3904,3.329,3.3155,3.3185,3.3275,3.3006,3.32,3.3365,3.2153,3.1674,3.145,3.0763,2.9864,0.0,0.0,0.0,0.0,0.0,0.0,0.0,0.0,0.0,0.0,0.0,0.0,0.0,0.0,0.0,0.0,0.0,0.0,0.0,4.4485,4.6819,4.8612,4.9372,4.9847,5.0017,4.9712,5.0338,5.0829,5.0964,5.1116,5.1201,5.1201,5.1201,5.1201,5.1201,5.1201,5.1201,5.1201,5.0473,5.0032,4.9897,4.9154,4.8411,4.7684,4.8291,0.0,4.8487,4.8487,4.8883,4.9535,4.8955,4.9036,4.9672,5.0283,5.1332,5.2395,5.0983,5.042,5.0385,5.0523,5.017,4.9665,0.0,0.0,0.0,0.0,0.0,0.0,0.0,2.082,2.1866,2.2209,2.2627,2.269,2.2116,2.1958,2.1935,2.1983,2.3592,2.5709,2.8281,2.9389,3.0717,3.2422,3.2729,3.3145,3.3789,3.3433,3.3416,3.3803,3.382,3.406,3.4517,3.4831,3.5012,3.5027,3.5355,3.5504,3.5489,3.513,3.5012,3.5012,3.5012,3.4801,3.4502,3.4502,3.4502,3.4502,3.4502,3.4503,3.4398,3.3739,3.3275,3.2871,3.2213,3.1555,3.0971,0.0,0.0,0.0,0.0,0.0,0.0,0.0,0.0,0.0,0.0,0.0,0.0,0.0,0.0,4.0467,4.1684,0.0,4.572,4.7597,4.9137,5.0371,5.1099,5.1522,5.1623,5.1234,5.1539,5.1894,5.23,5.2351,5.2351,5.2351,5.2351,5.2351,5.2351,5.2351,5.2351,5.2351,5.1606,5.12,5.12,5.0101,4.9373,4.9001,4.9784,5.0132,5.0107,5.0449,5.0995,5.1607,5.085,5.0882,5.1519,5.193,5.2294,5.2564,5.216,5.2003,5.1948,5.1555,5.1143,5.0794,0.0,0.0,0.0,0.0,0.0,0.0,0.0,2.1434,2.2641,2.3538,2.3386,2.3037,2.2586,2.2018,2.1867,2.2348,2.4486,2.692,2.9552,3.0969,3.2288,3.3649,3.4338,3.4682,3.4682,3.522,3.5235,3.4682,3.5235,3.5504,3.5504,3.5639,3.5699,3.5699,3.5818,3.5878,3.5878,3.5878,3.5878,3.5878,3.5878,3.5804,3.5699,3.5699,3.5609,3.5504,3.5504,3.5145,3.4682,3.4682,3.4338,3.3784,3.3245,3.2991,3.2677,3.1584,3.157,0.0,0.0,0.0,0.0,0.0,0.0,0.0,0.0,3.8321,3.9522,3.9917,4.1923,4.4164,4.6007,4.7549,4.8986,5.0304,5.1166,5.1844,5.2452,5.2536,5.2536,5.2536,5.2536,5.279,5.345,5.3501,5.3551,5.3701,5.3584,5.3551,5.3718,5.3584,5.3501,5.3501,5.2723,5.23,5.23,5.098,5.0382,5.0552,5.12,5.1665,5.1945,5.2329,5.2862,5.347,5.2661,5.2651,5.3196,5.3196,5.2821,5.2307,5.3133,5.3434,5.3343,5.2527,5.2123,5.1932,0.0,0.0,0.0,0.0,0.0,0.0,0.0,0.0,2.1603,2.3222,2.2897,2.246,2.2345,2.2304,2.3084,2.5072,2.6016,2.7833,3.1038,3.1974,3.2991,3.4323,3.5026,3.5385,3.5385,3.5474,3.5474,3.5385,3.5474,3.5504,3.5519,3.6103,3.6389,3.6419,3.6956,3.7195,3.7195,3.7195,3.7195,3.7195,3.7195,3.6866,3.6389,3.6389,3.6013,3.5504,3.5504,3.5459,3.5385,3.5385,3.534,3.5265,3.519,3.4772,3.4248,3.4099,3.3679,3.326,3.3185,3.3291,3.4227,3.7665,3.8094,3.9019,0.0,4.5129,4.5201,4.6528,4.7586,4.8325,4.8578,4.9831,5.11,5.1928,5.2723,5.3281,5.3365,5.3365,5.3365,5.3365,5.3365,5.3399,5.3501,5.3501,5.3783,5.4437,5.3864,5.38,5.4435,5.3865,5.3501,5.3501,5.2723,5.23,5.23,5.1488,5.1445,5.2139,5.2228,5.2958,5.4212,5.35,5.3583,5.4228,5.344,5.3114,5.3196,5.3196,5.3159,5.3141,5.3959,5.4271,5.4179,5.3361,5.2619,5.2097,0.0,0.0,0.0,0.0,0.0,0.0,0.0,0.0,0.0,2.2941,2.2708,2.2525,2.2525,2.2569,2.327,2.4974,2.6372,2.8412,3.1316,3.2482,3.3679,3.5011,3.5355,3.5504,3.5504,3.5504,3.5504,3.5504,3.5504,3.5699,3.6088,3.6374,3.6686,3.703,3.73,3.7629,3.7973,3.7973,3.7973,3.7973,3.7973,3.7599,3.6985,3.6626,3.6329,3.5968,3.5206,3.516,0.0,3.5056,3.5175,3.5504,3.5504,3.504,3.4503,3.4503,3.4293,3.4267,3.5079,3.5952,3.7328,4.0205,4.1633,4.3099,4.6108,4.7225,4.7919,4.8968,5.049,5.1758,5.2181,5.3112,5.3923,5.4228,5.4549,5.4769,5.4769,5.4414,5.4143,5.4143,5.3754,5.3501,5.3501,5.4279,5.4551,5.4014,5.4075,5.4092,5.3963,5.3668,5.3501,5.3501,5.3179,5.301,5.301,5.2232,5.2227,5.304,5.3474,5.3997,5.4598,5.4643,5.4308,5.3673,5.3343,5.3196,5.3196,5.3196,5.3196,5.3287,5.4087,5.4399,5.4418,5.4546,5.4087,5.3445,0.0,0.0,0.0,0.0,0.0,0.0,0.0,0.0,0.0,0.0,2.2464,2.2481,2.289,2.2923,2.347,2.4837,2.6572,2.871,3.1331,3.2766,3.4098,3.5444,3.5504,3.5504,3.5504,3.5504,3.5594,3.5774,3.5774,3.6103,3.6746,3.6943,3.736,3.7956,3.8153,3.8601,3.9233,3.9233,3.9233,3.9218,3.9038,3.8556,3.7851,3.706,3.6522,3.6058,3.4907,3.4817,3.5115,3.4458,3.4563,3.4951,3.4951,3.4622,3.4263,3.4443,3.4781,3.5381,3.6847,3.8357,4.0087,4.2601,4.4698,4.6539,4.8003,4.9306,5.0507,5.1454,5.2959,5.4279,5.4803,5.5344,5.5699,5.5699,5.5699,5.5631,5.5428,5.4938,5.4515,5.4313,5.3822,5.3501,5.3501,5.4651,5.5109,5.4447,5.4517,5.4466,5.4123,5.372,5.3584,5.38,5.3799,5.3897,5.409,5.3524,5.3635,5.4443,5.4975,5.534,5.5547,5.5578,5.495,5.3849,5.3379,5.3453,5.3849,5.3618,5.3654,5.393,5.4748,5.506,5.517,5.597,5.5622,5.4693,0.0,0.0,0.0,0.0,0.0,0.0,0.0,0.0,0.0,0.0,0.0,0.0,0.0,2.3474,2.4041,2.5446,2.6824,2.871,3.1331,3.2766,3.4098,3.5444,3.5504,3.5504,3.5504,3.5504,3.5818,3.6479,3.6479,3.6776,3.7404,3.8033,3.8691,3.9376,4.0023,4.0666,4.1313,4.1313,4.1313,4.1254,4.0591,3.9948,3.9197,3.7866,3.6611,3.5444,3.4742,3.4503,3.4428,3.3769,3.3544,3.3559,3.3559,3.3544,3.3649,3.4308,3.5475,3.6863,3.8401,3.9913,4.175,4.4742,4.6661,4.8579,5.1476,5.2773,5.3788,5.5225,5.5581,5.5631,5.5665,5.5682,5.5699,5.5699,5.5699,5.5445,5.4718,5.46,5.4329,5.3619,5.3518,5.3501,5.3501,5.4194,5.5213,5.6609,5.5399,5.4889,5.5588,5.429,5.3832,5.4527,5.4575,5.4924,5.5621,5.5617,5.6,5.6799,5.6825,5.7192,5.7845,5.6308,5.5567,5.5438,5.3875,5.4087,5.5475,5.4693,5.4821,5.5603,5.6418,5.6719,5.6811,5.7629,5.6914,5.5456,0.0,0.0,0.0,0.0,0.0,0.0,0.0,0.0,0.0,0.0,0.0,0.0,0.0,0.0,0.0,0.0,2.6422,2.8051,3.0673,3.2093,3.344,3.4787,3.5265,3.5504,3.5504,3.5504,3.5609,3.5833,3.6267,3.6823,3.7417,3.8539,3.9406,4.0098,4.0756,4.1433,4.2066,4.2066,4.2066,4.2006,4.1328,4.0397,3.9212,3.7464,3.6252,3.531,0.0,3.317,3.308,3.2407,3.2467,3.2916,3.3365,3.32,3.3066,3.4286,3.6639,3.9086,4.0101,4.2539,4.5304,4.734,4.9358,5.1345,5.3366,5.4042,5.4651,5.6139,5.5649,5.5124,5.5614,5.5293,5.5141,5.5614,5.6105,5.6342,5.6089,5.5649,5.5057,5.4313,5.3805,5.3687,5.4177,5.4448,5.4805,5.5298,5.5837,5.6237,5.6478,5.603,5.5869,5.612,5.5613,5.5451,5.5692,5.5692,5.6104,5.6912,5.6843,5.6671,5.6393,5.5842,5.531,5.4803,5.4803,5.5108,5.5585,5.531,5.5365,5.5677,5.6492,5.6792,5.6902,5.7703,5.7648,5.6987,0.0,0.0,0.0,0.0,0.0,0.0,0.0,0.0,0.0,0.0,0.0,0.0,0.0,0.0,0.0,0.0,0.0,2.7872,3.0042,3.1195,3.2392,3.3739,3.4203,3.4531,3.4786,3.4786,3.5026,3.5504,3.5923,3.6567,3.7417,3.8524,3.9391,4.0083,4.0726,4.1553,4.2381,4.2156,4.2051,4.1976,4.1059,3.9888,3.8494,3.6791,3.5579,0.0,3.2781,3.1989,3.1719,3.1286,3.1435,3.1899,3.2572,3.3156,3.3952,3.5715,3.8402,4.1169,4.2693,4.5463,4.8274,4.9792,5.1665,5.345,5.4702,5.5192,5.5649,5.6596,5.5632,5.4735,5.5226,5.4465,5.4025,5.4786,5.531,5.5615,5.5615,5.5209,5.4752,5.4262,5.3788,5.3687,5.416,5.4448,5.4819,5.5348,5.634,5.7035,5.7318,5.7361,5.7363,5.7332,5.6837,5.6554,5.6522,5.6522,5.6781,5.7296,5.725,5.695,5.6448,5.6172,5.5904,5.5684,5.564,5.5934,5.6448,5.6143,5.6198,5.6521,5.7024,5.7226,5.7299,5.7813,5.7997,5.7813,0.0,0.0,0.0,0.0,0.0,0.0,0.0,0.0,0.0,0.0,0.0,0.0,0.0,0.0,0.0,0.0,0.0,0.0,2.9458,3.0118,3.1046,3.2392,3.2482,3.2811,3.3484,3.3499,3.4113,3.54,3.5429,3.6073,3.7285,3.8003,3.8691,3.9331,4.0019,4.1059,4.2201,4.1568,4.1283,4.1134,3.9828,3.8494,3.7148,3.5893,3.4607,3.332,3.1974,3.1107,3.0597,3.0553,3.0655,3.0892,3.1508,3.3645,3.6324,3.8524,4.0789,4.3205,4.608,4.85,5.0557,5.2046,5.3518,5.4786,5.553,5.624,5.6731,5.6647,5.5463,5.4397,5.433,5.3145,5.2469,5.3298,5.3551,5.3636,5.367,5.367,5.3653,5.3619,5.3619,5.3636,5.3669,5.4322,5.5331,5.6818,5.6986,5.74,5.8217,5.831,5.8277,5.821,5.8146,5.8059,5.7997,5.7997,5.7997,5.7997,5.7997,5.7978,5.7905,5.7189,5.7262,5.785,5.6374,5.6595,5.7941,5.7178,5.7317,5.7997,5.7997,5.7997,5.7997,5.7997,5.7997,5.7886,0.0,0.0,0.0,0.0,0.0,0.0,0.0,0.0,0.0,0.0,0.0,0.0,0.0,0.0,0.0,0.0,0.0,0.0,2.8771,2.9473,3.0402,3.169,3.2228,3.2811,3.3484,3.3499,3.3664,3.4008,3.4518,3.4922,3.5281,3.6896,3.7764,3.7956,3.9122,3.984,4.0157,3.9975,3.9619,3.9098,3.8257,3.715,3.5832,3.4517,3.3799,3.332,3.1974,3.1705,3.1914,3.1406,3.268,3.4485,3.4656,3.7073,4.0069,4.12,4.3887,4.6871,4.8736,5.0463,5.2114,5.3619,5.4296,5.4786,5.553,5.5851,5.5665,5.4583,5.3129,5.1725,5.0642,5.0557,5.1082,5.2384,5.4025,5.5327,5.5886,5.597,5.575,5.5192,5.5141,5.5383,5.5966,5.6207,5.6974,5.8531,5.8679,5.9268,6.0639,6.0148,5.9831,5.9798,5.864,5.8028,5.7997,5.7997,5.7997,5.7997,5.7997,5.7685,5.7123,5.7519,5.7483,5.7116,5.7299,5.7611,5.7978,5.7776,5.7813,5.7997,5.7997,5.7997,5.7997,5.7997,5.7997,5.796,0.0,0.0,0.0,0.0,0.0,0.0,0.0,0.0,0.0,0.0,0.0,0.0,0.0,0.0,0.0,0.0,0.0,0.0,0.0,2.85,2.9174,3.0179,3.0583,3.1106,3.1778,3.2048,3.2183,3.2183,3.2856,3.3185,3.3215,3.4591,3.5398,3.5729,3.6791,3.7584,3.8123,3.7806,3.7462,0.0,0.0,3.5355,3.4097,3.335,3.2886,3.2527,3.1765,3.2552,3.3997,3.4226,3.5182,3.6573,3.8183,4.0538,4.3063,4.4784,4.7224,4.9679,5.1183,5.2672,5.3991,5.4871,5.5091,5.4938,5.4329,5.4481,5.4025,5.1539,5.0356,4.9392,4.8257,4.8646,4.9627,5.1082,5.2959,5.46,5.5683,5.5835,5.5801,5.5716,5.6302,5.6746,5.6893,5.7831,5.8806,5.9763,5.9835,6.0335,6.1539,6.1511,6.1123,6.0407,5.952,5.8712,5.7997,5.7997,5.7997,5.7997,5.7997,5.7758,5.7336,5.7795,5.7758,5.7354,5.7795,5.7997,5.7997,5.7997,5.7997,5.7997,5.7997,5.7997,5.7997,5.7997,5.7997,5.7997,0.0,0.0,0.0,0.0,0.0,0.0,0.0,0.0,0.0,0.0,0.0,0.0,0.0,0.0,0.0,0.0,0.0,0.0,0.0,0.0,2.7899,2.8562,2.8607,2.8906,2.9578,3.0103,3.0342,3.0253,3.0837,3.1122,3.1137,3.1809,3.2467,3.3125,3.3799,3.4757,3.5789,3.522,3.4965,3.492,3.4338,3.341,3.2362,0.0,3.2049,3.166,3.1824,3.3513,3.5871,3.7561,3.8043,3.8469,4.1794,4.3939,4.58,4.8612,5.0406,5.1844,5.3365,5.4718,5.5716,5.5817,5.5767,5.5107,5.2824,5.2756,5.2131,4.8377,4.7616,4.7346,4.6498,4.7124,4.8259,4.983,5.1336,5.2942,5.4769,5.4938,5.5158,5.5902,5.726,5.793,5.7432,5.9306,6.0634,6.0788,6.0801,6.1085,6.1734,6.2328,6.1893,6.0279,6.0242,5.952,5.8015,5.7997,5.7997,5.7997,5.7997,5.7997,5.7997,5.7997,5.7997,5.7997,5.7997,5.7997,5.7997,5.7997,5.7997,5.7997,5.7997,5.7997,5.7997,5.7997,5.7997,5.7997,0.0,0.0,0.0,0.0,0.0,0.0,0.0,0.0,0.0,0.0,2.4018,2.4679,0.0,0.0,0.0,0.0,0.0,0.0,0.0,0.0,0.0,2.8562,2.8607,2.8906,2.9578,2.9698,2.9488,2.8936,2.9056,2.9101,2.9117,2.9803,3.0417,3.1046,3.1719,3.2153,3.2363,3.2243,3.2183,3.2183,3.2064,3.1869,3.1675,3.1675,0.0,0.0,3.3574,3.4297,3.5211,3.8328,4.1071,4.3401,4.4651,4.6921,4.9469,5.1219,5.2384,5.3433,5.4904,5.5513,5.5851,5.6461,5.6139,5.5107,5.2824,5.1928,5.0542,4.6838,4.6078,4.5638,4.4251,4.5635,4.7665,4.9761,5.1336,5.3484,5.6851,5.6799,5.6697,5.7425,5.8342,5.915,5.973,6.0754,6.167,6.2353,6.2391,6.246,6.2591,6.2089,6.108,5.9471,5.9416,5.8958,5.7997,5.7997,5.7997,5.7997,5.7997,5.7997,5.7997,5.7997,5.7997,5.7997,5.7997,5.7997,5.7997,5.7997,5.7997,5.7997,5.7997,5.7997,5.7997,5.7997,5.7997,5.7997,0.0,0.0,0.0,0.0,0.0,0.0,0.0,2.3007,2.3849,2.4552,2.5214,2.5752,2.6093,2.6408,2.6869,0.0,0.0,0.0,0.0,0.0,0.0,0.0,0.0,0.0,2.8036,2.8378,2.8231,2.756,0.0,2.7902,2.7572,2.7887,2.8201,2.8487,2.8803,2.9132,2.949,2.9835,3.0,3.0059,3.0717,3.0987,3.1031,0.0,0.0,0.0,3.4024,3.5028,3.6059,3.8458,4.1548,4.4674,4.6601,4.8713,5.0794,5.2454,5.3737,5.4803,5.5513,5.6257,5.685,5.6816,5.5953,5.4228,5.0778,4.9441,4.7851,4.413,4.3964,4.415,4.3017,4.4688,4.6701,4.8154,4.961,5.1894,5.5649,5.5869,5.6207,5.773,5.8616,5.9443,6.0322,6.1146,6.1924,6.2743,6.2793,6.2793,6.2793,6.2034,6.1043,5.9857,5.9416,5.8811,5.7997,5.7997,5.7997,5.7997,5.7997,5.7997,5.7997,5.7997,5.7997,5.7997,5.7997,5.7997,5.7997,5.7997,5.7997,5.7997,5.7997,5.7997,5.7997,5.7997,5.7997,5.7997,0.0,0.0,0.0,0.0,0.0,0.0,0.0,2.3216,2.4133,2.5618,2.6273,2.6644,2.6794,2.6944,2.7183,0.0,0.0,0.0,0.0,0.0,0.0,0.0,0.0,0.0,2.6614,0.0,0.0,2.6599,2.7136,0.0,0.0,0.0,0.0,0.0,2.6599,2.6809,2.7225,2.7889,2.8248,0.0,0.0,3.0387,3.0597,0.0,0.0,0.0,0.0,3.5366,3.6724,3.8114,4.0529,4.3489,4.6547,4.9034,5.111,5.2573,5.4279,5.5733,5.5885,5.69,5.773,5.6985,5.5683,5.3416,4.8918,4.7208,4.5534,4.1948,4.2121,4.2746,4.2168,4.3656,4.5314,4.638,4.7665,4.9898,5.3805,5.4499,5.5431,5.7661,5.8771,5.9736,6.0565,6.1375,6.2134,6.2755,6.2793,6.2793,6.2793,6.2199,6.1484,6.0676,6.004,5.9251,5.8272,5.8253,5.8162,5.7997,5.7997,5.7997,5.7997,5.7997,5.7997,5.7997,5.7997,5.7997,5.7997,5.7997,5.7997,5.7997,5.7997,5.7997,5.7997,5.7997,5.7997,5.7997,0.0,0.0,0.0,0.0,0.0,0.0,0.0,2.3216,2.4298,2.6255,2.6569,2.6824,2.7435,2.8051,2.8201,0.0,0.0,0.0,0.0,0.0,0.0,0.0,0.0,0.0,0.0,0.0,0.0,2.6599,2.6659,0.0,0.0,0.0,0.0,0.0,0.0,2.6303,2.5839,2.6497,0.0,0.0,0.0,0.0,0.0,0.0,0.0,0.0,0.0,3.497,3.5814,3.7106,3.8151,3.9488,4.2627,4.6955,5.0965,5.1311,5.345,5.5851,5.6528,5.7289,5.773,5.6985,5.5683,5.3416,4.8918,4.6805,4.4942,4.1847,4.1322,4.1377,4.1322,4.2016,4.3301,4.5449,4.6481,4.8545,5.2976,5.4177,5.5434,5.7717,5.9348,6.0595,6.1418,6.2232,6.273,6.2793,6.2793,6.2793,6.2793,6.2738,6.2328,6.1533,6.141,6.0639,5.9104,5.9086,5.8719,5.7997,5.7997,5.7997,5.7997,5.7997,5.7997,5.7997,5.7997,5.7997,5.7997,5.7997,5.7997,5.7997,5.7997,5.7997,5.7997,5.7997,5.7997,5.7997,0.0,0.0,0.0,0.0,0.0,0.0,2.2383,2.355,2.4915,2.6929,2.6854,2.7003,2.8081,2.8442,2.8323,2.766,0.0,0.0,0.0,0.0,0.0,0.0,0.0,0.0,0.0,0.0,2.6599,2.6599,2.6599,0.0,0.0,0.0,0.0,0.0,0.0,2.5259,2.5038,2.5708,0.0,0.0,0.0,0.0,0.0,0.0,0.0,0.0,0.0,0.0,3.5594,3.6088,3.6941,3.7957,3.8884,4.2413,4.678,4.9684,5.2029,5.3923,5.5141,5.6342,5.6951,5.5767,5.4008,5.1623,4.8054,4.5722,4.371,4.1644,4.1204,4.1339,4.1779,4.1728,4.2236,4.4015,4.4181,4.55,4.9561,5.076,5.259,5.624,5.763,5.917,6.1384,6.1883,6.2284,6.2755,6.2793,6.2793,6.2793,6.2793,6.2426,6.1643,6.1606,6.0823,5.9221,5.9196,5.8792,5.7997,5.7997,5.7997,5.7997,5.7997,5.7997,5.7997,5.7997,5.7997,5.7997,5.7997,5.7997,5.7997,5.7997,5.7997,5.7997,5.7997,5.7997,5.7997,0.0,0.0,0.0,0.0,0.0,2.0458,2.2408,2.361,2.502,2.7046,2.6884,2.7048,2.8186,2.8472,2.8323,2.766,2.8216,0.0,0.0,0.0,0.0,0.0,0.0,0.0,0.0,0.0,2.6704,2.6899,2.6899,2.6899,0.0,0.0,2.6288,2.5199,0.0,0.0,0.0,0.0,0.0,0.0,0.0,0.0,0.0,0.0,0.0,0.0,0.0,0.0,0.0,0.0,0.0,3.6805,3.6645,3.8873,4.2395,4.6824,4.9942,5.2266,5.3568,5.5175,5.6173,5.4905,5.2723,5.0168,4.7411,4.4874,4.2662,4.117,4.1052,4.1373,4.188,4.1728,4.1948,4.3203,4.3166,4.413,4.7447,4.8715,5.0768,5.4695,5.5982,5.7719,6.0669,6.1571,6.2076,6.242,6.2661,6.2705,6.2459,6.2661,6.2536,6.1979,6.1942,6.13,5.9912,5.9912,5.938,5.8345,5.8345,5.8235,5.7997,5.7997,5.7997,5.7997,5.7997,5.7997,5.7997,5.7997,5.7997,5.7997,5.7997,5.7997,5.7997,5.7997,5.7997,5.7997,0.0,0.0,0.0,0.0,0.0,0.0,2.2334,2.3216,2.4328,2.6345,2.6599,2.6854,2.754,2.8201,2.8323,2.766,2.8216,0.0,0.0,0.0,0.0,0.0,0.0,0.0,0.0,0.0,2.6929,2.7585,2.7585,2.7585,2.7585,2.7585,2.7225,2.6584,0.0,0.0,0.0,0.0,0.0,0.0,0.0,0.0,0.0,0.0,0.0,0.0,0.0,0.0,0.0,0.0,0.0,0.0,0.0,3.7175,3.8589,4.2364,4.7149,5.137,5.2131,5.3974,5.553,5.4786,5.235,4.9541,4.7308,4.4468,4.1894,4.0417,4.0679,4.1204,4.1208,4.1796,4.2523,4.3288,4.4062,4.5362,4.7582,4.9171,5.0971,5.334,5.4852,5.6686,5.918,6.1463,6.2459,6.1673,6.235,6.2446,6.1659,6.2381,6.2793,6.2793,6.2793,6.2401,6.1588,6.1588,6.0768,5.9196,5.9196,5.8774,5.7997,5.7997,5.7997,5.7997,5.7997,5.7997,5.7997,5.7997,5.7997,5.7997,5.7997,5.7997,5.7997,5.7997,5.7997,5.7997,0.0,0.0,0.0,0.0,0.0,0.0,0.0,2.2335,2.3531,2.5049,2.5633,2.6168,2.6839,2.7512,2.7839,2.7615,2.8216,0.0,0.0,0.0,0.0,0.0,0.0,0.0,0.0,0.0,2.739,2.76,2.76,2.7839,2.8263,2.7809,2.748,2.727,2.6794,2.6702,0.0,0.0,0.0,0.0,0.0,0.0,3.1525,0.0,0.0,0.0,0.0,0.0,0.0,0.0,0.0,0.0,0.0,0.0,0.0,3.9677,4.3694,4.7599,4.8342,4.9796,5.0812,4.9576,4.7799,4.6022,4.4759,4.2963,4.1271,4.0299,4.0692,4.1356,4.1863,4.1728,4.2303,4.459,4.4302,4.457,4.6836,4.9372,5.1635,5.338,5.7227,6.0035,6.0837,6.2058,6.2459,6.1659,6.2355,6.2686,6.2433,6.2661,6.2793,6.2793,6.2793,6.2407,6.1606,6.1606,6.1062,6.0003,5.9471,5.9068,5.8792,5.8253,5.7997,5.7997,5.7997,5.7997,5.7997,5.7997,5.7997,5.7997,5.7997,5.7997,5.7997,5.7997,5.7997,5.7997,0.0,0.0,0.0,0.0,0.0,0.0,0.0,2.1889,2.3067,2.4092,2.481,2.5573,2.6509,2.6973,2.733,2.757,2.7976,0.0,0.0,0.0,0.0,0.0,0.0,0.0,0.0,2.76,2.76,2.76,2.76,2.7931,2.8592,2.8171,2.8262,2.871,2.83,2.8451,0.0,0.0,0.0,0.0,0.0,0.0,3.1511,0.0,0.0,0.0,0.0,0.0,0.0,0.0,0.0,0.0,0.0,0.0,0.0,0.0,4.0692,4.3546,4.5455,4.7039,4.7953,4.7022,4.5449,4.4012,4.3507,4.2036,4.0658,4.0185,4.0912,4.1677,4.1847,4.1965,4.2645,4.4522,4.4282,4.4637,4.6904,4.9639,5.2276,5.461,5.8093,6.0536,6.1088,6.1881,6.2271,6.2063,6.2528,6.2793,6.2793,6.2793,6.2793,6.2793,6.2793,6.2554,6.2053,6.2053,6.1502,6.0389,5.9893,5.9325,5.8719,5.8235,5.7997,5.7997,5.7997,5.7997,0.0,5.7997,5.7997,5.7997,5.7997,5.7997,5.7997,5.7997,5.7997,5.7997,0.0,0.0,0.0,0.0,0.0,0.0,0.0,2.177,2.2853,2.3456,2.4167,2.5083,2.639,2.6569,2.6869,2.754,0.0,0.0,0.0,0.0,0.0,0.0,0.0,0.0,2.757,2.76,2.76,2.76,2.76,2.7931,2.8607,2.8502,2.9219,3.0599,3.0506,3.0897,0.0,0.0,0.0,0.0,0.0,0.0,0.0,0.0,0.0,0.0,0.0,0.0,0.0,0.0,0.0,0.0,0.0,0.0,0.0,0.0,0.0,0.0,0.0,4.5211,4.6319,4.6329,4.4739,4.3169,4.3169,4.1589,0.0,4.0096,4.1234,4.2029,4.139,4.2391,4.3372,4.3541,4.4181,4.543,4.7599,5.0012,5.293,5.6652,5.783,5.884,6.0108,6.1123,6.1982,6.2661,6.2768,6.2793,6.2793,6.2793,6.2793,6.2793,6.2793,6.2793,6.2793,6.2793,6.2022,6.0493,6.0438,5.9593,5.807,5.8033,5.7997,5.7997,5.7997,5.7997,5.7997,5.7997,5.7997,5.7997,5.7997,5.7997,5.7997,5.7997,5.7997,5.7997,0.0,0.0,0.0,0.0,0.0,0.0,0.0,0.0,0.0,0.0,2.3898,2.4918,2.5737,2.6288,2.6869,0.0,0.0,0.0,0.0,0.0,0.0,0.0,0.0,0.0,2.7585,2.76,2.76,2.76,2.76,2.7931,2.8577,2.7545,2.8321,3.0552,2.9536,3.0292,0.0,0.0,0.0,0.0,0.0,0.0,0.0,0.0,0.0,0.0,3.2318,3.2691,0.0,0.0,0.0,0.0,0.0,0.0,0.0,0.0,3.7493,3.7475,3.899,0.0,4.1663,4.1673,4.1267,4.0878,0.0,4.0472,4.0096,4.0096,4.0828,4.1576,4.1965,4.232,4.3132,4.4877,4.5314,4.6024,4.7667,5.0849,5.4237,5.754,5.9077,5.9571,5.8784,6.103,6.2337,6.191,6.2446,6.2793,6.2793,6.2793,6.2793,6.2793,6.2793,6.2793,6.2793,6.2793,6.2297,6.13,6.0694,5.9875,5.8902,5.829,5.7997,5.7997,5.7997,5.7997,5.7997,5.7997,5.7997,5.7997,5.7997,5.7997,5.7997,5.7997,5.7997,5.7997,0.0,0.0,0.0,0.0,0.0,0.0,0.0,0.0,0.0,0.0,0.0,0.0,0.0,0.0,0.0,0.0,0.0,0.0,0.0,0.0,0.0,0.0,0.0,2.6914,2.7585,2.7872,2.7885,2.76,2.7885,2.8208,2.8592,2.8171,2.9082,3.1039,3.0942,3.1678,0.0,0.0,0.0,0.0,3.2143,0.0,0.0,0.0,0.0,0.0,3.1914,3.2243,0.0,3.2557,3.3695,3.5113,0.0,0.0,0.0,0.0,3.6692,3.6352,3.7485,3.8666,3.9541,3.955,3.9837,4.0096,4.0096,4.0096,4.0096,4.0096,4.0692,4.1322,4.1711,4.2066,4.2943,4.4874,4.6045,4.7834,5.1078,5.2966,5.5161,5.8299,5.9349,5.9831,5.9763,6.1267,6.2214,6.2161,6.2554,6.2793,6.2793,6.2793,6.2793,6.2793,6.2793,6.2793,6.2793,6.2793,6.2205,6.1043,6.0621,5.9795,5.8627,5.8198,5.7997,5.7997,5.7997,5.7997,5.7997,5.7997,5.7997,5.7997,5.7997,5.7997,5.7997,5.7997,5.7997,5.7997,0.0,0.0,0.0,0.0,0.0,0.0,0.0,0.0,0.0,0.0,0.0,0.0,0.0,0.0,0.0,0.0,0.0,0.0,0.0,0.0,0.0,0.0,0.0,2.7031,2.7585,2.8201,2.8198,2.76,2.8198,2.8483,2.8457,2.9024,3.0056,3.1521,3.2848,3.3468,0.0,0.0,0.0,0.0,3.2602,0.0,0.0,0.0,0.0,0.0,0.0,0.0,0.0,3.169,3.2784,3.44,3.4504,0.0,0.0,0.0,0.0,0.0,3.7233,3.8327,3.9083,3.9076,3.9597,4.0096,4.0096,4.0096,4.0096,4.0096,4.0608,4.1136,4.1461,4.2049,4.301,4.4668,4.6911,5.0116,5.4933,5.5351,5.6069,5.8558,5.9258,6.0002,6.1144,6.157,6.2063,6.2755,6.2793,6.2793,6.2793,6.2793,6.2793,6.2793,6.2793,6.2793,6.2793,6.2683,6.1875,6.0401,6.0279,5.9446,5.7997,5.7997,5.7997,5.7997,5.7997,5.7997,5.7997,5.7997,5.7997,5.7997,5.7997,5.7997,5.7997,5.7997,5.7997,5.7997,0.0,0.0,0.0,0.0,0.0,0.0,0.0,0.0,0.0,0.0,0.0,0.0,0.0,0.0,0.0,0.0,0.0,0.0,0.0,0.0,0.0,2.8355,2.7766,2.7495,2.76,2.8201,2.8198,2.76,2.8198,2.8235,2.7764,2.7854,2.8928,3.0804,3.216,3.3039,3.3463,0.0,0.0,0.0,3.2736,0.0,0.0,0.0,0.0,0.0,0.0,0.0,0.0,3.154,3.2538,3.3832,3.3846,0.0,0.0,0.0,0.0,0.0,3.6582,3.8324,3.9921,3.9924,4.002,4.0096,4.0096,4.0096,4.0096,4.0096,4.0185,4.0844,4.2713,4.3152,4.393,4.6123,4.8936,5.177,5.4417,5.644,5.7556,5.7281,5.9611,6.0837,5.9817,6.1483,6.2661,6.278,6.2793,6.2793,6.2793,6.2793,6.2793,6.2793,6.2793,6.2793,6.2793,6.2126,6.1318,6.0389,5.971,5.8902,5.7997,5.7997,5.7997,5.7997,5.7997,5.7997,5.7997,5.7997,5.7997,5.7997,5.7997,5.7997,5.7997,5.7997,5.7997,5.7997,0.0,0.0,0.0,0.0,0.0,0.0,0.0,0.0,0.0,0.0,0.0,0.0,0.0,0.0,0.0,0.0,0.0,0.0,0.0,0.0,2.9063,2.8993,2.9096,2.8831,2.8107,2.8674,2.8531,2.76,2.7842,2.783,2.7627,2.8349,2.954,3.1109,3.1734,3.2358,3.2937,3.263,0.0,0.0,0.0,0.0,0.0,0.0,0.0,0.0,0.0,0.0,0.0,0.0,3.2219,3.3099,3.3061,0.0,0.0,0.0,0.0,0.0,3.7061,3.8321,3.9656,4.0478,4.0679,4.0591,4.0185,4.0096,4.0214,4.0608,4.0679,4.1373,4.3623,4.4384,4.5897,4.9791,5.1961,5.3943,5.6139,5.7072,5.7694,5.8101,5.9817,6.0872,6.0598,6.193,6.2793,6.2793,6.2793,6.2609,6.2181,6.2554,6.2591,6.2181,6.2572,6.2793,6.2793,6.1998,6.119,6.0401,6.0022,5.9208,5.7997,5.7997,5.7997,5.7997,5.7997,5.7997,5.7997,5.7997,5.7997,5.7997,5.7997,5.7997,5.7997,5.7997,5.7997,5.7997,0.0,0.0,0.0,0.0,0.0,0.0,0.0,0.0,0.0,0.0,0.0,0.0,0.0,0.0,0.0,0.0,0.0,0.0,0.0,0.0,2.9683,2.9416,3.0245,3.0018,2.8527,2.8941,2.8571,2.736,2.7298,2.7382,2.7642,2.8964,3.0193,3.1271,3.1436,3.1869,3.2512,3.2662,3.3125,0.0,0.0,0.0,0.0,0.0,0.0,0.0,0.0,0.0,0.0,0.0,0.0,0.0,0.0,0.0,0.0,3.4446,3.5463,3.6648,3.7557,3.8474,3.9465,4.0652,4.0933,4.0933,4.0878,4.0743,4.0878,4.1813,4.1999,4.2574,4.4499,4.5737,4.8031,5.2764,5.4335,5.5681,5.7699,5.7882,5.8215,5.9364,6.0194,6.1005,6.1801,6.2433,6.2719,6.2536,6.2517,6.2181,6.1355,6.1893,6.1961,6.1337,6.1912,6.2334,6.2517,6.1722,6.1006,6.0401,6.0205,5.9373,5.7997,5.7997,5.7997,5.7997,5.7997,5.7997,5.7997,5.7997,5.7997,5.7997,5.7997,5.7997,5.7997,5.7997,5.7997,5.7997,0.0,0.0,0.0,0.0,0.0,0.0,0.0,0.0,0.0,0.0,0.0,0.0,0.0,0.0,0.0,0.0,0.0,0.0,0.0,0.0,3.0126,2.9427,3.0636,3.0451,2.8538,2.8484,2.7868,2.6674,2.6608,2.6919,2.7642,2.8964,2.9952,3.0612,3.1212,3.1869,3.2542,3.3155,3.3814,3.4444,0.0,0.0,0.0,0.0,0.0,0.0,0.0,0.0,0.0,0.0,0.0,0.0,0.0,0.0,3.2992,3.4231,3.514,3.6061,3.7439,3.8878,4.0045,4.0155,4.018,4.0692,4.2713,4.2642,4.257,4.4042,4.4361,4.4601,4.5466,4.7344,4.9818,5.3067,5.4797,5.6255,5.78,5.9235,6.019,6.0296,6.1024,6.1842,6.2649,6.2768,6.2481,6.1741,6.1686,6.1337,6.0529,6.0548,6.0548,6.0493,6.0548,6.0933,6.1679,6.0896,6.0456,6.0389,5.9636,5.8829,5.7997,5.7997,5.7997,5.7997,5.7997,5.7997,5.7997,5.7997,5.7997,5.7997,5.7997,5.7997,5.7997,5.7997,5.7997,5.7997,0.0,0.0,0.0,0.0,0.0,0.0,0.0,0.0,0.0,0.0,0.0,0.0,0.0,0.0,0.0,0.0,0.0,0.0,0.0,2.9256,3.0172,2.9427,3.068,3.0485,2.8538,2.8079,2.7218,2.5974,2.6369,2.6928,2.7642,2.8964,3.0133,3.1122,3.1391,3.1406,3.133,3.2407,3.2781,3.2706,3.3529,0.0,0.0,0.0,0.0,0.0,0.0,0.0,0.0,0.0,3.2174,3.2313,3.3,3.3521,3.3935,3.4462,3.546,3.6599,3.7585,3.8963,4.021,4.0663,4.0781,4.1238,4.3,4.3186,4.3555,4.5565,4.6329,4.7022,4.8223,4.9902,5.1646,5.3277,5.5614,5.7405,5.7928,5.939,6.0399,6.0399,6.1099,6.1715,6.2023,6.204,6.1924,6.1612,6.1135,6.0511,5.971,6.0132,6.0169,5.9673,6.0132,6.0548,6.086,6.0548,6.015,5.9655,5.9361,5.8774,5.7997,5.7997,5.7997,5.7997,5.7997,5.7997,5.7997,5.7997,5.7997,5.7997,5.7997,5.7997,5.7997,5.7997,5.7997,5.7997,0.0,0.0,0.0,0.0,0.0,0.0,0.0,0.0,0.0,0.0,0.0,0.0,0.0,0.0,0.0,0.0,0.0,0.0,2.6842,2.879,2.9672,2.9143,3.0222,2.9998,2.8225,2.7342,2.6477,2.5603,2.6063,2.6629,2.733,2.8859,2.9953,3.0599,3.1002,3.0927,3.0567,3.1704,3.2034,3.1914,3.3051,3.323,0.0,0.0,0.0,0.0,0.0,0.0,0.0,0.0,3.26,3.2747,3.3633,3.4235,3.4636,3.4842,3.5818,3.6953,3.7702,3.8807,3.999,4.0967,4.139,4.2117,4.4319,4.4471,4.4826,4.7327,4.8054,4.8698,5.0185,5.1315,5.2518,5.3999,5.5983,5.7506,5.7947,5.8523,5.9203,5.9946,6.0552,6.1072,6.1543,6.1607,6.1392,6.0878,6.0334,5.9673,5.8866,5.9343,5.9391,5.8847,5.9373,5.9747,6.0022,5.9777,5.949,5.9196,5.8939,5.8529,5.7997,5.7997,5.7997,5.7997,5.7997,5.7997,5.7997,5.7997,5.7997,5.7997,5.7997,5.7997,5.7997,5.7997,5.7997,5.7997,0.0,0.0,0.0,0.0,0.0,0.0,0.0,0.0,0.0,0.0,0.0,0.0,0.0,0.0,0.0,0.0,0.0,0.0,2.5558,2.7479,2.8551,2.8472,2.9192,2.8936,2.7534,2.6254,2.5603,2.5588,2.5603,2.5959,2.6644,2.865,2.9234,2.8667,2.9939,3.0492,3.0537,3.1197,3.1869,3.2527,3.32,3.3469,3.341,0.0,0.0,0.0,0.0,0.0,0.0,0.0,3.26,3.2828,3.4186,3.46,3.4736,3.5413,3.6163,3.6953,3.7702,3.8447,3.9372,4.0849,4.1762,4.3301,4.7058,4.6771,4.6566,4.9509,4.9526,4.9459,5.0947,5.1218,5.2219,5.5257,5.5722,5.6234,5.7749,5.6662,5.6593,5.8989,5.9274,5.9888,6.1434,6.1575,6.0915,5.9325,5.9184,5.8847,5.8033,5.7997,5.7997,5.7997,5.7997,5.8382,5.9178,5.84,5.84,5.9178,5.8382,5.7997,5.7997,5.7997,5.7997,5.7997,5.7997,5.7997,5.7997,5.7997,5.7997,5.7997,5.7997,5.7997,5.7997,5.7997,5.7997,5.7997,0.0,0.0,0.0,0.0,0.0,0.0,0.0,0.0,0.0,0.0,0.0,0.0,0.0,0.0,0.0,0.0,0.0,0.0,2.5588,2.6999,2.7627,2.7173,2.8233,2.8427,2.7594,2.6738,2.5839,2.4903,2.5379,2.6183,2.733,2.8395,2.9039,2.9324,2.9698,2.9623,2.9205,2.9879,3.0283,3.0507,3.1135,3.1675,3.2064,0.0,0.0,0.0,0.0,0.0,0.0,0.0,0.0,0.0,3.4186,3.4962,3.5397,3.5564,3.6163,3.6953,3.7702,3.8447,3.9478,4.1487,4.2959,4.4618,4.7295,4.7566,4.8073,5.1048,5.1065,5.0829,5.1809,5.2452,5.2924,5.3288,5.4669,5.5685,5.5622,5.567,5.6167,5.7395,5.8086,5.8841,5.9814,5.9919,5.971,5.9251,5.8682,5.8253,5.8015,5.7997,5.7997,5.7997,5.7997,5.8107,5.8345,5.8125,5.8125,5.8345,5.8107,5.7997,5.7997,5.7997,5.7997,5.7997,5.7997,5.7997,5.7997,5.7997,5.7997,5.7997,5.7997,5.7997,5.7997,5.7997,5.7997,5.7997,0.0,0.0,0.0,0.0,0.0,0.0,0.0,0.0,0.0,0.0,0.0,0.0,0.0,0.0,0.0,0.0,0.0,0.0,0.0,2.6168,2.6701,2.6596,2.7595,2.7847,2.721,2.7076,2.6467,2.5393,2.5809,2.6554,2.76,2.8291,2.868,2.8813,2.8813,2.8725,2.8607,2.874,2.9249,2.9997,3.0357,3.0897,3.1511,0.0,0.0,0.0,0.0,0.0,0.0,0.0,0.0,0.0,3.4841,3.535,3.5353,3.5885,3.6612,3.741,3.8142,3.9089,4.0409,4.2655,4.4347,4.614,4.8631,4.9442,5.0237,5.235,5.2165,5.186,5.2638,5.3179,5.345,5.3247,5.4363,5.5108,5.4651,5.4975,5.5662,5.6701,5.7585,5.8392,5.9134,5.9195,5.9068,5.8756,5.8272,5.7997,5.7997,5.7997,5.7997,5.7997,5.7997,5.7997,5.7997,5.7997,5.7997,5.7997,5.7997,5.7997,5.7997,5.7997,5.7997,5.7997,5.7997,5.7997,5.7997,5.7997,5.7997,5.7997,5.7997,5.7997,5.7997,5.7997,5.7997,5.7997,0.0,0.0,0.0,0.0,0.0,0.0,0.0,0.0,0.0,0.0,0.0,0.0,0.0,0.0,0.0,0.0,0.0,0.0,0.0,0.0,2.5857,2.6482,2.727,2.7423,2.6884,2.742,2.739,2.6779,2.6659,2.6929,2.76,2.8216,2.8186,2.76,2.754,2.7872,2.8457,2.7782,2.8605,3.0328,3.0328,3.0732,3.1331,3.1331,0.0,0.0,0.0,0.0,0.0,0.0,0.0,0.0,3.5769,3.5781,3.507,3.6413,3.7369,3.8176,3.8971,4.0189,4.1796,4.4279,4.6107,4.802,5.0778,5.1944,5.2604,5.3264,5.2875,5.2638,5.3365,5.3551,5.3805,5.4397,5.4618,5.4652,5.4516,5.4615,5.5229,5.6619,5.7505,5.8279,5.9027,5.9086,5.8792,5.8052,5.7997,5.7997,5.7997,5.7997,5.7997,5.7997,5.7923,5.7923,5.7997,5.7923,5.7923,5.7997,5.7997,5.7997,5.7997,5.7997,5.7997,5.7997,5.7997,5.7997,5.7997,5.7997,5.7997,5.7997,5.7997,5.7997,5.7997,5.7997,5.7997,5.7997,0.0,0.0,0.0,0.0,0.0,0.0,0.0,0.0,0.0,0.0,0.0,0.0,0.0,0.0,0.0,0.0,0.0,0.0,0.0,0.0,2.5663,2.5797,2.747,2.856,2.8949,2.8575,2.8308,2.8173,2.7123,2.6929,2.76,2.775,2.7735,2.757,2.7048,2.7183,2.7779,2.7093,2.7649,2.9011,2.9011,2.94,2.9998,2.9998,3.0387,0.0,0.0,0.0,0.0,0.0,0.0,0.0,3.5365,3.6099,3.6486,3.7378,3.8169,3.9056,4.0375,4.0967,4.2155,4.6179,4.9171,5.1454,5.2723,5.3129,5.3112,5.2655,5.2926,5.3298,5.3467,5.3974,5.4228,5.3805,5.4697,5.5064,5.3906,5.4724,5.5591,5.5922,5.6676,5.745,5.8195,5.8253,5.8198,5.8015,5.7997,5.7997,5.7997,5.7997,5.7997,5.7997,5.7391,5.7373,5.7997,5.7373,5.7373,5.7997,5.7997,5.7997,5.7997,5.7997,5.7997,5.7997,5.7997,5.7997,5.7997,5.7997,5.7997,5.7997,5.7997,5.7997,5.7997,5.7997,5.7997,5.7997,0.0,0.0,0.0,0.0,0.0,0.0,0.0,0.0,0.0,0.0,0.0,0.0,0.0,0.0,0.0,0.0,0.0,0.0,0.0,0.0,2.5899,2.6524,2.7874,2.8607,2.8648,2.8607,2.8442,2.8126,2.7408,2.727,2.76,2.76,2.76,2.757,2.6899,2.6973,2.7567,2.6884,2.7365,2.8607,2.8607,2.9009,2.9593,2.9593,2.9982,3.0552,3.0867,0.0,0.0,0.0,0.0,0.0,0.0,0.0,3.655,3.796,3.866,3.9309,4.0798,4.1728,4.3254,4.738,5.0102,5.1877,5.23,5.2402,5.2266,5.186,5.2983,5.4139,5.4484,5.4575,5.4472,5.4078,5.4671,5.4884,5.4126,5.5309,5.6268,5.6268,5.6958,5.7577,5.7955,5.7997,5.7997,5.7997,5.7997,5.7997,5.7997,5.7629,5.7428,5.7428,5.6657,5.6418,5.6852,5.6822,5.7012,5.7428,5.7813,5.7997,5.7997,5.7997,5.7997,5.7997,5.7997,5.7997,5.7997,5.7997,5.7776,5.7464,5.785,5.7758,5.7464,5.785,5.7997,5.7997,0.0,0.0,0.0,0.0,0.0,0.0,0.0,0.0,0.0,0.0,0.0,0.0,0.0,0.0,0.0,0.0,0.0,0.0,0.0,0.0,0.0,2.7705,2.8306,2.8382,2.7944,2.8261,2.8216,2.7779,2.7408,2.7375,2.76,2.76,2.76,2.757,2.6899,2.6973,2.7567,2.6884,2.7318,2.844,2.844,2.8755,2.9249,2.9249,2.9638,3.0239,3.0793,3.1137,3.1626,3.3515,0.0,0.0,0.0,0.0,3.6454,3.8502,3.9153,3.9508,4.0984,4.2662,4.4759,4.8003,4.9916,5.1032,5.1167,5.1201,5.1249,5.1393,5.2898,5.4439,5.5179,5.4801,5.4459,5.4735,5.4787,5.4782,5.4785,5.6122,5.6989,5.6708,5.7346,5.7762,5.7618,5.7738,5.7797,5.7797,5.7792,5.7795,5.7795,5.7042,5.6602,5.6602,5.5812,5.5456,5.5603,5.6124,5.6462,5.659,5.7262,5.7648,5.7795,5.7795,5.7868,5.7997,5.7997,5.7997,5.7997,5.785,5.7409,5.6847,5.7373,5.7262,5.6884,5.7556,5.7886,5.7997,0.0,0.0,0.0,0.0,0.0,0.0,0.0,0.0,0.0,0.0,0.0,0.0,0.0,0.0,0.0,0.0,0.0,0.0,2.361,0.0,0.0,2.8382,2.8547,2.8831,2.9322,2.8289,2.7961,2.8472,2.6722,2.6465,2.76,2.76,2.76,2.757,2.6899,2.6973,2.7567,2.6884,2.7033,2.7735,2.7735,2.7779,2.7869,2.7869,2.8276,2.8861,2.8966,2.9699,3.0775,3.164,3.2571,0.0,0.0,0.0,3.7831,3.9453,3.9952,4.0282,4.1758,4.4198,4.6616,4.7768,4.9171,5.0405,5.1049,5.1201,5.1392,5.2099,5.2433,5.2854,5.3649,5.362,5.3926,5.5323,5.5548,5.554,5.5546,5.6884,5.737,5.6018,5.6558,5.6773,5.6073,5.6637,5.7058,5.7058,5.6986,5.6957,5.6957,5.6198,5.5768,5.5768,5.4968,5.4887,5.5585,5.5023,5.506,5.5768,5.5879,5.6301,5.6957,5.6957,5.7336,5.7997,5.7997,5.7997,5.7941,5.7262,5.6902,5.6737,5.6143,5.6271,5.6811,5.6921,5.7409,5.7997,0.0,0.0,0.0,0.0,0.0,0.0,0.0,0.0,0.0,0.0,0.0,0.0,0.0,0.0,0.0,2.3595,2.3595,2.3759,2.4137,2.4709,2.5767,2.741,2.747,2.7797,2.8468,2.754,2.7363,2.8036,2.6408,2.6288,2.76,2.76,2.7809,2.8141,2.7844,2.7887,2.8126,2.7437,2.733,2.76,2.76,2.76,2.76,2.76,2.7779,2.8132,2.8852,2.9251,2.9633,3.0982,3.2132,3.33,3.507,0.0,0.0,0.0,3.9791,4.0506,4.2405,4.3893,4.5367,4.7396,4.8088,4.8443,4.9172,4.9358,4.945,4.981,5.0142,5.1153,5.3666,5.3693,5.3712,5.4843,5.5025,5.5024,5.502,5.5988,5.6308,5.5206,5.5397,5.5473,5.511,5.5394,5.5775,5.6144,5.6143,5.6124,5.6124,5.5354,5.4932,5.4932,5.4161,5.3904,5.4252,5.4344,5.4803,5.5603,5.5603,5.5787,5.6124,5.6124,5.6804,5.7997,5.7997,5.7997,5.796,5.7611,5.6932,5.6143,5.6235,5.5941,5.5563,5.6462,5.7024,5.7391,0.0,0.0,0.0,0.0,0.0,0.0,0.0,0.0,0.0,0.0,0.0,0.0,0.0,0.0,0.0,0.0,2.3595,2.3883,2.456,2.4593,2.5199,2.6539,2.6599,2.6914,2.7585,2.6929,2.6929,2.76,2.6258,2.6378,2.7854,2.7854,2.8291,2.9086,2.8921,2.8757,2.8562,2.8066,2.7854,2.7824,2.748,2.745,2.7585,2.7405,2.745,2.7708,2.8681,2.8829,2.881,3.0386,3.1667,3.2819,3.4224,3.6009,0.0,0.0,0.0,4.0455,4.2117,4.2696,4.3474,4.6111,4.6498,4.6481,4.7396,4.7616,4.7616,4.7616,4.8019,4.935,5.2567,5.3105,5.3398,5.4377,5.4496,5.4538,5.475,5.5305,5.5401,5.4658,5.4568,5.4491,5.4291,5.4444,5.4786,5.5279,5.5313,5.531,5.531,5.4528,5.4106,5.4106,5.3508,5.3196,5.3196,5.3801,5.4399,5.4987,5.4987,5.5108,5.531,5.531,5.6062,5.7402,5.7402,5.7402,5.7402,5.7402,5.6547,5.5346,5.5959,5.5464,5.4564,5.5978,5.6609,5.6921,0.0,0.0,0.0,0.0,0.0,0.0,0.0,0.0,0.0,0.0,0.0,0.0,2.3655,2.3625,2.3595,2.3595,2.3595,2.3883,2.456,2.4593,2.5199,2.6539,2.6599,0.0,2.7585,2.6929,2.6929,2.76,2.6258,2.6617,2.8547,2.8547,2.9205,3.0372,2.9803,2.919,2.8607,2.8562,2.8547,2.8442,2.7156,2.7033,2.7525,2.6884,2.7048,2.7612,2.768,2.8054,2.8621,2.9357,3.0891,3.274,3.4161,3.564,3.7126,0.0,0.0,0.0,4.0235,4.0781,4.1681,4.3254,4.4181,4.5091,4.653,4.6853,4.6853,4.6853,4.688,4.7393,4.8907,5.082,5.2708,5.432,5.4492,5.4668,5.5449,5.5577,5.5334,5.4585,5.451,5.421,5.3445,5.4066,5.4524,5.4548,5.4506,5.4454,5.4454,5.3691,5.3269,5.3269,5.3214,5.3196,5.3196,5.3232,5.3287,5.3324,5.3324,5.371,5.4454,5.4454,5.4913,5.5713,5.5713,5.5713,5.5713,5.5713,5.5236,5.4473,5.4509,5.4473,5.4491,5.5346,5.6143,5.6921,0.0,0.0,0.0,0.0,0.0,0.0,0.0,0.0,0.0,0.0,0.0,0.0,0.0,2.3595,2.3595,2.3595,2.3595,2.3699,2.3943,2.3958,2.4556,2.5899,2.5959,2.6467,2.757,2.6929,2.6929,2.76,2.6258,2.6408,2.7959,2.7959,2.8425,2.9295,2.9503,2.9683,2.9744,2.8485,2.8216,2.8487,2.7153,2.6988,2.7525,2.6866,2.7031,2.7648,2.803,2.862,2.9361,3.0423,3.1853,3.336,3.4315,3.5604,3.71,3.8577,3.8853,3.9005,4.0409,4.0307,4.0375,4.2797,4.3267,4.3399,4.4401,4.4606,4.4756,4.5277,4.5396,4.582,4.7281,4.8923,5.0687,5.266,5.2962,5.3201,5.396,5.4057,5.3795,5.3045,5.2992,5.2891,5.2563,5.2324,5.2391,5.2867,5.2859,5.2868,5.2868,5.3067,5.2957,5.2454,5.2435,5.1985,5.1027,5.1027,5.1282,5.1795,5.2223,5.2858,5.3618,5.3618,5.3783,5.4069,5.4069,5.4392,5.4959,5.4959,5.4468,5.3728,5.4221,5.4087,5.3728,5.4528,5.5335,5.6143,0.0,0.0,0.0,0.0,0.0,0.0,0.0,0.0,0.0,2.3832,0.0,0.0,0.0,0.0,2.3595,2.3595,2.3595,2.3595,2.3595,2.3595,2.4208,2.5543,2.5603,2.6333,2.7899,2.7063,2.7033,2.7944,2.6363,2.6393,2.7931,2.7705,2.8079,2.8951,2.9174,2.9714,3.0417,2.9114,2.883,2.9101,2.7557,2.748,2.8199,2.7527,2.7812,2.8636,2.9027,2.9787,3.0655,3.1248,3.2402,3.3611,3.406,3.5036,3.6276,3.7499,3.7702,3.7905,3.9631,3.9377,3.9225,4.1677,4.1931,4.183,4.2811,4.3034,4.3183,4.3721,4.3822,4.4279,4.5785,4.6604,4.7912,5.0556,5.1172,5.1572,5.2297,5.2382,5.2216,5.1712,5.17,5.1712,5.1679,5.1179,5.1071,5.1571,5.1591,5.1591,5.1591,5.2095,5.215,5.161,5.1591,5.1012,4.9812,5.0018,5.0427,5.1013,5.168,5.2417,5.3196,5.3196,5.3196,5.3167,5.2645,5.3078,5.4143,5.4415,5.4034,5.3342,5.41,5.3911,5.3306,5.4106,5.4913,5.5713,0.0,0.0,0.0,0.0,0.0,0.0,0.0,0.0,2.3193,2.4436,0.0,0.0,0.0,0.0,0.0,2.3595,2.3595,2.361,2.3625,2.3625,2.4223,2.5558,2.5618,2.6557,2.8532,2.7303,2.726,2.8562,2.6617,2.6647,2.8532,2.7899,2.8289,2.9473,2.8861,2.9295,3.0447,3.0417,3.0447,3.0313,2.8378,2.8393,2.9503,2.8846,2.937,3.0441,3.0488,3.1357,3.2399,3.1701,3.2372,3.3497,3.3497,3.3964,3.4641,3.5391,3.6146,3.6902,0.0,0.0,0.0,3.966,4.0037,4.043,4.1863,4.2198,4.2215,4.2266,4.2266,4.2723,4.4245,4.3893,4.4519,4.8061,4.9268,4.9989,5.0703,5.0802,5.0802,5.0802,5.0802,5.0802,5.0802,5.0784,5.0765,5.0765,5.0765,5.0765,5.0765,5.0765,5.0765,5.0765,5.0727,5.0378,4.9699,5.0349,5.078,5.0907,5.1607,5.2362,5.3159,5.3141,5.3141,5.3072,5.1567,5.1754,5.3196,5.3956,5.3817,5.3211,5.4021,5.3867,5.3287,5.4087,5.4858,5.5677,0.0,0.0,0.0,0.0,0.0,0.0,2.3096,2.3664,2.42,0.0,0.0,0.0,2.4634,2.4003,2.3595,2.3595,2.3595,2.3819,2.4291,2.4321,2.493,2.6258,2.6318,2.6809,2.7854,2.751,2.751,2.7884,2.733,2.7078,2.7156,2.7465,2.754,2.7467,2.8248,2.8801,2.9086,2.8605,2.8964,2.9713,2.8214,2.8111,2.8861,2.8667,2.8816,2.9254,3.0228,3.1429,3.263,3.2905,3.4275,3.5853,3.5853,3.5227,3.4641,3.5391,3.5374,3.543,3.675,0.0,0.0,0.0,0.0,0.0,3.9698,3.9901,4.0218,4.1288,4.1508,4.1796,4.2756,4.2743,4.3096,4.4585,4.6772,4.8869,5.056,5.0802,5.0802,5.0802,5.0802,5.0802,5.0802,5.028,4.9931,4.9931,4.9931,4.9931,4.9931,4.9931,4.9931,4.9931,4.8899,4.8031,4.7339,4.802,4.8428,4.8621,4.9739,5.0996,5.2307,5.1738,5.1775,5.2278,5.1279,5.108,5.144,5.1137,5.1203,5.161,5.2369,5.2876,5.3232,5.3453,5.4051,5.4748,0.0,0.0,0.0,0.0,0.0,2.357,2.4045,2.4399,2.4799,0.0,0.0,0.0,2.4668,2.4003,2.3714,2.3988,2.4018,2.4302,2.4963,2.5008,2.5483,2.6554,2.6599,2.7048,2.7991,2.748,2.7465,2.8021,2.7183,2.6854,2.7018,2.7136,2.6973,2.6629,2.7423,2.7769,2.7739,2.7348,2.8261,2.9892,2.8845,2.8994,2.9775,2.9505,2.9744,3.0376,3.1438,3.2716,3.3905,3.3963,3.4818,3.5785,3.5481,3.4759,3.4134,3.4562,3.4607,3.4703,3.5599,3.6073,3.6552,3.7623,0.0,0.0,3.8763,3.8751,3.887,4.0037,4.0273,4.0595,4.1644,4.1589,4.1801,4.3089,4.4479,4.6222,4.8598,4.8642,4.8749,4.9653,4.9245,4.9113,4.9689,4.9108,4.8794,4.9049,4.9068,4.8921,4.8563,4.8563,4.8407,4.8077,4.7209,4.6465,4.5827,4.6445,4.7033,4.759,4.8577,4.9931,5.1481,5.1004,5.1059,5.1444,5.0618,5.027,5.0231,4.9445,4.9999,5.1406,5.1833,5.2491,5.3196,5.3196,5.371,5.4399,0.0,0.0,2.4279,2.3818,2.4214,2.4681,2.488,2.4858,2.5259,0.0,2.6078,2.5453,2.4784,2.4182,2.4033,2.4548,2.4664,2.4993,2.5674,2.5708,2.6019,2.6689,2.6704,2.7273,2.8457,2.7393,2.7378,2.8487,2.6767,2.6467,2.748,2.6869,2.6524,2.639,2.6465,2.6494,2.6509,2.6734,2.8158,3.0238,2.9698,3.0249,3.1326,3.0814,3.1366,3.25,3.333,3.445,3.5488,3.4944,3.4703,3.4523,3.3964,3.366,3.3514,3.3514,3.3981,3.45,3.45,3.5047,3.5955,3.7403,3.7291,0.0,3.856,3.843,3.8181,3.8751,3.9017,3.9508,4.073,4.0489,4.0716,4.2627,4.2396,4.2923,4.5673,4.5513,4.5852,4.7841,4.7044,4.6853,4.8175,4.7735,4.7599,4.8139,4.8076,4.7728,4.7003,4.6966,4.6645,4.592,4.5902,4.5605,4.5001,4.5596,4.6279,4.7039,4.7803,4.8956,5.0446,5.0497,5.0582,5.0618,4.9756,4.9399,4.9399,4.8618,4.9664,5.1748,5.184,5.2362,5.3086,5.3177,5.3654,5.4271,0.0,2.5077,2.5342,2.5818,2.5567,2.552,2.612,2.6228,2.6303,2.6569,2.6494,2.6153,2.5483,2.5289,2.5049,2.4649,2.5083,2.5678,2.6363,2.6393,2.6704,2.7375,2.7405,2.7525,2.7794,2.8066,2.8081,2.7809,2.7946,2.759,2.6794,2.6659,2.6019,2.5008,2.5543,2.5809,2.5899,2.753,2.8502,2.8966,2.8846,2.9567,3.0758,3.121,3.1506,3.1936,3.3738,3.4562,3.4976,3.6001,3.591,3.5475,3.5989,3.5278,3.4297,3.4297,3.4398,3.45,3.45,3.5047,3.5831,3.6784,3.6902,0.0,3.7905,3.8464,3.865,3.821,3.9068,3.9795,3.9491,3.9795,4.0248,4.0657,4.0602,4.1471,4.4219,4.4985,4.5622,4.6574,4.6974,4.7461,4.823,4.7614,4.721,4.7323,4.6737,4.6305,4.614,4.614,4.6067,4.5902,4.5902,4.5605,4.5001,4.5596,4.5512,4.4763,4.6494,4.7626,4.8156,4.8588,4.9169,4.9784,4.8912,4.8545,4.8545,4.8379,4.9003,5.0133,5.0784,5.1536,5.2307,5.2957,5.3306,5.3434,2.5398,2.5701,2.6068,2.6444,2.6523,2.6676,2.7044,2.7106,2.7106,2.7106,2.6809,2.6467,2.6138,2.5809,2.5603,2.5603,2.6516,2.7242,2.757,2.7907,2.8108,2.8094,2.7779,2.76,2.76,2.7931,2.7944,2.76,2.7944,2.7587,2.6599,2.6599,2.5872,2.4634,2.5304,2.5603,2.5678,2.7036,2.8361,2.9594,2.9547,3.016,3.1086,3.1453,3.1989,3.2734,3.4108,3.4807,3.5261,3.6421,3.653,3.6197,3.6197,3.5955,3.5498,3.4736,3.4759,3.4979,3.4601,3.5047,3.5881,3.706,3.6772,0.0,0.0,3.7589,3.742,3.7809,3.8205,3.8572,3.8933,3.9305,3.9542,3.9542,3.9846,4.0584,4.1965,4.269,4.3755,4.5495,4.5471,4.578,4.6991,4.6537,4.6255,4.6479,4.6122,4.5718,4.5324,4.5296,4.5112,4.4718,4.4699,4.4419,4.3856,4.4147,4.4057,4.3561,4.4561,4.5541,4.6419,4.7034,4.7741,4.8516,4.8822,4.8958,4.8958,4.8958,4.9215,4.9684,5.049,5.1279,5.2097,5.2902,5.3196,5.3196,2.5824,2.631,2.6708,2.6708,2.7188,2.76,2.76,2.76,2.76,2.76,2.7136,2.6734,2.6614,2.6123,2.6108,2.6929,2.7615,2.8296,2.8916,2.9126,2.896,2.8423,2.8006,2.7675,2.7405,2.766,2.7735,2.76,2.76,2.727,2.6587,2.6333,2.5719,2.4799,2.5094,2.5435,2.5839,2.6363,2.7919,3.0063,3.0528,3.1217,3.1966,3.1979,3.2717,3.3855,3.4555,3.5133,3.5729,3.653,3.6795,3.6699,3.6203,3.6383,3.6581,3.5481,3.5487,3.5729,3.5284,3.5487,3.6169,3.7555,3.6862,3.6152,0.0,0.0,0.0,3.7268,3.733,3.7545,3.8582,3.8903,3.9,3.9,3.9491,3.9893,3.9893,4.0387,4.1684,4.4235,4.3837,4.4005,4.5586,4.5364,4.5206,4.5425,4.5443,4.5149,4.4498,4.4461,4.4176,4.3524,4.3401,4.3142,4.2693,4.2568,4.2555,4.2593,4.2873,4.3658,4.4946,4.5742,4.6582,4.7482,4.8666,4.9328,4.961,4.9592,4.9674,4.9894,5.0545,5.1206,5.1895,5.2847,5.3196,5.3196,2.7357,2.742,2.7486,2.7486,2.7534,2.76,2.76,2.76,2.76,2.76,2.7525,2.727,2.6659,2.6527,2.7003,2.8263,2.6885,2.7182,3.0088,2.8728,2.7793,2.772,2.8216,2.7931,2.6734,2.7887,2.8201,2.76,2.76,2.727,2.6569,2.5379,2.5053,2.5438,2.4317,2.4822,2.6494,2.6569,2.7113,2.8152,3.0521,3.2206,3.3286,3.3353,3.3802,3.4488,3.5217,3.5543,3.5729,3.653,3.6795,3.6897,3.7466,3.7246,3.6885,3.7364,3.711,3.6784,3.7364,3.7094,3.6868,3.7702,3.7291,3.6699,3.6885,0.0,3.7302,3.6107,0.0,3.8611,3.8113,0.0,0.0,3.9,3.9068,3.9119,3.9119,3.9739,4.0766,4.2334,4.3394,4.43,4.512,4.4926,4.4483,4.3828,4.3763,4.3726,4.3635,4.3635,4.3598,4.3506,4.3032,4.2769,4.2711,4.2172,4.1652,4.114,4.2399,4.3198,4.3576,4.4846,4.6148,4.7406,4.7578,4.8382,4.961,4.9545,4.9976,5.0674,5.0765,5.0857,5.1114,5.2645,5.3196,5.3196,2.76,2.76,2.76,2.76,2.7916,2.8051,2.766,2.7931,2.8186,2.8186,2.8186,2.8216,2.8321,2.7991,2.8128,2.9099,2.8763,2.9248,3.1016,3.0013,2.9506,2.9893,2.9067,2.8338,2.7769,2.7545,2.7303,2.7018,2.6629,2.6093,2.5423,2.4859,2.4963,2.5573,2.5005,2.5659,2.721,2.7602,2.8603,3.005,3.1571,3.3206,3.4636,3.388,3.4,3.4641,3.5352,3.56,3.565,3.5994,3.6705,3.733,3.6744,3.7263,3.7968,3.7427,3.7359,3.7499,3.7809,3.7347,3.6981,3.7719,3.698,3.6231,3.6682,3.6671,3.6507,3.6332,0.0,0.0,0.0,0.0,0.0,0.0,3.9356,3.9491,3.9068,3.9271,3.9954,4.1289,4.2335,4.3318,4.4245,4.4144,4.3873,4.3524,4.3506,4.3506,4.3506,4.3506,4.3506,4.3506,4.3277,4.3014,4.2693,4.2101,4.1501,4.0903,4.1179,4.1779,4.2625,4.3539,4.4974,4.6746,4.7567,4.8824,5.0288,5.027,5.0747,5.1499,5.1499,5.1499,5.1628,5.2774,5.3196,5.3196,2.76,2.76,2.76,2.76,2.7991,2.8216,2.7916,2.8291,2.8667,2.8846,2.903,2.9327,2.9824,2.9446,2.957,3.062,3.0472,3.0837,3.2042,3.1174,3.0636,3.074,2.9695,2.8786,2.8068,2.7455,2.7063,2.6869,2.6198,2.5722,2.5408,2.5053,2.5334,2.6138,2.5959,2.6617,2.7914,2.8382,2.9646,3.1393,3.2254,3.3575,3.4981,3.4374,3.4333,3.4648,3.5144,3.5339,3.5361,3.5563,3.6514,3.7449,3.6524,3.7229,3.8222,3.7359,3.7342,3.7686,3.8091,3.7652,3.7224,3.777,3.6913,3.6017,3.6395,3.6017,3.5763,3.6349,3.6818,0.0,0.0,0.0,3.9,3.9,0.0,3.9609,3.9085,3.9169,3.9562,4.0287,4.1354,4.2335,4.3174,4.3406,4.3436,4.3286,4.3418,4.3506,4.3506,4.3506,4.3506,4.3506,4.3366,4.3087,4.2693,4.2101,4.1578,4.1144,4.0755,4.1181,4.2317,4.2773,4.4025,4.5941,4.7183,4.8628,5.015,5.0618,5.1261,5.2024,5.2234,5.2325,5.2399,5.2976,5.3196,5.3196,2.76,2.76,2.76,2.76,2.7615,2.7839,2.8472,2.8592,2.8831,2.9473,3.0125,3.0545,3.0576,3.0545,3.1343,3.3304,3.1121,3.0726,3.3271,3.1655,2.9999,2.8654,2.9777,2.925,2.6719,2.7889,2.8216,2.757,2.6899,2.6884,2.748,2.6183,2.6273,2.751,2.6854,2.7305,2.8562,2.8592,2.9379,3.075,3.2068,3.3033,3.3799,3.5068,3.515,3.46,3.4612,3.4624,3.4739,3.5465,3.6205,3.6953,3.7618,3.7393,3.7004,3.7669,3.7381,3.7139,3.8577,3.843,3.786,3.7893,3.733,3.6564,3.5814,3.5616,3.56,3.5633,3.6828,3.786,3.7893,3.8497,3.9,3.9,3.9017,0.0,0.0,3.9609,3.9825,3.9143,4.0693,4.1825,4.1867,4.2856,4.3277,4.2769,4.3205,4.3506,4.3506,4.3506,4.3506,4.3506,4.2995,4.2721,4.2711,4.2101,4.18,4.1761,4.1739,4.2135,4.2878,4.2882,4.3679,4.5073,4.5905,4.7074,4.8508,5.0141,5.1261,5.2079,5.2847,5.3159,5.3159,5.3196,5.3196,5.3196,2.8248,2.8248,2.8126,2.7675,2.76,2.7824,2.8502,2.9735,3.0843,3.1557,3.1847,3.252,3.3895,3.3659,3.383,3.496,3.3376,3.3266,3.5547,3.3267,3.2081,3.258,3.2099,3.0987,2.922,2.9234,2.9154,2.8916,2.7354,2.717,2.8213,2.6451,2.6557,2.8231,2.7557,2.7767,2.8667,2.9505,3.0143,3.0759,3.2552,3.393,3.492,3.4934,3.4252,3.3326,3.3773,3.4223,3.4649,3.4896,3.5792,3.675,3.6456,3.6913,3.7483,3.7241,3.7342,3.7635,3.8142,3.7736,3.7291,3.7787,3.6947,3.6067,3.6332,3.5983,3.5752,3.6282,3.6818,3.7477,3.8447,3.8819,3.9169,3.9643,3.9728,3.9389,0.0,3.807,3.8002,3.8244,4.0008,4.1523,4.2322,4.2217,4.2414,4.3178,4.2898,4.2937,4.3469,4.3506,4.3506,4.3506,4.3312,4.3232,4.3232,4.2675,4.241,4.2382,4.1989,4.2142,4.2767,4.2767,4.3515,4.4811,4.5084,4.6083,4.7599,4.8682,4.9646,5.0482,5.1298,5.161,5.1728,5.281,5.3196,5.3196,2.8906,2.8757,2.8532,2.8349,2.852,2.8898,2.9557,3.1194,3.2602,3.332,3.3844,3.4564,3.565,3.5824,3.5832,3.5746,3.5148,3.5099,3.5886,3.4224,3.3406,3.3864,3.2988,3.1764,3.0208,3.0238,3.0046,2.9601,2.8526,2.8556,2.9611,2.7606,2.7485,2.8949,2.85,2.841,2.8697,3.0209,3.089,3.1117,3.3156,3.4463,3.5202,3.4757,3.3893,3.2951,3.3171,3.3534,3.3925,3.4174,3.503,3.5966,3.5695,3.6276,3.698,3.6518,3.6705,3.7133,3.7432,3.7156,3.6902,3.7381,3.6755,3.6096,3.6315,3.5966,3.5831,3.6631,3.6795,3.7156,3.8391,3.8819,3.9153,3.9626,3.9943,3.9677,0.0,3.812,3.8053,3.8261,3.9796,4.1042,4.157,4.1689,4.1887,4.2302,4.2303,4.2525,4.3047,4.3341,4.3506,4.3506,4.3506,4.3506,4.3506,4.316,4.2986,4.2976,4.2599,4.2609,4.2986,4.2986,4.347,4.4287,4.4571,4.5287,4.6324,4.7416,4.8205,4.882,4.9903,5.0343,5.0527,5.1867,5.2352,5.2352,2.9473,2.9144,2.8936,2.9533,3.0188,3.0869,3.1543,3.2813,3.396,3.4711,3.5929,3.6516,3.5912,3.7012,3.7253,3.5886,3.633,3.6111,3.4712,3.459,3.3945,3.2621,3.261,3.1749,2.9788,3.0987,3.1035,2.9788,3.0305,3.094,3.1641,2.9609,2.9011,2.9638,2.9683,2.9294,2.8727,3.0673,3.1558,3.1823,3.377,3.4597,3.4637,3.4568,3.414,3.3468,3.2874,3.2668,3.2803,3.343,3.4099,3.4759,3.5396,3.56,3.56,3.56,3.56,3.5763,3.653,3.6745,3.675,3.6795,3.6767,3.6547,3.5814,3.5616,3.5831,3.6631,3.6795,3.7038,3.7821,3.8531,3.9005,3.9051,3.9609,3.9795,3.9102,3.9559,3.9745,3.9085,3.9967,4.0415,3.9869,4.125,4.1671,4.0402,4.1518,4.2268,4.2304,4.3065,4.3506,4.3506,4.3506,4.3506,4.3506,4.3506,4.3506,4.3506,4.3506,4.3506,4.3506,4.3506,4.3506,4.3543,4.4305,4.4645,4.4755,4.6324,4.6984,4.7131,4.871,4.9362,4.9537,5.0453,5.0802,5.0802,2.9577,3.0223,3.0658,3.0328,3.0865,3.1559,3.2243,3.303,3.4202,3.6023,3.6053,3.6455,3.7919,3.7915,3.788,3.8028,3.719,3.6938,3.7696,3.6175,3.5094,3.479,3.4758,3.3799,3.1809,3.3051,3.332,3.2509,3.1655,3.1851,3.2963,3.0502,2.9683,3.0283,3.0792,3.0119,2.8727,3.0673,3.1832,3.2431,3.3462,3.4449,3.5239,3.4248,3.4053,3.4236,3.358,3.3659,3.4112,3.4284,3.48,3.5373,3.5554,3.56,3.56,3.56,3.56,3.5661,3.5847,3.5898,3.605,3.6648,3.6349,3.6,3.6411,3.6028,3.5831,3.6631,3.6795,3.7202,3.8493,3.887,3.9186,3.9728,3.9525,3.922,3.9034,3.8684,3.8599,3.8954,3.9475,4.0184,4.1162,4.0927,4.1016,4.1697,4.1532,4.1672,4.2268,4.3065,4.3506,4.3506,4.3506,4.3506,4.3506,4.3506,4.3506,4.3506,4.3506,4.3506,4.3506,4.3506,4.3506,4.3506,4.3726,4.3818,4.3892,4.4902,4.5324,4.5415,4.6434,4.6829,4.7177,4.9829,5.0802,5.0802,3.0372,3.1241,3.1914,3.1824,3.214,3.2679,3.3415,3.4573,3.5827,3.7071,3.7122,3.7397,3.8309,3.833,3.8175,3.7916,3.7098,3.6828,3.7381,3.6508,3.584,3.5568,3.5551,3.459,3.2527,3.3245,3.3456,3.3101,3.2019,3.2185,3.3444,3.109,3.0164,3.0521,3.0889,3.0316,2.9142,3.0838,3.2286,3.3508,3.3892,3.4669,0.0,3.4757,3.4722,3.4993,3.4607,3.4333,3.4211,3.4503,3.4859,3.5219,3.5504,3.56,3.56,3.56,3.56,3.56,3.56,3.56,3.5712,3.6163,3.5932,3.5729,3.618,3.5932,3.5915,3.7043,3.7021,3.7241,3.873,3.9,3.9237,3.9977,3.9745,3.9372,3.9051,3.892,3.8899,3.9,3.9893,4.0855,4.1722,4.1082,4.0636,4.072,4.1268,4.1672,4.1764,4.2882,4.3506,4.3506,4.3506,4.3506,4.3506,4.3506,4.3506,4.3506,4.3506,4.3506,4.3506,4.3506,4.3506,4.3506,4.3506,4.3506,4.3543,4.3993,4.4034,4.3916,4.4709,4.5379,4.6122,4.7976,4.8655,4.8655,3.1563,3.2182,3.2781,3.3275,3.3591,3.4088,3.4988,3.6475,3.7612,3.7923,3.8426,3.8553,3.8007,3.8344,3.8101,3.6858,3.6569,3.6275,3.583,3.6212,3.6259,3.5829,3.5661,3.4758,3.2946,3.2721,3.2701,3.2852,3.1931,3.223,3.3598,3.1557,3.0722,3.0901,3.0898,3.0516,2.9946,3.12,3.2686,3.4242,3.4587,3.5075,3.56,3.56,3.56,3.56,3.56,3.4852,3.395,3.4528,3.4736,3.483,3.5424,3.56,3.56,3.56,3.56,3.56,3.56,3.56,3.56,3.56,3.56,3.56,3.56,3.56,3.6005,3.7466,3.7325,3.7359,3.8746,3.9085,3.9356,3.9994,4.0096,3.9893,3.9237,3.9694,3.9846,3.922,4.0623,0.0,4.1641,4.1415,4.0681,3.9268,4.102,4.1874,4.1287,4.258,4.3396,4.3506,4.3506,4.3506,4.3506,4.3506,4.3506,4.3506,4.3506,4.3506,4.3506,4.3506,4.3506,4.3506,4.3506,4.3506,4.3506,4.3506,4.3223,4.2861,4.3364,4.4405,4.5571,4.5461,4.5498,4.5617,3.2582,3.2937,3.3185,3.2751,3.409,3.571,3.7123,3.6571,3.6662,3.8539,3.8321,3.8177,3.8663,3.7685,3.7158,3.7559,3.643,3.618,3.7324,3.6321,3.6196,3.7354,3.6183,3.5365,3.5059,3.391,3.3606,3.4165,3.2391,3.2472,3.428,3.2211,3.1885,3.3055,3.2999,3.2324,3.129,3.2095,3.2313,3.2309,3.4537,3.5492,3.56,3.56,3.56,3.56,3.56,3.5447,3.527,3.5385,3.5419,3.5447,3.5549,3.56,3.56,3.56,3.56,3.56,3.56,3.56,3.56,3.56,3.56,3.56,3.56,3.56,3.5864,3.6801,3.7364,3.7973,3.8848,3.9491,3.996,4.0079,4.0096,4.0049,3.9926,4.0028,4.0045,3.9926,4.045,4.082,4.082,4.1587,4.1966,4.1699,4.1452,4.1544,4.2066,4.2359,4.28,4.3469,4.3506,4.3506,4.3506,4.3506,4.3506,4.3506,4.3506,4.3506,4.3506,4.3506,4.3506,4.3506,4.3506,4.3506,4.3506,4.3506,4.3444,4.3257,4.224,4.2696,4.3836,4.3185,4.3351,4.4112,3.3174,3.3608,3.3919,3.3589,3.4937,3.6444,3.7571,3.7405,3.7711,3.9254,3.8745,3.8225,3.8216,3.7557,3.7126,3.716,3.6508,3.6399,3.713,3.7233,3.7233,3.7189,3.6875,3.6168,3.5049,3.3683,3.3668,3.5064,3.2702,3.2775,3.5077,3.3309,3.2881,3.3579,3.3166,3.2831,3.2615,3.2925,3.2878,3.2729,3.4412,3.4871,3.4556,3.4556,3.4556,3.4556,3.4556,3.4556,3.4669,3.5379,3.56,3.56,3.56,3.56,3.56,3.56,3.56,3.56,3.56,3.56,3.56,3.56,3.56,3.56,3.56,3.56,3.5831,3.6631,3.7393,3.8244,3.9356,3.9846,4.0096,4.0096,4.0096,4.0096,4.0096,4.0096,4.0096,4.0096,4.0486,4.076,4.076,4.1533,4.176,4.1097,4.1204,4.1426,4.1664,4.1807,4.2374,4.3461,4.3506,4.3506,4.3506,4.3506,4.3506,4.3506,4.3506,4.3506,4.3506,4.3506,4.3357,4.3096,4.3096,4.2912,4.2591,4.2289,4.2339,4.2519,4.1409,4.1858,4.3014,4.2495,4.28,4.3616,3.4135,3.4568,3.4938,3.4938,3.591,3.6987,3.7912,3.8326,3.888,3.9749,3.9157,3.8433,3.792,3.7577,3.7173,3.6646,3.6615,3.6615,3.6615,3.7743,3.796,3.6904,3.7145,3.6565,3.4982,3.3336,3.3426,3.5346,3.3001,3.3071,3.5414,3.444,3.3911,3.3769,3.3034,3.2932,3.3285,3.3287,3.3385,3.3568,3.4145,3.4161,3.3799,3.3646,3.3595,3.3595,3.3595,3.3595,3.3761,3.4812,3.5282,3.5407,3.5566,3.56,3.56,3.56,3.56,3.56,3.56,3.56,3.56,3.56,3.56,3.56,3.56,3.56,3.5831,3.6631,3.7511,3.8481,3.9643,3.9994,4.0096,4.0096,4.0096,4.0096,4.0096,4.0096,4.0096,4.0096,4.0577,4.0851,4.0678,4.1211,4.1076,3.9893,4.0601,4.1134,4.1239,4.1134,4.1712,4.3087,4.3132,4.3132,4.3132,4.3132,4.3132,4.3132,4.3132,4.3132,4.3132,4.3132,4.2921,4.2509,4.2509,4.2234,4.175,4.1155,4.1257,4.1711,4.0909,4.1454,4.2661,4.2408,4.28,4.3506,3.6184,3.6308,3.6314,3.6314,3.6866,3.7818,3.9273,3.8886,3.8754,3.9689,3.9207,3.8762,3.8683,3.7494,3.6677,3.6615,3.6615,3.6615,3.6615,3.6737,3.7084,3.7661,3.643,3.5928,3.6399,3.3849,3.3154,3.4519,3.3218,3.3287,3.4624,3.5218,3.5098,3.4387,3.3722,3.3099,3.259,3.2587,3.2983,3.3599,3.3666,3.4025,3.4443,3.3836,3.3595,3.3595,3.3595,3.3595,3.362,3.3735,3.4186,3.4795,3.5407,3.56,3.56,3.56,3.56,3.56,3.56,3.56,3.56,3.56,3.56,3.56,3.56,3.56,3.5831,3.6631,3.7917,3.8937,3.9085,3.9643,4.0096,4.0096,4.0096,4.0096,4.0096,4.0096,4.0096,4.0096,4.0577,4.0643,3.9979,4.0453,4.0451,3.9605,3.9619,4.0284,4.1656,4.0436,4.0382,4.1915,4.1969,4.1969,4.1969,4.1969,4.1969,4.1969,4.1969,4.1969,4.1969,4.1969,4.1937,4.1885,4.1885,4.1853,4.175,4.1155,4.1257,4.1711,4.0909,4.1454,4.2661,4.2408,4.28,4.3506,3.6937,3.7056,3.7045,3.7045,3.7569,3.8217,3.8838,3.8968,3.9116,3.9506,3.898,3.8412,3.8013,3.7109,3.6383,3.5957,3.6783,3.713,3.6615,3.7916,3.8428,3.7836,3.763,3.7469,3.7322,3.5425,3.4872,3.5786,3.491,3.4963,3.587,3.5715,3.5233,3.4489,3.4231,3.3946,3.3695,3.371,3.3404,3.2975,3.3424,3.3245,3.2716,3.2448,3.2338,3.2338,3.2338,3.2338,3.2407,3.2853,3.371,3.4652,3.4918,3.5276,3.56,3.56,3.56,3.56,3.56,3.56,3.56,3.56,3.56,3.56,3.56,3.56,3.5684,3.6,3.6924,3.7816,3.8261,3.8937,3.944,3.944,3.9808,4.0096,4.0096,4.0096,4.0096,4.0096,3.9895,3.9631,3.9341,3.9141,3.9065,3.9198,3.9103,3.9621,4.1015,4.0182,4.033,4.1764,4.181,4.181,4.181,4.181,4.181,4.181,4.181,4.181,4.181,4.181,4.1599,4.1246,4.0914,4.0779,4.0755,4.0521,4.0558,4.0781,4.0643,4.1242,4.2174,4.2257,4.28,4.3506,3.7569,3.7836,3.8045,3.8257,3.8676,3.8975,3.8975,3.9212,3.9406,3.9406,3.8843,3.8277,3.7792,3.7024,3.6329,3.586,3.704,3.7456,3.6645,3.837,3.8941,3.7851,3.8288,3.833,3.7806,3.6636,3.6128,3.6374,3.6141,3.6051,3.6118,3.5763,3.5323,3.481,3.4601,3.45,3.4489,3.4286,3.3781,3.3135,3.3265,3.2705,3.1796,3.1582,3.1511,3.1511,3.1511,3.1511,3.1582,3.2106,3.3182,3.4346,3.454,3.5063,3.56,3.56,3.56,3.56,3.56,3.56,3.56,3.56,3.56,3.56,3.56,3.56,3.56,3.56,3.6231,3.6953,3.7483,3.8362,3.9,3.9,3.9609,4.0096,4.0096,4.0096,4.0096,4.0096,3.9643,3.9237,3.9017,3.8531,3.8447,3.8954,3.887,3.9276,4.0381,3.9887,4.0193,4.1589,4.1618,4.1618,4.1618,4.1618,4.1513,4.1297,4.1297,4.1297,4.1297,4.1297,4.107,4.0631,4.0262,4.0096,4.0096,4.0096,4.0096,4.0153,4.0725,4.1301,4.1866,4.2432,4.301,4.3506,3.826,3.8931,3.9586,4.0247,4.0367,4.0382,4.0382,3.981,3.9406,3.9406,3.8937,3.8578,3.8594,3.7405,3.66,3.66,3.7338,3.7456,3.6645,3.7382,3.7822,3.7807,3.7822,3.7822,3.7807,3.7128,3.6414,3.5613,3.64,3.6013,3.4539,3.5256,3.56,3.5549,3.4827,3.45,3.4456,3.3792,3.3921,3.4451,3.313,3.26,3.2506,3.1782,3.1511,3.1511,3.1511,3.1511,3.1511,3.1511,3.2448,3.3722,3.4394,3.5063,3.56,3.56,3.56,3.56,3.56,3.56,3.56,3.56,3.56,3.56,3.56,3.56,3.56,3.56,3.6231,3.6795,3.6812,3.8019,3.9,3.9,3.9609,4.0096,4.0096,4.0096,4.0096,4.0096,4.0096,3.9795,3.9068,3.8988,3.9,3.9,3.9,3.9317,4.007,3.9402,3.9677,4.1149,4.12,4.12,4.12,4.12,4.084,4.0121,4.0121,4.0121,4.0121,4.0121,4.0121,4.0108,4.0096,4.0096,4.0096,4.0096,4.0096,4.0204,4.1335,4.1793,4.1948,4.306,4.3488,4.3506,3.896,3.9257,3.9466,3.9675,3.9705,3.9705,3.9705,3.9541,3.961,4.022,3.9731,3.9578,4.0176,3.8549,3.7427,3.7427,3.8119,3.8232,3.7471,3.8638,3.9116,3.8566,3.9076,3.9375,3.9375,3.8672,3.7928,3.7164,3.7419,3.704,3.6073,3.6823,3.6896,3.6411,3.6175,3.6073,3.6011,3.5256,3.4537,3.3887,3.3456,3.272,3.1824,3.1582,3.178,3.2108,3.166,3.1795,3.2108,3.1645,3.2448,3.3633,3.3849,3.4693,3.56,3.56,3.56,3.56,3.56,3.56,3.56,3.56,3.56,3.56,3.56,3.56,3.5763,3.6299,3.6615,3.6953,3.7449,3.8345,3.9,3.9,3.9609,4.0096,4.0096,4.0096,4.0096,4.0096,3.966,3.9254,3.9017,3.8548,3.8464,3.8954,3.9,3.9322,4.0062,3.9893,4.0202,4.117,4.1204,4.1441,4.1931,4.1457,4.1085,4.0849,4.0849,4.0849,4.0832,4.032,4.0096,4.0096,4.0096,4.0096,4.0096,4.0096,4.0096,4.0167,4.0897,4.1446,4.1877,4.2666,4.3187,4.3506,3.9316,3.9601,3.9765,3.9765,3.9765,3.9892,4.0207,4.0049,4.0202,4.1063,4.0592,4.0396,4.0945,3.9603,3.8541,3.8232,3.8635,3.8704,3.8232,3.9116,3.9571,3.9355,3.9821,4.0096,4.0096,3.9643,3.9051,3.8311,3.7753,3.7381,3.7224,3.7398,3.7241,3.6801,3.6517,3.6226,3.5929,3.5169,3.4215,3.3222,3.3222,3.253,3.1511,3.1511,3.1914,3.2407,3.1735,3.1929,3.2407,3.1735,3.2448,3.3595,3.3595,3.4524,3.56,3.56,3.56,3.56,3.56,3.56,3.56,3.56,3.56,3.56,3.56,3.56,3.5746,3.6248,3.6581,3.6936,3.7398,3.8323,3.9,3.9,3.9609,4.0096,4.0096,4.0096,4.0096,4.0096,3.9694,3.9406,3.9406,3.9,3.8916,3.9389,3.9665,3.9914,4.0096,4.0354,4.0849,4.1593,4.1884,4.2239,4.2709,4.2269,4.1897,4.161,4.1339,4.1204,4.117,4.0438,4.0096,4.0096,4.0096,4.0096,4.0096,4.0096,4.0096,4.0159,4.0691,4.1279,4.1874,4.248,4.3032,4.3506,3.9406,3.9885,4.0337,4.0337,4.0377,4.0695,4.1507,4.1143,4.1097,4.1981,4.1503,4.1091,4.1099,4.0548,3.9833,3.8962,3.8894,3.8894,3.8894,3.8854,3.9166,3.9978,4.002,4.0045,4.0096,4.0096,3.974,3.9,3.7562,3.7257,3.7973,3.7224,3.6897,3.6913,3.6081,3.5325,3.4634,3.3903,3.3209,3.26,3.26,3.2162,3.1511,3.1555,3.1959,3.2422,3.1795,3.1974,3.2422,3.1792,3.2475,3.3608,3.3646,3.4572,3.56,3.56,3.56,3.56,3.56,3.56,3.56,3.56,3.56,3.56,3.56,3.56,3.5633,3.5735,3.6366,3.6902,3.7015,3.8154,3.9085,3.9085,3.9643,4.0096,4.0096,4.0096,4.0096,4.0096,4.0096,4.0096,4.0096,4.0096,4.0096,4.0096,4.0743,4.0849,4.0214,4.0882,4.1593,4.2283,4.3017,4.344,4.349,4.344,4.3051,4.2367,4.1576,4.1238,4.1255,4.0455,4.0096,4.0096,4.0096,4.0096,4.0096,4.0096,4.0096,4.0159,4.0691,4.1279,4.1874,4.248,4.3032,4.3506,3.9406,3.9526,3.9631,3.9631,4.0198,4.0713,4.0904,4.1373,4.2013,4.2878,4.2366,4.1943,4.1997,4.1353,4.0391,3.9011,3.8894,3.8894,3.8894,3.8372,3.8402,3.9139,3.9179,3.9476,4.0083,4.0096,3.974,3.9,3.8091,3.8024,3.8717,3.7973,3.7939,3.8401,3.653,3.5593,3.5358,3.4113,3.3209,3.26,3.26,3.2162,3.1555,3.2078,3.2362,3.2482,3.2318,3.2362,3.2481,3.2375,3.2893,3.3684,3.4198,3.4918,3.56,3.56,3.56,3.56,3.56,3.56,3.56,3.56,3.56,3.56,3.56,3.56,3.5921,3.7116,3.7516,3.7973,3.9102,3.9592,3.9829,3.9829,3.9994,4.0096,4.0096,4.0096,4.0096,4.0096,4.0096,4.0096,4.0096,4.0096,4.0096,4.0096,4.0265,4.0523,4.0916,4.1644,4.213,4.23,4.3017,4.3693,4.4313,4.3724,4.3304,4.3118,4.183,4.1491,4.2012,4.0692,4.0096,4.0096,4.0096,4.0096,4.0096,4.0096,4.0096,4.0159,4.0691,4.1279,4.1874,4.248,4.3032,4.3506,3.9406,3.9406,3.9406,3.9406,4.0115,4.0707,4.0707,4.1445,4.2061,4.2222,4.1616,4.1195,4.1276,4.0608,3.9967,3.9484,3.9113,3.8759,3.8414,3.833,3.8483,3.8881,3.9262,3.9649,4.0083,4.0096,3.991,3.9491,3.843,3.8278,3.8983,3.7889,3.7424,3.7435,3.5916,3.4878,3.422,3.3101,3.242,3.2106,3.2106,3.1867,3.154,3.1899,3.2422,3.2916,3.2602,3.2691,3.2946,3.3003,3.3262,3.3662,3.3993,3.4785,3.5532,3.5188,3.534,3.56,3.56,3.56,3.5695,3.6062,3.6146,3.6248,3.6575,3.6389,3.6485,3.7657,3.8176,3.865,3.9457,3.9863,4.0096,4.0096,4.0096,4.0096,4.0096,4.0096,4.0096,4.0096,4.0096,4.0096,4.0096,4.0096,4.0235,4.0574,4.0912,4.1284,4.1677,4.2756,4.3179,4.2811,4.3555,4.4147,4.4615,4.4178,4.3944,4.3927,4.2422,4.1914,4.2249,4.076,4.0096,4.0096,4.0096,4.0096,4.0096,4.0096,4.0096,4.0159,4.0691,4.1279,4.1874,4.248,4.3032,4.3506,3.9406,3.9406,3.9406,3.9406,4.0237,4.0844,4.0724,4.1658,4.2089,4.1303,4.0638,4.0269,4.028,3.956,3.9315,3.9876,3.9289,3.8635,3.8007,3.8328,3.866,3.8894,3.9542,3.9982,4.0096,3.9994,3.9994,4.0096,3.8616,3.8278,3.8966,3.7383,3.6293,3.5667,3.4778,3.3711,3.2561,3.181,3.1511,3.1511,3.1511,3.1511,3.1511,3.1615,3.2362,3.3275,3.2691,3.2871,3.3367,3.3484,3.3547,3.361,3.3646,3.4553,3.5459,3.4726,3.503,3.56,3.56,3.5695,3.5949,3.6631,3.688,3.7105,3.7618,3.7342,3.7173,3.7922,3.8565,3.9022,3.9153,3.9677,4.0096,4.0096,4.0096,4.0096,4.0096,4.0096,4.0096,4.0096,4.0197,4.0269,4.0269,4.0367,4.0692,4.1322,4.1948,4.235,4.2455,4.3704,4.4147,4.3592,4.4245,4.4649,4.4753,4.477,4.477,4.4753,4.3196,4.2472,4.2422,4.0929,4.0269,4.0265,4.0146,4.0096,4.0096,4.0096,4.0159,4.0291,4.0815,4.1413,4.2,4.2598,4.3114,4.3506,3.9406,3.9406,3.9406,3.9406,4.074,4.156,4.0811,4.2691,4.3664,4.2213,4.1962,4.1701,4.1085,4.0369,3.9688,3.9126,3.8962,3.8854,3.8745,3.7613,3.754,3.884,3.9032,3.9394,4.0083,3.9491,3.9474,4.0096,3.8616,3.8278,3.8954,3.6852,3.5819,3.5622,3.3755,3.2802,3.2561,3.181,3.1511,3.1511,3.1511,3.1511,3.157,3.2138,3.2467,3.2632,3.2542,3.2572,3.2749,3.3361,3.3588,3.3698,3.4184,3.4919,3.5459,3.4726,3.503,3.56,3.56,3.6096,3.6631,3.6778,3.7274,3.7601,3.7088,3.7347,3.7939,3.8667,3.892,3.9186,3.9808,4.0028,4.0096,4.0096,4.0096,4.0096,4.0096,4.0096,4.0096,4.0096,4.0658,4.1035,4.1035,4.1593,4.2012,4.213,4.2249,4.2574,4.3203,4.3457,4.3842,4.4398,4.4533,4.4905,4.5517,4.5534,4.5534,4.5517,4.3964,4.3237,4.3186,4.1711,4.1035,4.0984,4.0371,4.0096,4.0096,4.0096,4.0368,4.0839,4.1424,4.2021,4.2635,4.316,4.3427,4.3506,3.9406,3.9406,3.9406,3.9406,4.0447,4.1163,4.076,4.2125,4.2799,4.1701,4.1221,4.0904,4.0638,3.9914,3.9476,3.9542,3.9139,3.9086,3.9516,3.8481,3.8157,3.8867,3.9315,3.9731,4.0083,3.9762,3.9757,4.0096,3.9017,3.8464,3.8367,3.6559,3.5304,3.4511,3.3181,3.2382,3.1979,3.1654,3.1511,3.1524,3.1923,3.1853,3.1614,3.2651,3.3033,3.3081,3.3454,3.3586,3.3697,3.4421,3.4437,3.4166,3.4427,3.4726,3.4945,3.4601,3.503,3.56,3.56,3.6473,3.7381,3.7381,3.7939,3.8497,3.8572,3.8526,3.87,3.944,3.9592,3.9694,4.0045,4.0096,4.0096,4.0096,4.0096,4.0096,4.0096,4.0438,4.0679,4.0679,4.1339,4.1779,4.1779,4.2113,4.2455,4.2861,4.2882,4.3234,4.4012,4.4045,4.4228,4.4598,4.499,4.5348,4.5703,4.5703,4.5703,4.5672,4.415,4.3406,4.3372,4.2286,4.1576,4.1187,4.0832,4.0472,4.0121,4.0417,4.0679,4.0995,4.1916,4.246,4.2769,4.3294,4.3506,4.3506,3.9406,3.9433,3.9429,3.9412,4.0309,4.0975,4.0744,4.1772,4.2212,4.1138,4.0677,4.0364,4.0144,3.9541,3.9437,4.0045,3.9545,3.945,4.0058,3.9516,3.9179,3.9179,3.9769,4.0096,4.0096,4.0096,4.0096,4.0096,3.9356,3.8616,3.7865,3.6233,3.4811,3.3556,3.272,3.2021,3.1511,3.1511,3.1511,3.1539,3.212,3.2099,3.1867,3.3081,3.373,3.4046,3.4402,3.4659,3.4844,3.5233,3.5029,3.4591,3.4516,3.4618,3.4726,3.455,3.5148,3.5881,3.5881,3.6744,3.7686,3.7872,3.8447,3.9153,3.9711,3.9542,3.9423,3.9982,4.0096,4.0096,4.0096,4.0096,4.0096,4.0096,4.0096,4.0163,4.032,4.0832,4.1271,4.1441,4.2117,4.2557,4.2557,4.2709,4.3078,4.3639,4.3676,4.3944,4.4581,4.4615,4.4615,4.4615,4.5314,4.5703,4.5703,4.5872,4.5872,4.5703,4.4674,4.4015,4.366,4.3081,4.2422,4.1681,4.1343,4.0955,4.0579,4.0807,4.1064,4.1413,4.2342,4.2779,4.2939,4.3357,4.3506,4.3506,3.9406,3.9504,3.9537,3.943,4.0891,4.179,4.0852,4.2799,4.3587,4.1288,4.1655,4.1609,4.0256,4.0054,4.0033,4.0083,4.0045,4.0033,4.01,4.0045,4.002,4.002,4.007,4.0096,4.0096,4.0096,4.0096,4.0096,3.9356,3.8616,3.7853,3.5751,3.4348,3.3543,3.2202,3.1539,3.1511,3.1511,3.1511,3.1496,3.1553,3.1928,3.2526,3.3351,3.4412,3.5389,3.4856,3.5083,3.5513,3.4889,3.4637,3.4591,3.4516,3.4979,3.5391,3.4692,3.5549,3.6699,3.6699,3.6795,3.7054,3.7736,3.8447,3.9005,3.9068,3.9559,4.0028,4.0096,4.0096,4.0096,4.0096,4.0096,4.0096,4.0096,4.0096,4.0337,4.1018,4.117,4.1457,4.2147,4.2865,4.3321,4.3321,4.3995,4.4448,4.4499,4.4499,4.4533,4.4615,4.4615,4.4615,4.4615,4.5314,4.5703,4.5703,4.638,4.638,4.572,4.6278,4.5836,4.4499,4.4462,4.3992,4.3169,4.1783,4.1498,4.1899,4.118,4.1556,4.2586,4.2682,4.2995,4.3444,4.3497,4.3506,4.3506,3.8871,3.9223,3.9608,3.9598,4.0592,4.1587,4.2219,4.3154,4.3491,4.2613,4.2382,4.191,4.0882,4.0371,4.0096,4.0096,4.0096,4.0096,4.0096,4.0096,4.0096,4.0096,4.0096,4.0096,4.0096,4.0096,4.0096,4.0096,3.9812,3.8836,3.7186,3.5968,3.4526,3.2949,3.1937,3.1511,3.1525,3.1929,3.2108,3.2183,3.3027,3.3258,3.3307,3.4952,3.5579,3.5631,3.586,3.6108,3.6215,3.5481,3.5219,3.5231,3.5189,3.5053,3.4861,3.4584,3.5233,3.6163,3.6648,3.7472,3.8239,3.8514,3.9136,3.9677,3.9677,3.991,4.0096,4.0096,4.0096,4.0096,4.0096,4.0096,4.0096,4.0096,4.0096,4.0197,4.0472,4.1318,4.1982,4.2266,4.3399,4.413,4.413,4.4415,4.4615,4.4615,4.4615,4.4615,4.4615,4.4615,4.4615,4.4615,4.4871,4.5229,4.5703,4.5974,4.5974,4.5703,4.5531,4.5142,4.4615,4.4615,4.3907,4.2719,4.2527,4.2034,4.14,4.1838,4.2292,4.2722,4.3078,4.333,4.3506,4.3506,4.3506,4.3506,3.8182,3.8771,3.9416,3.9656,4.0625,4.1784,4.3098,4.3333,4.3253,4.3067,4.2405,4.166,4.0933,4.0405,4.0096,4.0096,4.0096,4.0096,4.0096,4.0096,4.0096,4.0096,4.0096,4.0096,4.0096,4.0096,4.0096,4.0096,4.0096,3.8971,3.6785,3.6335,3.4852,3.259,3.2277,3.2004,3.1854,3.2527,3.2811,3.2886,3.3588,3.3845,3.4,3.5745,3.6359,3.6386,3.7147,3.7423,3.727,3.6306,3.5983,3.5932,3.5667,3.5256,3.4895,3.5143,3.574,3.649,3.7274,3.8391,3.9288,3.9068,3.9389,3.9825,4.0045,4.0096,4.0096,4.0096,4.0096,4.0096,4.0096,4.0096,4.0096,4.0096,4.0096,4.0265,4.0739,4.1657,4.2486,4.2959,4.3958,4.4615,4.4615,4.4615,4.4615,4.4615,4.4615,4.4615,4.4615,4.4615,4.4615,4.4615,4.4615,4.4838,4.5348,4.5585,4.5585,4.5348,4.5311,4.5055,4.4615,4.4838,4.4245,4.3034,4.3142,4.2708,4.1927,4.2468,4.2807,4.2986,4.3366,4.3506,4.3506,4.3506,4.3506,4.3506,3.7404,3.8166,3.8991,3.96,4.1148,4.2515,4.3195,4.3351,4.3135,4.2388,4.166,4.0933,4.018,4.0113,4.0113,4.0096,4.0096,4.0096,4.0096,4.0096,4.0096,4.0096,4.0096,4.0096,4.0096,4.0096,4.0096,4.0096,4.0096,3.8971,3.6788,3.6794,3.5298,3.2623,3.323,3.3125,3.2542,3.3215,3.3499,3.3455,3.2781,3.3317,3.4598,3.5486,3.6642,3.791,3.8706,3.9,3.8768,3.7303,3.6795,3.6648,3.5847,3.56,3.5763,3.6564,3.7325,3.8063,3.8802,3.9525,3.9926,3.9186,3.9017,3.9203,3.9943,4.0096,4.0096,4.0096,4.0096,4.0096,4.0096,4.0096,4.0096,4.0096,4.0096,4.062,4.208,4.23,4.2875,4.4398,4.4598,4.4584,4.4615,4.4598,4.4598,4.4598,4.4598,4.4598,4.4598,4.4598,4.4615,4.4615,4.4615,4.4615,4.4615,4.5331,4.5314,4.4632,4.609,4.6022,4.4618,4.5348,4.5294,4.4538,4.3606,4.351,4.3914,4.3058,4.3014,4.3506,4.3506,4.3506,4.3506,4.3506,4.3506,4.3506,3.7524,3.8215,3.9049,3.9836,4.084,4.1767,4.2494,4.2625,4.2354,4.1627,4.1779,4.1487,4.0248,4.0557,4.0658,4.0146,4.0096,4.0096,4.0096,4.0096,4.0096,4.0096,4.0096,4.0096,4.0096,4.0096,4.0096,4.0096,4.0096,3.8979,3.6813,3.6803,3.5524,3.3245,3.3411,3.338,3.3215,3.341,3.3774,3.4175,3.3976,3.4457,3.5413,3.6702,3.7459,3.791,3.8706,3.9,3.8768,3.7303,3.6795,3.6648,3.5847,3.5994,3.6496,3.6728,3.7325,3.8063,3.8802,3.9169,3.9406,3.9694,3.9762,3.9842,4.0045,4.0096,4.0096,4.0096,4.0096,4.0096,4.0096,4.0096,4.0096,4.0096,4.0096,4.0248,4.0692,4.164,4.2469,4.2926,4.3436,4.3978,4.4564,4.4519,4.4673,4.518,4.5232,4.5232,4.5232,4.4828,4.4615,4.4615,4.4615,4.4615,4.4615,4.4821,4.4821,4.4615,4.5055,4.5024,4.4615,4.4821,4.4443,4.3614,4.3714,4.3499,4.3104,4.3205,4.3366,4.3506,4.3506,4.3506,4.3506,4.3506,4.3506,4.3506,3.7187,3.8088,3.9186,4.0329,4.1154,4.188,4.2625,4.2489,4.2033,4.1305,4.1322,4.1081,4.0197,4.0506,4.0591,4.0146,4.0371,4.0405,4.013,4.0371,4.0405,4.0113,4.0096,4.0096,4.0096,4.0096,4.0096,4.0096,3.9782,3.8669,3.6804,3.675,3.5558,3.3514,3.4053,3.4143,3.3904,3.3904,3.4273,3.4854,3.4312,3.4717,3.5689,3.6626,3.7154,3.7532,3.8633,3.9,3.8865,3.7968,3.7274,3.6648,3.5847,3.6146,3.6863,3.7156,3.7753,3.8497,3.9237,3.944,3.9542,3.9994,4.0096,4.0096,4.0096,4.0096,4.0096,4.0096,4.0096,4.0096,4.0096,4.0096,4.0096,4.0096,4.0096,4.0299,4.0878,4.1487,4.2083,4.2675,4.3135,4.3592,4.4079,4.4568,4.5119,4.5793,4.5635,4.5511,4.5511,4.4934,4.4615,4.4615,4.4615,4.4615,4.4615,4.4615,4.4615,4.4615,4.4615,4.4615,4.4615,4.4615,4.4293,4.3761,4.3921,4.3708,4.323,4.3415,4.3506,4.3506,4.3506,4.3506,4.3506,4.3506,4.3506,4.3506,3.6798,3.7992,3.9462,4.0943,4.1764,4.2422,4.3102,4.2591,4.186,4.1187,4.0574,4.0168,4.0113,4.0163,4.0168,4.0113,4.0696,4.0815,4.0146,4.0743,4.0798,4.013,4.0096,4.0096,4.0096,4.0096,4.0096,4.0096,3.9289,3.821,3.6902,3.6697,3.5554,3.3724,3.4966,3.5131,3.4503,3.4444,3.4758,3.5225,3.4011,3.4314,3.5523,3.5725,3.6221,3.6981,3.8408,3.8903,3.8886,3.8831,3.7867,3.6564,3.5831,3.6146,3.6936,3.7686,3.8413,3.9169,3.991,4.0096,4.0096,4.0096,4.0096,4.0096,4.0096,4.0096,4.0096,4.0096,4.0096,4.0096,4.0096,4.0096,4.0096,4.0096,4.0096,4.0557,4.191,4.1576,4.1711,4.3051,4.3203,4.3237,4.3304,4.4624,4.5783,4.6507,4.5952,4.5584,4.5584,4.4961,4.4615,4.4615,4.4615,4.4615,4.4615,4.4615,4.4615,4.4615,4.4615,4.4615,4.4615,4.4615,4.4592,4.4564,4.4244,4.4097,4.4072,4.3823,4.3671,4.3616,4.3616,4.3561,4.3506,4.3506,4.3506,4.3479,3.83,3.9177,4.013,4.104,4.1319,4.1491,4.1647,4.1048,4.0519,4.0354,4.0709,4.073,4.0163,4.0625,4.0743,4.0146,4.0248,4.0269,4.0113,4.0252,4.0269,4.0113,4.0096,4.0096,4.0096,4.0096,4.0096,4.0096,3.9289,3.8443,3.7567,3.6916,3.6044,3.5085,3.537,3.5131,3.4474,3.3934,3.3803,3.3905,3.3666,3.4088,3.4937,3.6111,3.6662,3.6931,3.7821,3.8142,3.8058,3.7477,3.6654,3.5831,3.565,3.6146,3.6936,3.7686,3.8413,3.9169,3.991,4.0096,4.0096,4.0096,4.0096,4.0096,4.0096,4.0096,4.0096,4.0096,4.0096,4.0096,4.0096,4.0096,4.0096,4.0096,4.0096,4.0214,4.0523,4.0946,4.1322,4.163,4.1681,4.1901,4.2472,4.4237,4.6044,4.7763,4.6835,4.6204,4.6204,4.5178,4.4615,4.4615,4.4615,4.4615,4.4615,4.4615,4.4615,4.4615,4.4615,4.4615,4.4615,4.4615,4.4504,4.4389,4.4775,4.4874,4.4803,4.5203,4.5002,4.4443,4.4443,4.4048,4.3506,4.3506,4.3506,4.3436,3.8827,3.9551,4.0327,4.1071,4.1204,4.1204,4.1204,4.0865,4.0506,4.0146,4.0438,4.0523,4.0146,4.0438,4.0523,4.013,4.0422,4.0472,4.013,4.0422,4.0472,4.013,4.0096,4.0096,4.0096,4.0096,4.0096,4.0096,3.8938,3.8177,3.7778,3.6615,3.5863,3.5504,3.5504,3.5131,3.4459,3.3769,3.35,3.3499,3.3567,3.4,3.4709,3.5799,3.6462,3.6846,3.7241,3.7601,3.7877,3.7867,3.733,3.6642,3.627,3.6941,3.7867,3.7889,3.8667,3.9609,3.9994,4.0096,4.0096,4.0096,4.0096,4.0096,4.0096,4.0096,4.0096,4.0096,4.0096,4.0096,4.0096,4.0096,4.0096,4.0096,4.0096,4.0218,4.0574,4.0658,4.0798,4.117,4.1204,4.1865,4.3578,4.4677,4.6,4.7743,4.6966,4.6276,4.5989,4.5102,4.4615,4.4615,4.4615,4.4615,4.4615,4.4615,4.4615,4.4615,4.4615,4.4615,4.4615,4.4615,4.4541,4.4462,4.4978,4.5169,4.5129,4.5675,4.5645,4.5232,4.4847,4.4443,4.403,4.3635,4.3348,4.3069,3.9113,3.9737,4.0472,4.1085,4.1204,4.1204,4.1204,4.1085,4.0781,4.018,4.0096,4.0096,4.0096,4.0096,4.0096,4.0096,4.0658,4.0747,4.0146,4.0675,4.073,4.013,4.0096,4.0096,4.0096,4.0096,4.0096,4.0096,3.8571,3.7807,3.7778,3.6227,3.5504,3.5504,3.5504,3.5055,3.4278,3.3739,3.3365,3.3176,3.3483,3.4018,3.4684,3.5355,3.618,3.697,3.6846,3.7274,3.7978,3.8616,3.8413,3.7787,3.7173,3.7833,3.8717,3.8227,3.8949,3.9943,4.0079,4.0096,4.0096,4.0096,4.0096,4.0096,4.0096,4.0096,4.0096,4.0096,4.0096,4.0096,4.0096,4.0096,4.0096,4.0096,4.0096,4.0303,4.0933,4.0591,4.0472,4.095,4.1119,4.2226,4.4857,4.5095,4.5786,4.7437,4.671,4.6039,4.5669,4.4984,4.4615,4.4615,4.4615,4.4615,4.4615,4.4615,4.4615,4.4615,4.4615,4.4615,4.4615,4.4615,4.4615,4.4634,4.5159,4.5411,4.545,4.605,4.6232,4.6049,4.536,4.4938,4.4608,4.38,4.3214,4.2826,3.994,4.0544,4.1085,4.1187,4.1204,4.1204,4.1204,4.0658,4.0214,4.0113,4.0096,4.0096,4.0096,4.0096,4.0096,4.0096,4.0185,4.0214,4.0113,4.0185,4.0202,4.0096,4.0096,4.0096,4.0096,4.0096,4.0096,4.0096,3.8571,3.7807,3.7778,3.6227,3.5504,3.5504,3.5504,3.4816,3.3634,3.3529,3.2841,3.1874,3.3108,3.4028,3.4743,3.5377,3.6507,3.7669,3.7021,3.7274,3.791,3.8024,3.799,3.7877,3.7775,3.7877,3.8147,3.8684,3.8988,3.9288,3.9943,4.0096,4.0096,4.0096,4.0096,4.0096,4.0096,4.0096,4.0096,4.0096,4.0096,4.0096,4.0096,4.0096,4.0096,4.0096,4.0096,4.013,4.0218,4.0696,4.0849,4.0303,4.0798,4.202,4.4137,4.4293,4.5351,4.7985,4.6431,4.5635,4.6252,4.5205,4.4615,4.4615,4.4615,4.4615,4.4615,4.4615,4.4615,4.4615,4.4615,4.4615,4.4615,4.4615,4.4615,4.4651,4.576,4.6248,4.6324,4.7496,4.7562,4.6929,4.6819,4.592,4.4608,4.38,4.3444,4.3339,4.0096,4.0354,4.0591,4.0591,4.0591,4.0591,4.0591,4.0303,4.0096,4.0096,4.0096,4.0096,4.0096,4.0096,4.0096,4.0096,4.0096,4.0096,4.0096,4.0096,4.0096,4.0096,4.0489,4.0523,4.0113,4.0094,3.988,3.9437,3.8332,3.7573,3.7115,3.6022,3.5504,3.5504,3.5504,3.4756,3.3499,3.3499,3.2721,3.161,3.3037,3.404,3.4819,3.5866,3.7195,3.8531,3.8611,3.8323,3.8041,3.8853,3.8865,3.8514,3.8514,3.8802,3.9119,3.9034,3.9288,3.969,4.0011,4.0096,4.0096,4.0096,4.0096,4.0214,4.0625,4.0696,4.0696,4.0696,4.0388,4.0231,4.0641,4.0371,4.0096,4.0096,4.0096,4.0096,4.0096,4.0371,4.0625,4.0709,4.1336,4.2566,4.462,4.5131,4.6032,4.7666,4.6956,4.6433,4.6413,4.589,4.561,4.561,4.561,4.561,4.561,4.561,4.561,4.561,4.561,4.5258,4.4612,4.4944,4.5102,4.5165,4.6425,4.6955,4.7033,4.7937,4.8095,4.7691,4.6773,4.5461,4.3993,4.3635,4.3303,4.3014]}]]